[[{"header":{"parameterUnit":"m.s-1","parameterCategory":1,"la1":31.0,"la2":29.5877,"lo1":-88.7671,"lo2":-86.6584,"dy":0.0162,"dx":0.0185,"nx":115,"ny":88,"refTime":"2023-08-06T12:00:00:Z","depth":0,"parameterNumber":2,"parameterNumberName":"U-component_of_WINDS"},"data":[0.0,0.0,0.0,0.0,0.0,0.0,0.0,0.0,0.0,0.0,0.0,0.0,0.0,0.0,0.0,0.0,0.0,0.0,0.0,0.0,0.0,0.0,0.0,0.0,0.0,0.0,0.0,0.0,0.0,0.0,0.0,0.0,0.0,0.0,0.0,0.0,0.0,0.0,0.0,0.0,0.0,0.0,0.0,0.0,0.0,0.0,0.0,0.0,0.0,0.0,0.0,0.0,0.0,0.0,0.0,0.0,0.0,0.0,0.0,0.0,0.0,0.0,0.0,0.0,0.0,0.0,0.0,0.0,0.0,0.0,0.0,0.0,0.0,0.0,0.0,0.0,0.0,0.0,0.0,0.0,0.0,0.0,0.0,0.0,0.0,0.0,0.0,0.0,0.0,0.0,0.0,0.0,0.0,0.0,0.0,0.0,0.0,0.0,0.0,0.0,0.0,0.0,0.0,0.0,0.0,0.0,0.0,0.0,0.0,0.0,0.0,0.0,0.0,0.0,0.0,0.0,0.0,0.0,0.0,0.0,0.0,0.0,0.0,0.0,0.0,0.0,0.0,0.0,0.0,0.0,0.0,0.0,0.0,0.0,0.0,0.0,0.0,0.0,0.0,0.0,0.0,0.0,0.0,0.0,0.0,0.0,0.0,0.0,0.0,0.0,0.0,0.0,0.0,0.0,0.0,0.0,0.0,0.0,0.0,0.0,0.0,0.0,0.0,0.0,0.0,0.0,0.0,0.0,0.0,0.0,0.0,0.0,0.0,0.0,0.0,0.0,0.0,0.0,0.0,0.0,0.0,0.0,0.0,0.0,0.0,0.0,0.0,0.0,0.0,0.0,0.0,0.0,0.0,0.0,0.0,0.0,0.0,0.0,0.0,0.0,0.0,0.0,0.0,0.0,0.0,0.0,0.0,0.0,0.0,0.0,0.0,0.0,0.0,0.0,0.0,0.0,0.0,0.0,0.0,0.0,0.0,0.0,0.0,0.0,0.0,0.0,0.0,0.0,0.0,0.0,0.0,0.0,0.0,0.0,0.0,0.0,0.0,0.0,0.0,0.0,0.0,0.0,0.0,0.0,0.0,0.0,0.0,0.0,0.0,0.0,0.0,0.0,0.0,0.0,0.0,0.0,0.0,0.0,0.0,0.0,0.0,0.0,0.0,0.0,0.0,0.0,0.0,0.0,0.0,0.0,0.0,0.0,0.0,0.0,0.0,0.0,0.0,0.0,0.0,0.0,0.0,0.0,0.0,0.0,0.0,0.0,0.0,0.0,0.0,0.0,0.0,0.0,0.0,0.0,0.0,0.0,0.0,0.0,0.0,0.0,0.0,0.0,0.0,0.0,0.0,0.0,0.0,0.0,0.0,0.0,0.0,0.0,0.0,0.0,0.0,0.0,0.0,0.0,0.0,0.0,0.0,0.0,0.0,0.0,0.0,0.0,0.0,0.0,0.0,0.0,0.0,0.0,0.0,0.0,0.0,0.0,0.0,0.0,0.0,0.0,0.0,0.0,0.0,0.0,0.0,0.0,0.0,0.0,0.0,0.0,0.0,0.0,0.0,0.0,0.0,0.0,0.0,0.0,0.0,0.0,0.0,0.0,0.0,0.0,0.0,0.0,0.0,0.0,0.0,0.0,0.0,0.0,0.0,0.0,0.0,0.0,0.0,0.0,0.0,0.0,0.0,0.0,0.0,0.0,0.0,0.0,0.0,0.0,0.0,0.0,0.0,0.0,0.0,0.0,0.0,0.0,0.0,0.0,0.0,0.0,0.0,0.0,0.0,0.0,0.0,0.0,0.0,0.0,0.0,0.0,0.0,0.0,0.0,0.0,0.0,0.0,0.0,0.0,0.0,0.0,0.0,0.0,0.0,0.0,0.0,0.0,0.0,0.0,0.0,0.0,0.0,0.0,0.0,0.0,0.0,0.0,0.0,0.0,0.0,0.0,0.0,0.0,0.0,0.0,0.0,0.0,0.0,0.0,0.0,0.0,0.0,0.0,0.0,0.0,0.0,0.0,0.0,0.0,0.0,0.0,0.0,0.0,0.0,0.0,0.0,0.0,0.0,0.0,0.0,0.0,0.0,0.0,0.0,0.0,0.0,0.0,0.0,0.0,0.0,0.0,0.0,0.0,0.0,0.0,0.0,0.0,0.0,0.0,0.0,0.0,0.0,0.0,0.0,0.0,0.0,0.0,0.0,0.0,0.0,0.0,0.0,0.0,0.0,0.0,0.0,0.0,0.0,0.0,0.0,0.0,0.0,0.0,0.0,0.0,0.0,0.0,0.0,0.0,0.0,0.0,0.0,0.0,0.0,0.0,0.0,0.0,0.0,0.0,0.0,0.0,0.0,0.0,0.0,0.0,0.0,0.0,0.0,0.0,0.0,0.0,0.0,0.0,0.0,0.0,0.0,0.0,0.0,0.0,0.0,0.0,0.0,0.0,0.0,0.0,0.0,0.0,0.0,0.0,0.0,0.0,0.0,0.0,0.0,0.0,0.0,0.0,0.0,0.0,0.0,0.0,0.0,0.0,0.0,0.0,0.0,0.0,0.0,0.0,0.0,0.0,0.0,0.0,0.0,0.0,0.0,0.0,0.0,0.0,0.0,0.0,0.0,0.0,0.0,0.0,0.0,0.0,0.0,0.0,0.0,0.0,0.0,0.0,0.0,0.0,0.0,0.0,0.0,0.0,0.0,0.0,0.0,0.0,0.0,0.0,0.0,0.0,0.0,0.0,0.0,0.0,0.0,0.0,0.0,0.0,0.0,0.0,0.0,0.0,0.0,0.0,0.0,0.0,0.0,0.0,0.0,0.0,0.0,0.0,0.0,0.0,0.0,0.0,0.0,0.0,0.0,0.0,0.0,0.0,0.0,0.0,0.0,0.0,0.0,0.0,0.0,0.0,0.0,0.0,0.0,0.0,0.0,0.0,0.0,0.0,0.0,0.0,0.0,0.0,0.0,0.0,0.0,0.0,0.0,0.0,0.0,0.0,0.0,0.0,0.0,0.0,0.0,0.0,0.0,0.0,0.0,0.0,0.0,0.0,0.0,0.0,0.0,0.0,0.0,0.0,0.0,0.0,0.0,0.0,0.0,0.0,0.0,0.0,0.0,0.0,0.0,0.0,0.0,0.0,0.0,0.0,0.0,0.0,0.0,0.0,0.0,0.0,0.0,0.0,0.0,0.0,0.0,0.0,0.0,0.0,0.0,0.0,0.0,0.0,0.0,0.0,0.0,0.0,0.0,0.0,0.0,0.0,0.0,0.0,0.0,0.0,0.0,0.0,0.0,0.0,0.0,0.0,0.0,0.0,0.0,0.0,0.0,0.0,0.0,0.0,0.0,0.0,0.0,0.0,0.0,0.0,0.0,0.0,0.0,0.0,0.0,0.0,0.0,0.0,0.0,0.0,0.0,0.0,0.0,0.0,0.0,0.0,0.0,0.0,0.0,0.0,0.0,0.0,0.0,0.0,0.0,0.0,0.0,0.0,0.0,0.0,0.0,0.0,0.0,0.0,0.0,0.0,0.0,0.0,0.0,0.0,0.0,0.0,0.0,0.0,0.0,0.0,0.0,0.0,0.0,0.0,0.0,0.0,0.0,0.0,0.0,0.0,0.0,0.0,0.0,0.0,0.0,0.0,0.0,0.0,0.0,0.0,0.0,0.0,0.0,0.0,0.0,0.0,0.0,0.0,0.0,0.0,0.0,0.0,0.0,0.0,0.0,0.0,0.0,0.0,0.0,0.0,0.0,0.0,0.0,0.0,0.0,0.0,0.0,0.0,0.0,0.0,0.0,0.0,0.0,0.0,0.0,0.0,0.0,0.0,0.0,0.0,0.0,0.0,0.0,0.0,0.0,0.0,0.0,0.0,0.0,0.0,0.0,0.0,0.0,0.0,0.0,0.0,0.0,0.0,0.0,0.0,0.0,0.0,0.0,0.0,0.0,0.0,0.0,0.0,0.0,0.0,0.0,0.0,0.0,0.0,0.0,0.0,0.0,0.0,0.0,0.0,0.0,0.0,0.0,0.0,0.0,0.0,0.0,0.0,0.0,0.0,0.0,0.0,0.0,0.0,0.0,0.0,0.0,0.0,0.0,0.0,0.0,0.0,0.0,0.0,0.0,0.0,0.0,0.0,0.0,0.0,0.0,0.0,0.0,0.0,0.0,0.0,0.0,0.0,0.0,0.0,0.0,0.0,0.0,0.0,0.0,0.0,0.0,0.0,0.0,0.0,0.0,0.0,0.0,0.0,0.0,0.0,0.0,0.0,0.0,0.0,-1.8078,0.0,0.0,0.0,0.0,0.0,0.0,0.0,0.0,0.0,0.0,0.0,0.0,0.0,0.0,0.0,0.0,0.0,0.0,0.0,0.0,0.0,0.0,0.0,0.0,0.0,0.0,0.0,0.0,0.0,0.0,0.0,0.0,0.0,0.0,0.0,0.0,0.0,0.0,0.0,0.0,0.0,0.0,0.0,0.0,0.0,0.0,0.0,0.0,0.0,0.0,0.0,0.0,0.0,0.0,0.0,0.0,0.0,0.0,0.0,0.0,0.0,0.0,0.0,0.0,0.0,0.0,0.0,0.0,0.0,0.0,0.0,0.0,0.0,0.0,0.0,0.0,0.0,0.0,0.0,0.0,0.0,0.0,0.0,0.0,0.0,0.0,0.0,0.0,0.0,0.0,0.0,0.0,0.0,0.0,0.0,0.0,0.0,0.0,0.0,0.0,0.0,0.0,0.0,0.0,0.0,0.0,0.0,0.0,0.0,0.0,-1.951,-1.9773,-1.8756,-1.8204,-1.8179,0.0,0.0,0.0,0.0,0.0,0.0,0.0,0.0,0.0,0.0,0.0,0.0,0.0,0.0,0.0,0.0,0.0,0.0,0.0,0.0,0.0,0.0,0.0,0.0,0.0,0.0,0.0,0.0,0.0,0.0,0.0,0.0,0.0,0.0,0.0,0.0,0.0,0.0,0.0,0.0,0.0,0.0,0.0,0.0,0.0,0.0,0.0,0.0,0.0,0.0,0.0,0.0,0.0,0.0,0.0,0.0,0.0,0.0,0.0,0.0,0.0,0.0,0.0,0.0,0.0,0.0,0.0,0.0,0.0,0.0,0.0,0.0,0.0,0.0,0.0,0.0,0.0,0.0,0.0,0.0,0.0,0.0,0.0,0.0,0.0,0.0,0.0,0.0,0.0,0.0,0.0,0.0,0.0,0.0,0.0,0.0,0.0,0.0,0.0,0.0,0.0,0.0,0.0,0.0,0.0,0.0,0.0,0.0,0.0,0.0,0.0,0.0,-1.8882,-1.8243,-1.8003,0.0,0.0,0.0,0.0,0.0,0.0,0.0,0.0,0.0,0.0,0.0,0.0,0.0,0.0,0.0,0.0,0.0,0.0,0.0,0.0,0.0,0.0,0.0,0.0,0.0,0.0,0.0,0.0,0.0,0.0,0.0,0.0,0.0,0.0,0.0,0.0,0.0,0.0,0.0,0.0,0.0,0.0,0.0,0.0,0.0,0.0,0.0,0.0,0.0,0.0,0.0,0.0,0.0,0.0,0.0,0.0,0.0,0.0,0.0,0.0,0.0,0.0,0.0,0.0,0.0,0.0,0.0,0.0,0.0,0.0,0.0,0.0,0.0,0.0,0.0,0.0,0.0,0.0,0.0,0.0,0.0,0.0,0.0,0.0,0.0,0.0,0.0,0.0,0.0,0.0,0.0,0.0,0.0,0.0,0.0,0.0,0.0,0.0,0.0,0.0,0.0,0.0,0.0,0.0,0.0,0.0,0.0,0.0,0.0,0.0,-1.9246,-1.9773,-1.9208,0.0,-1.7561,0.0,0.0,0.0,0.0,0.0,0.0,0.0,0.0,0.0,0.0,0.0,0.0,0.0,0.0,0.0,0.0,0.0,0.0,0.0,0.0,0.0,0.0,0.0,0.0,0.0,0.0,0.0,0.0,0.0,0.0,0.0,0.0,0.0,0.0,0.0,0.0,0.0,0.0,0.0,0.0,0.0,0.0,0.0,0.0,0.0,0.0,0.0,0.0,0.0,0.0,0.0,0.0,0.0,0.0,0.0,0.0,0.0,0.0,0.0,0.0,0.0,0.0,0.0,0.0,0.0,0.0,0.0,0.0,0.0,0.0,0.0,0.0,0.0,0.0,0.0,0.0,0.0,0.0,0.0,0.0,0.0,0.0,0.0,0.0,0.0,0.0,0.0,0.0,0.0,0.0,0.0,0.0,0.0,0.0,0.0,0.0,0.0,0.0,0.0,0.0,0.0,0.0,0.0,0.0,0.0,0.0,0.0,0.0,0.0,0.0,-1.8945,-1.9786,-1.8982,-1.8179,0.0,0.0,0.0,0.0,0.0,0.0,0.0,0.0,0.0,0.0,0.0,0.0,0.0,0.0,0.0,0.0,0.0,0.0,0.0,0.0,0.0,0.0,0.0,0.0,0.0,0.0,0.0,0.0,0.0,0.0,0.0,0.0,0.0,0.0,0.0,0.0,0.0,0.0,0.0,0.0,0.0,0.0,0.0,0.0,0.0,0.0,0.0,0.0,0.0,0.0,0.0,0.0,0.0,0.0,0.0,0.0,0.0,0.0,0.0,0.0,0.0,0.0,0.0,0.0,0.0,0.0,0.0,0.0,0.0,0.0,0.0,0.0,0.0,0.0,0.0,0.0,0.0,0.0,0.0,0.0,0.0,0.0,0.0,0.0,0.0,0.0,0.0,0.0,0.0,0.0,0.0,0.0,0.0,0.0,0.0,0.0,0.0,0.0,0.0,0.0,0.0,0.0,0.0,0.0,0.0,0.0,0.0,0.0,0.0,0.0,-1.8393,-1.8656,-1.9484,-1.882,-1.8103,-1.7423,0.0,0.0,0.0,0.0,0.0,0.0,0.0,0.0,0.0,0.0,0.0,0.0,0.0,0.0,0.0,0.0,0.0,0.0,0.0,0.0,0.0,0.0,0.0,0.0,0.0,0.0,0.0,0.0,0.0,0.0,0.0,0.0,0.0,0.0,0.0,0.0,0.0,0.0,0.0,0.0,0.0,0.0,0.0,0.0,0.0,0.0,0.0,0.0,0.0,0.0,0.0,0.0,0.0,0.0,0.0,0.0,0.0,0.0,0.0,0.0,0.0,0.0,0.0,0.0,0.0,0.0,0.0,0.0,0.0,0.0,0.0,0.0,0.0,0.0,0.0,0.0,0.0,0.0,0.0,0.0,0.0,0.0,0.0,0.0,0.0,0.0,0.0,0.0,0.0,0.0,0.0,0.0,0.0,0.0,0.0,0.0,0.0,0.0,0.0,0.0,0.0,0.0,0.0,0.0,0.0,0.0,0.0,0.0,-1.8191,-1.8216,-1.8456,-1.9033,-1.8983,-1.848,0.0,0.0,0.0,0.0,0.0,0.0,0.0,0.0,0.0,0.0,0.0,0.0,0.0,0.0,0.0,0.0,0.0,0.0,0.0,0.0,0.0,0.0,0.0,0.0,0.0,0.0,0.0,0.0,0.0,0.0,0.0,0.0,0.0,0.0,0.0,0.0,0.0,0.0,0.0,0.0,0.0,0.0,0.0,0.0,0.0,0.0,0.0,0.0,0.0,0.0,0.0,0.0,0.0,0.0,0.0,0.0,0.0,0.0,0.0,0.0,0.0,0.0,0.0,0.0,0.0,0.0,0.0,0.0,0.0,0.0,0.0,0.0,0.0,0.0,0.0,0.0,0.0,0.0,0.0,0.0,0.0,0.0,0.0,0.0,0.0,0.0,0.0,0.0,0.0,0.0,0.0,0.0,0.0,0.0,0.0,0.0,0.0,0.0,0.0,0.0,0.0,0.0,0.0,0.0,0.0,0.0,0.0,0.0,0.0,-1.7662,-1.8028,-1.8468,-1.8958,-1.8355,-1.7953,0.0,0.0,0.0,0.0,0.0,0.0,0.0,0.0,0.0,0.0,0.0,0.0,0.0,0.0,0.0,0.0,0.0,0.0,0.0,0.0,0.0,0.0,0.0,0.0,0.0,0.0,0.0,0.0,0.0,0.0,0.0,0.0,0.0,0.0,0.0,0.0,0.0,0.0,0.0,0.0,0.0,0.0,0.0,0.0,0.0,0.0,0.0,0.0,0.0,0.0,0.0,0.0,0.0,0.0,0.0,0.0,0.0,0.0,0.0,0.0,0.0,0.0,0.0,0.0,0.0,0.0,0.0,0.0,0.0,0.0,0.0,0.0,0.0,0.0,0.0,0.0,0.0,0.0,0.0,0.0,0.0,0.0,0.0,0.0,0.0,0.0,0.0,0.0,0.0,0.0,0.0,0.0,0.0,0.0,0.0,0.0,0.0,0.0,0.0,0.0,0.0,0.0,0.0,0.0,0.0,0.0,0.0,0.0,0.0,-1.7626,0.0,-1.8568,-1.8719,-1.8041,-1.7674,0.0,0.0,0.0,0.0,0.0,0.0,0.0,0.0,0.0,0.0,0.0,0.0,0.0,0.0,0.0,0.0,0.0,0.0,0.0,0.0,0.0,0.0,0.0,0.0,0.0,0.0,0.0,0.0,0.0,0.0,0.0,0.0,0.0,0.0,0.0,0.0,0.0,0.0,0.0,0.0,0.0,0.0,0.0,0.0,0.0,0.0,0.0,0.0,0.0,0.0,0.0,0.0,0.0,0.0,0.0,0.0,0.0,0.0,0.0,0.0,0.0,0.0,0.0,0.0,0.0,0.0,0.0,0.0,0.0,0.0,0.0,0.0,0.0,0.0,0.0,0.0,0.0,0.0,0.0,0.0,0.0,0.0,0.0,0.0,0.0,0.0,0.0,0.0,0.0,0.0,0.0,0.0,0.0,0.0,0.0,0.0,0.0,0.0,0.0,0.0,0.0,0.0,0.0,0.0,0.0,0.0,0.0,0.0,-1.7064,-1.8141,-1.8682,-1.8719,-1.8242,-1.8155,-1.7664,0.0,0.0,0.0,0.0,0.0,0.0,0.0,0.0,0.0,0.0,0.0,0.0,0.0,0.0,0.0,0.0,0.0,0.0,0.0,0.0,0.0,0.0,0.0,0.0,0.0,0.0,0.0,0.0,0.0,0.0,0.0,0.0,0.0,0.0,0.0,0.0,0.0,0.0,0.0,0.0,0.0,0.0,0.0,0.0,0.0,0.0,0.0,0.0,0.0,0.0,0.0,0.0,0.0,0.0,0.0,0.0,0.0,0.0,0.0,0.0,0.0,0.0,0.0,0.0,0.0,0.0,0.0,0.0,0.0,0.0,0.0,0.0,0.0,0.0,0.0,0.0,0.0,0.0,0.0,0.0,0.0,0.0,0.0,0.0,0.0,0.0,0.0,0.0,0.0,0.0,0.0,0.0,0.0,0.0,0.0,0.0,0.0,0.0,0.0,0.0,0.0,0.0,0.0,0.0,0.0,0.0,0.0,0.0,0.0,-1.7652,-1.8179,-1.8531,-1.8707,-1.8028,-1.7674,0.0,0.0,0.0,0.0,0.0,0.0,0.0,0.0,0.0,0.0,0.0,0.0,0.0,0.0,0.0,0.0,0.0,0.0,0.0,0.0,0.0,0.0,0.0,0.0,0.0,0.0,0.0,0.0,0.0,0.0,0.0,0.0,0.0,0.0,0.0,0.0,0.0,0.0,0.0,0.0,0.0,0.0,0.0,0.0,0.0,0.0,0.0,0.0,0.0,0.0,0.0,0.0,0.0,0.0,0.0,0.0,0.0,0.0,0.0,0.0,0.0,0.0,0.0,0.0,0.0,0.0,0.0,0.0,0.0,0.0,0.0,0.0,0.0,0.0,0.0,0.0,0.0,0.0,0.0,0.0,0.0,0.0,0.0,0.0,0.0,0.0,0.0,0.0,0.0,0.0,0.0,0.0,0.0,0.0,0.0,0.0,0.0,0.0,0.0,0.0,0.0,0.0,0.0,0.0,0.0,0.0,0.0,0.0,0.0,-1.8304,-1.8832,-1.9183,-1.9284,-1.8455,-1.7965,-1.7877,0.0,0.0,0.0,0.0,0.0,0.0,0.0,0.0,0.0,0.0,0.0,0.0,0.0,0.0,0.0,0.0,0.0,0.0,0.0,0.0,0.0,0.0,0.0,0.0,0.0,0.0,0.0,0.0,0.0,0.0,0.0,0.0,0.0,0.0,0.0,0.0,0.0,0.0,0.0,0.0,0.0,0.0,0.0,0.0,0.0,0.0,0.0,0.0,0.0,0.0,0.0,0.0,0.0,0.0,0.0,0.0,0.0,0.0,0.0,0.0,0.0,0.0,0.0,0.0,0.0,0.0,0.0,0.0,0.0,0.0,0.0,0.0,0.0,0.0,0.0,0.0,0.0,0.0,0.0,0.0,0.0,0.0,0.0,0.0,0.0,0.0,0.0,0.0,0.0,0.0,0.0,0.0,0.0,0.0,0.0,0.0,0.0,0.0,0.0,0.0,0.0,0.0,0.0,0.0,0.0,0.0,0.0,0.0,-1.9836,-2.0478,-2.0503,-1.9911,-1.9296,-1.8543,0.0,0.0,0.0,0.0,0.0,0.0,0.0,0.0,0.0,0.0,0.0,0.0,0.0,0.0,0.0,0.0,0.0,0.0,0.0,0.0,0.0,0.0,0.0,0.0,0.0,0.0,0.0,0.0,0.0,0.0,0.0,0.0,0.0,0.0,0.0,0.0,0.0,0.0,0.0,0.0,0.0,0.0,0.0,0.0,0.0,0.0,0.0,0.0,0.0,0.0,0.0,0.0,0.0,0.0,0.0,0.0,0.0,0.0,0.0,0.0,0.0,0.0,0.0,0.0,0.0,0.0,0.0,0.0,0.0,0.0,0.0,0.0,0.0,0.0,0.0,0.0,0.0,0.0,0.0,0.0,0.0,0.0,0.0,0.0,0.0,0.0,0.0,0.0,0.0,0.0,0.0,0.0,0.0,0.0,0.0,0.0,0.0,0.0,0.0,0.0,0.0,0.0,0.0,0.0,0.0,0.0,0.0,0.0,0.0,-2.0453,-2.138,-2.1606,-2.1041,-1.971,-1.887,0.0,0.0,0.0,0.0,0.0,0.0,0.0,0.0,0.0,0.0,0.0,0.0,0.0,0.0,0.0,0.0,0.0,0.0,0.0,0.0,0.0,0.0,0.0,0.0,0.0,0.0,0.0,0.0,0.0,0.0,0.0,0.0,0.0,0.0,0.0,0.0,0.0,0.0,0.0,0.0,0.0,0.0,0.0,0.0,0.0,0.0,0.0,0.0,0.0,0.0,0.0,0.0,0.0,0.0,0.0,0.0,0.0,0.0,0.0,0.0,0.0,0.0,0.0,0.0,0.0,0.0,0.0,0.0,0.0,0.0,0.0,0.0,0.0,0.0,0.0,0.0,0.0,0.0,0.0,0.0,0.0,0.0,0.0,0.0,0.0,0.0,0.0,0.0,0.0,0.0,0.0,0.0,0.0,0.0,0.0,0.0,0.0,0.0,0.0,0.0,0.0,0.0,0.0,0.0,0.0,0.0,0.0,0.0,-2.025,-2.1343,-2.2447,-2.2874,-2.2577,-2.0702,-1.9472,0.0,0.0,0.0,0.0,0.0,0.0,0.0,0.0,0.0,0.0,0.0,0.0,0.0,0.0,0.0,0.0,0.0,0.0,0.0,0.0,0.0,0.0,0.0,0.0,0.0,0.0,0.0,0.0,0.0,0.0,0.0,0.0,0.0,0.0,0.0,0.0,0.0,0.0,0.0,0.0,0.0,0.0,0.0,0.0,0.0,0.0,0.0,0.0,0.0,0.0,0.0,0.0,0.0,0.0,0.0,0.0,0.0,0.0,0.0,0.0,0.0,0.0,0.0,0.0,0.0,0.0,0.0,0.0,0.0,0.0,0.0,0.0,0.0,0.0,0.0,0.0,0.0,0.0,0.0,0.0,0.0,0.0,0.0,0.0,0.0,0.0,0.0,0.0,0.0,0.0,0.0,0.0,0.0,0.0,0.0,0.0,0.0,0.0,0.0,0.0,0.0,0.0,0.0,0.0,0.0,0.0,0.0,0.0,-2.1257,-2.2372,-2.3389,-2.3941,-2.3929,-2.186,-2.0239,0.0,0.0,0.0,0.0,0.0,0.0,0.0,0.0,0.0,0.0,0.0,0.0,0.0,0.0,0.0,0.0,0.0,0.0,0.0,0.0,0.0,0.0,0.0,0.0,0.0,0.0,0.0,0.0,0.0,0.0,0.0,0.0,0.0,0.0,0.0,0.0,0.0,0.0,0.0,0.0,0.0,0.0,0.0,0.0,0.0,0.0,0.0,0.0,0.0,0.0,0.0,0.0,0.0,0.0,0.0,0.0,0.0,0.0,0.0,0.0,0.0,0.0,0.0,0.0,0.0,0.0,0.0,0.0,0.0,0.0,0.0,0.0,0.0,0.0,0.0,0.0,0.0,0.0,0.0,0.0,0.0,0.0,0.0,0.0,0.0,0.0,0.0,0.0,0.0,0.0,0.0,0.0,0.0,0.0,0.0,0.0,0.0,0.0,0.0,0.0,0.0,0.0,0.0,0.0,0.0,0.0,0.0,0.0,-2.1418,-2.2882,-2.317,-2.3509,-2.3979,-2.186,-2.0591,0.0,0.0,0.0,0.0,0.0,0.0,0.0,0.0,0.0,0.0,0.0,0.0,0.0,0.0,0.0,0.0,0.0,0.0,0.0,0.0,0.0,0.0,0.0,0.0,0.0,0.0,0.0,0.0,0.0,0.0,0.0,0.0,0.0,0.0,0.0,0.0,0.0,0.0,0.0,0.0,0.0,0.0,0.0,0.0,0.0,0.0,0.0,0.0,-1.7702,0.0,0.0,0.0,0.0,0.0,0.0,0.0,0.0,0.0,0.0,0.0,0.0,0.0,0.0,0.0,0.0,0.0,0.0,0.0,0.0,0.0,0.0,0.0,0.0,0.0,0.0,0.0,0.0,0.0,0.0,0.0,0.0,0.0,0.0,0.0,0.0,0.0,0.0,0.0,0.0,0.0,0.0,0.0,0.0,0.0,0.0,0.0,0.0,0.0,0.0,0.0,0.0,0.0,0.0,0.0,0.0,0.0,0.0,0.0,-2.1983,-2.307,-2.386,-2.4205,-2.3954,-2.2585,-2.1483,0.0,0.0,0.0,0.0,0.0,0.0,0.0,0.0,0.0,0.0,0.0,0.0,0.0,0.0,0.0,0.0,0.0,0.0,0.0,0.0,0.0,0.0,0.0,0.0,0.0,0.0,0.0,0.0,0.0,0.0,0.0,0.0,0.0,0.0,0.0,0.0,0.0,0.0,0.0,0.0,0.0,0.0,0.0,0.0,0.0,0.0,0.0,0.0,0.0,0.0,0.0,0.0,0.0,0.0,0.0,0.0,0.0,0.0,0.0,0.0,0.0,0.0,0.0,0.0,0.0,0.0,0.0,0.0,0.0,0.0,0.0,0.0,0.0,0.0,0.0,0.0,0.0,0.0,0.0,0.0,0.0,0.0,0.0,0.0,0.0,0.0,0.0,0.0,0.0,0.0,0.0,0.0,0.0,0.0,0.0,0.0,0.0,0.0,0.0,0.0,0.0,0.0,0.0,0.0,0.0,0.0,0.0,-2.1252,-2.2594,-2.3258,-2.4632,-2.4921,-2.4029,-2.3409,-2.2368,-2.088,0.0,0.0,0.0,0.0,0.0,0.0,0.0,0.0,0.0,0.0,0.0,0.0,0.0,0.0,0.0,0.0,0.0,0.0,0.0,0.0,0.0,0.0,0.0,0.0,0.0,0.0,0.0,0.0,0.0,0.0,0.0,0.0,0.0,0.0,0.0,0.0,0.0,0.0,-1.676,-1.6613,0.0,0.0,0.0,0.0,0.0,0.0,0.0,0.0,-1.7513,0.0,0.0,0.0,0.0,0.0,0.0,0.0,0.0,0.0,0.0,0.0,0.0,0.0,0.0,0.0,0.0,0.0,0.0,0.0,0.0,0.0,0.0,0.0,0.0,0.0,0.0,0.0,0.0,0.0,0.0,0.0,0.0,0.0,0.0,0.0,0.0,0.0,0.0,0.0,0.0,0.0,0.0,0.0,0.0,0.0,0.0,0.0,0.0,0.0,0.0,0.0,0.0,0.0,0.0,0.0,0.0,-2.0402,-2.1669,-2.2811,-2.3828,-2.413,-2.418,-2.3991,-2.3409,-2.2543,-2.138,0.0,0.0,0.0,0.0,0.0,0.0,0.0,0.0,0.0,0.0,0.0,0.0,0.0,0.0,0.0,0.0,0.0,0.0,0.0,0.0,0.0,0.0,0.0,0.0,0.0,0.0,0.0,0.0,0.0,0.0,0.0,0.0,0.0,0.0,0.0,0.0,0.0,0.0,0.0,-1.7089,-1.6901,0.0,0.0,0.0,0.0,0.0,0.0,0.0,0.0,-1.8468,0.0,0.0,0.0,0.0,0.0,0.0,0.0,0.0,0.0,0.0,0.0,0.0,0.0,0.0,0.0,0.0,0.0,0.0,0.0,0.0,0.0,0.0,0.0,0.0,0.0,0.0,0.0,0.0,0.0,0.0,0.0,0.0,0.0,0.0,0.0,0.0,0.0,0.0,0.0,0.0,0.0,0.0,0.0,0.0,0.0,0.0,0.0,0.0,0.0,0.0,0.0,0.0,0.0,0.0,0.0,-2.0691,-2.2322,-2.3452,-2.3991,-2.4544,-2.4418,-2.359,-2.3258,-2.2594,0.0,0.0,0.0,0.0,0.0,0.0,0.0,0.0,0.0,0.0,0.0,0.0,0.0,0.0,0.0,0.0,0.0,0.0,0.0,0.0,0.0,0.0,0.0,0.0,0.0,0.0,0.0,0.0,0.0,0.0,0.0,0.0,0.0,0.0,0.0,0.0,0.0,0.0,0.0,0.0,-1.7892,-1.779,-1.8882,0.0,0.0,0.0,0.0,0.0,0.0,-1.8543,-1.8568,0.0,0.0,0.0,0.0,0.0,0.0,0.0,0.0,0.0,0.0,0.0,0.0,0.0,0.0,0.0,0.0,0.0,0.0,0.0,0.0,0.0,0.0,0.0,0.0,0.0,0.0,0.0,0.0,0.0,0.0,0.0,0.0,0.0,0.0,0.0,0.0,0.0,0.0,0.0,0.0,0.0,0.0,0.0,0.0,0.0,0.0,0.0,0.0,0.0,0.0,0.0,0.0,0.0,0.0,0.0,-2.0717,-2.2778,-2.3828,-2.3866,-2.477,-2.4582,-2.3158,-2.2995,-2.2447,0.0,0.0,0.0,0.0,0.0,0.0,0.0,0.0,0.0,0.0,0.0,0.0,0.0,0.0,0.0,0.0,0.0,0.0,0.0,0.0,0.0,0.0,0.0,0.0,0.0,0.0,0.0,0.0,0.0,0.0,0.0,0.0,0.0,0.0,0.0,0.0,0.0,0.0,0.0,0.0,0.0,-1.8882,-1.9823,-1.9058,0.0,0.0,0.0,0.0,-1.8706,-1.897,0.0,0.0,0.0,0.0,0.0,0.0,0.0,0.0,0.0,0.0,0.0,0.0,0.0,0.0,0.0,0.0,0.0,0.0,0.0,0.0,0.0,0.0,0.0,0.0,0.0,0.0,0.0,0.0,0.0,0.0,0.0,0.0,0.0,0.0,0.0,0.0,0.0,0.0,0.0,0.0,0.0,0.0,0.0,0.0,0.0,0.0,0.0,0.0,0.0,0.0,0.0,0.0,0.0,0.0,0.0,0.0,-2.0704,-2.233,-2.3208,-2.3233,-2.3822,-2.381,-2.312,-2.2644,-2.1882,0.0,0.0,0.0,0.0,0.0,0.0,0.0,0.0,0.0,0.0,0.0,0.0,0.0,0.0,0.0,0.0,0.0,0.0,0.0,0.0,0.0,0.0,0.0,0.0,0.0,0.0,0.0,0.0,0.0,0.0,0.0,0.0,0.0,0.0,0.0,0.0,0.0,0.0,0.0,0.0,0.0,-1.9849,-2.0503,-1.9623,-1.8907,0.0,0.0,-2.0415,-2.0402,-2.1606,0.0,0.0,0.0,0.0,0.0,0.0,0.0,0.0,0.0,0.0,0.0,0.0,0.0,0.0,0.0,0.0,0.0,0.0,0.0,0.0,0.0,0.0,0.0,0.0,0.0,0.0,0.0,0.0,0.0,0.0,0.0,0.0,0.0,0.0,0.0,0.0,0.0,0.0,0.0,0.0,0.0,0.0,0.0,0.0,0.0,0.0,0.0,0.0,0.0,0.0,0.0,0.0,0.0,0.0,0.0,-2.0175,-2.1594,-2.3221,-2.4199,-2.4519,-2.4481,-2.4192,-2.364,-2.2472,-2.1496,0.0,0.0,0.0,0.0,0.0,0.0,0.0,0.0,0.0,0.0,0.0,0.0,0.0,0.0,0.0,0.0,0.0,0.0,0.0,0.0,0.0,0.0,0.0,0.0,0.0,0.0,0.0,0.0,0.0,0.0,0.0,0.0,0.0,0.0,0.0,0.0,0.0,0.0,0.0,0.0,0.0,0.0,-2.1119,-2.0727,0.0,0.0,0.0,-2.0943,-2.0302,0.0,0.0,0.0,0.0,0.0,0.0,0.0,0.0,0.0,0.0,0.0,0.0,0.0,0.0,0.0,0.0,0.0,0.0,0.0,0.0,0.0,0.0,0.0,0.0,0.0,0.0,0.0,0.0,0.0,0.0,0.0,0.0,0.0,0.0,0.0,0.0,0.0,0.0,0.0,0.0,0.0,0.0,0.0,0.0,0.0,0.0,0.0,0.0,0.0,0.0,0.0,0.0,0.0,0.0,0.0,0.0,0.0,-2.2297,-2.3797,-2.4838,-2.5372,-2.4895,-2.4418,-2.3991,-2.2372,0.0,0.0,0.0,0.0,0.0,0.0,0.0,0.0,0.0,0.0,0.0,0.0,0.0,0.0,0.0,0.0,0.0,0.0,0.0,0.0,0.0,0.0,0.0,0.0,0.0,0.0,0.0,-1.6826,0.0,0.0,0.0,0.0,0.0,0.0,0.0,0.0,0.0,0.0,0.0,0.0,0.0,0.0,-2.202,-2.1732,-2.1807,-2.1945,0.0,0.0,-2.1493,-2.0941,-2.2569,-2.3083,0.0,0.0,0.0,0.0,0.0,0.0,0.0,0.0,0.0,0.0,0.0,0.0,0.0,0.0,0.0,0.0,0.0,0.0,0.0,0.0,0.0,0.0,0.0,0.0,0.0,0.0,0.0,0.0,0.0,0.0,0.0,0.0,0.0,0.0,0.0,0.0,0.0,0.0,0.0,0.0,0.0,0.0,0.0,0.0,0.0,0.0,0.0,0.0,0.0,0.0,0.0,0.0,0.0,0.0,-2.0639,-2.2272,-2.3464,-2.433,-2.4845,-2.433,-2.4029,-2.3966,-2.2372,-2.0978,0.0,0.0,0.0,0.0,0.0,0.0,0.0,0.0,0.0,0.0,0.0,0.0,0.0,0.0,0.0,0.0,0.0,0.0,0.0,0.0,0.0,0.0,0.0,0.0,0.0,0.0,0.0,0.0,0.0,0.0,0.0,0.0,0.0,0.0,0.0,0.0,0.0,0.0,0.0,0.0,0.0,-2.3439,-2.241,-2.2669,-2.3195,0.0,-2.2937,-2.2585,-2.3552,-2.5096,-2.5154,-2.1923,0.0,0.0,0.0,0.0,0.0,0.0,0.0,0.0,0.0,0.0,0.0,0.0,0.0,0.0,0.0,0.0,0.0,0.0,0.0,0.0,0.0,0.0,0.0,0.0,0.0,0.0,0.0,0.0,0.0,0.0,0.0,0.0,0.0,0.0,0.0,0.0,0.0,0.0,0.0,0.0,0.0,0.0,0.0,0.0,0.0,0.0,0.0,0.0,0.0,0.0,0.0,0.0,0.0,-2.0803,-2.2757,-2.3898,-2.4757,-2.5247,-2.477,-2.4343,-2.4004,-2.2711,-2.1305,0.0,0.0,0.0,0.0,0.0,0.0,0.0,0.0,0.0,0.0,0.0,0.0,0.0,0.0,0.0,0.0,0.0,0.0,0.0,0.0,0.0,0.0,0.0,0.0,0.0,0.0,0.0,0.0,-1.966,-1.9472,-1.8781,0.0,0.0,0.0,0.0,0.0,0.0,0.0,0.0,0.0,0.0,-2.3966,-2.3835,-2.4318,0.0,0.0,-2.413,-2.3735,-2.3484,-2.4293,-2.3835,-2.0422,-1.9646,0.0,0.0,0.0,0.0,0.0,0.0,0.0,0.0,0.0,0.0,0.0,0.0,0.0,0.0,0.0,0.0,0.0,0.0,0.0,0.0,0.0,0.0,0.0,0.0,0.0,0.0,0.0,0.0,0.0,0.0,0.0,0.0,0.0,0.0,0.0,0.0,0.0,0.0,0.0,0.0,0.0,0.0,0.0,0.0,0.0,0.0,0.0,0.0,0.0,0.0,0.0,0.0,-2.1214,-2.3095,-2.4374,-2.5322,-2.5871,-2.5184,-2.4612,-2.4217,-2.2987,-2.1681,0.0,0.0,0.0,0.0,0.0,0.0,0.0,0.0,0.0,0.0,0.0,0.0,0.0,0.0,0.0,0.0,0.0,0.0,0.0,0.0,0.0,0.0,0.0,0.0,0.0,0.0,0.0,0.0,-2.0226,-1.9886,-1.9083,0.0,0.0,0.0,0.0,0.0,0.0,0.0,0.0,0.0,0.0,-2.4757,-2.482,-2.5134,-2.5222,-2.4883,-2.4255,-2.3697,-2.3409,-2.374,-2.3092,-2.0367,0.0,0.0,0.0,0.0,0.0,0.0,0.0,0.0,0.0,0.0,0.0,0.0,0.0,0.0,0.0,0.0,0.0,0.0,0.0,0.0,0.0,0.0,0.0,0.0,0.0,0.0,0.0,0.0,0.0,0.0,-1.6513,0.0,0.0,0.0,0.0,0.0,0.0,0.0,0.0,0.0,0.0,0.0,0.0,0.0,0.0,0.0,0.0,0.0,0.0,0.0,0.0,0.0,0.0,-2.1995,-2.3108,-2.4732,-2.585,-2.6411,-2.5385,-2.4775,-2.4713,-2.3158,-2.2046,-2.143,0.0,0.0,0.0,0.0,0.0,0.0,0.0,0.0,0.0,0.0,0.0,0.0,0.0,0.0,0.0,0.0,0.0,0.0,0.0,0.0,0.0,0.0,0.0,0.0,0.0,0.0,-1.7695,-1.8431,-1.9033,0.0,0.0,0.0,0.0,0.0,0.0,0.0,0.0,0.0,0.0,-2.5028,-2.6034,-2.4971,-2.48,-2.485,-2.4825,-2.3037,-2.2184,-2.371,-2.3935,-2.3602,0.0,0.0,0.0,0.0,0.0,0.0,0.0,0.0,0.0,0.0,0.0,0.0,0.0,0.0,0.0,0.0,0.0,0.0,0.0,0.0,0.0,0.0,0.0,0.0,0.0,0.0,0.0,-1.8505,-1.8168,0.0,0.0,0.0,0.0,0.0,0.0,0.0,0.0,0.0,0.0,0.0,-1.956,-1.9936,0.0,0.0,0.0,0.0,0.0,0.0,0.0,0.0,0.0,0.0,0.0,0.0,-2.2033,-2.312,-2.4757,-2.5686,-2.5862,-2.5184,-2.4644,-2.428,-2.3333,-2.2422,-2.1534,0.0,0.0,0.0,0.0,0.0,0.0,0.0,0.0,0.0,0.0,0.0,0.0,0.0,0.0,0.0,0.0,0.0,0.0,0.0,0.0,0.0,0.0,0.0,0.0,0.0,-1.8519,0.0,0.0,0.0,0.0,0.0,0.0,0.0,0.0,0.0,0.0,0.0,-2.2246,-2.3509,-2.4356,-2.482,-2.482,-2.5109,-2.5473,0.0,0.0,0.0,0.0,0.0,0.0,0.0,0.0,0.0,0.0,0.0,0.0,0.0,0.0,-1.7695,-1.6163,-1.6242,-1.6545,-1.6514,0.0,0.0,0.0,0.0,0.0,0.0,0.0,0.0,0.0,0.0,0.0,0.0,0.0,0.0,-1.9911,0.0,-1.9359,0.0,0.0,0.0,0.0,0.0,0.0,0.0,0.0,-2.0813,-2.1267,-2.128,-2.1685,-2.1631,0.0,-2.1255,-2.0702,0.0,0.0,0.0,0.0,0.0,0.0,0.0,0.0,-2.2723,-2.3434,-2.5059,-2.59,-2.5908,-2.5372,-2.4833,-2.4293,-2.3509,-2.2769,-2.2083,-2.0991,-1.9749,0.0,0.0,0.0,0.0,0.0,0.0,0.0,0.0,0.0,0.0,0.0,0.0,0.0,0.0,0.0,0.0,0.0,0.0,0.0,0.0,0.0,0.0,0.0,-1.8997,0.0,0.0,0.0,0.0,0.0,0.0,0.0,0.0,0.0,-2.2355,-2.2673,-2.3452,-2.4946,-2.5146,-2.5134,-2.5096,0.0,0.0,0.0,0.0,0.0,0.0,0.0,-2.0418,-1.922,-1.8764,-1.8516,-1.8508,-1.9216,-1.9775,-1.9893,0.0,0.0,-1.7993,-1.8012,-1.8262,-1.8262,-1.8711,-1.8958,-1.8721,-1.8851,-1.8968,0.0,0.0,0.0,0.0,0.0,0.0,0.0,0.0,-2.1131,-2.0893,0.0,-2.0213,0.0,0.0,0.0,0.0,0.0,-2.0239,0.0,0.0,-2.3201,-2.4004,-2.3979,-2.3966,-2.4004,-2.4017,-2.3966,-2.3414,-2.2322,-2.0765,0.0,0.0,0.0,0.0,0.0,0.0,-2.4042,-2.4104,-2.5682,-2.6524,-2.6499,-2.5933,-2.5335,-2.4738,-2.3697,-2.312,-2.3058,-2.2083,-2.1115,-2.0191,-1.7855,0.0,0.0,0.0,0.0,0.0,0.0,0.0,0.0,0.0,0.0,0.0,0.0,0.0,0.0,0.0,0.0,0.0,0.0,0.0,0.0,-1.9034,0.0,0.0,0.0,0.0,0.0,0.0,0.0,0.0,0.0,0.0,-2.4073,-2.4048,-2.48,-2.6869,0.0,0.0,0.0,0.0,-2.5247,-2.4242,-2.2359,-2.1431,-2.2424,-2.206,-2.1845,-2.2273,0.0,0.0,-2.081,-2.0664,-2.0576,-2.0117,-2.0742,-2.1112,-2.0742,-2.0244,-2.0,-1.9962,-2.0021,-1.9991,-1.9982,-2.0137,-2.0107,-2.4519,0.0,0.0,0.0,0.0,-2.305,-2.3565,-2.4406,-2.4255,-2.3753,-2.3,-2.2435,0.0,0.0,0.0,0.0,0.0,0.0,-2.2359,-2.3276,-2.3778,-2.4205,-2.4582,-2.455,-2.455,-2.4562,-2.4582,-2.4387,-2.4061,-2.3584,-2.2673,-2.132,0.0,0.0,0.0,0.0,-2.5134,-2.5209,-2.6436,-2.7077,-2.7077,-2.6101,-2.5159,-2.4255,-2.3916,-2.3521,-2.312,-2.2807,-2.1675,-1.9649,-1.9274,0.0,0.0,0.0,0.0,0.0,0.0,0.0,0.0,0.0,0.0,0.0,0.0,0.0,0.0,0.0,0.0,0.0,0.0,0.0,-1.685,-1.8126,-1.8703,0.0,0.0,0.0,0.0,0.0,0.0,0.0,0.0,0.0,-2.6052,-2.5053,-2.4391,0.0,0.0,-2.541,-2.5051,-2.536,-2.548,-2.5212,-2.4303,0.0,-2.3251,-2.2135,-2.1303,-2.1186,-2.1649,-2.1967,-2.1605,-2.2002,-2.2321,-2.2175,-2.2379,-2.2506,-2.2379,-2.206,-2.1736,-2.1787,-2.2012,-2.2165,-2.2175,-2.2165,-2.2146,-2.6628,-2.5059,-2.4644,-2.4782,-2.5285,-2.531,-2.5799,-2.6578,-2.6364,-2.5774,-2.4978,-2.4368,-2.3326,-2.1986,-2.1631,0.0,0.0,0.0,-2.4217,-2.533,-2.531,-2.5586,-2.6067,-2.6113,-2.6092,-2.6126,-2.6092,-2.6,-2.5799,-2.5991,-2.5222,-2.3558,0.0,0.0,-2.3665,-2.5385,-2.6251,-2.6336,-2.7155,-2.7507,-2.7316,-2.6176,-2.512,-2.4128,-2.3862,-2.3311,-2.2387,-2.2351,-2.1409,-1.9399,-1.9325,-1.8039,0.0,0.0,0.0,0.0,0.0,0.0,0.0,0.0,0.0,0.0,0.0,-1.5547,-1.4221,0.0,0.0,0.0,-1.708,-1.7526,-1.739,-1.8475,0.0,0.0,0.0,0.0,0.0,0.0,0.0,-2.2769,-2.3878,-2.5133,-2.6478,-2.5804,-2.5362,-2.5983,-2.6072,-2.6017,-2.5837,0.0,-2.6392,-2.5706,-2.5018,-2.431,-2.3554,-2.2455,-2.1698,-2.1595,-2.2012,-2.2363,-2.2402,-2.2812,-2.3081,-2.3101,-2.3101,-2.3101,-2.3101,-2.2877,-2.2721,-2.2721,-2.2916,-2.3091,-2.3101,-2.3101,-2.3101,-2.8235,-2.8147,-2.7178,-2.7002,-2.7344,-2.7394,-2.7682,-2.8059,-2.7607,-2.714,-2.6587,-2.6009,-2.5159,-2.4192,-2.4243,0.0,-2.5001,-2.5561,-2.6339,-2.7379,-2.7392,-2.762,-2.8097,-2.8097,-2.8109,-2.8097,-2.8109,-2.7846,-2.7404,-2.7846,-2.7582,-2.6637,-2.6101,-2.5812,-2.5799,-2.6804,-2.7369,-2.7419,-2.7871,-2.7846,-2.7281,-2.6264,-2.5271,-2.4357,-2.3663,-2.2698,-2.1396,-2.1196,-2.0588,-1.9365,-1.8533,-1.7678,-1.6721,0.0,0.0,0.0,0.0,0.0,0.0,0.0,0.0,0.0,0.0,0.0,0.0,0.0,0.0,0.0,-1.9054,0.0,-1.9321,-1.9581,0.0,0.0,0.0,-2.0227,-2.0282,-2.2525,-2.3862,-2.337,0.0,0.0,-2.5846,-2.6214,-2.7054,-2.8523,-2.8275,-2.7776,-2.7192,-2.7432,-2.7324,-2.5632,-2.4774,-2.4023,-2.3387,-2.2853,-2.2591,-2.291,-2.3101,-2.3052,-2.3042,-2.3062,-2.3091,-2.3101,-2.3101,-2.3101,-2.3101,-2.3071,-2.3101,-2.3081,-2.3091,-2.3101,-2.3101,-2.3101,-2.3101,-2.939,-2.9377,-2.9152,-2.8624,-2.7934,-2.836,-2.8373,-2.8134,-2.8411,-2.8235,-2.7682,-2.713,-2.6549,-2.5921,-2.6314,-2.6578,-2.6716,-2.7256,-2.7657,-2.7908,-2.7921,-2.7984,-2.8109,-2.8109,-2.8109,-2.8109,-2.8109,-2.8034,-2.7921,-2.8034,-2.7971,-2.7745,-2.7996,-2.7708,-2.6942,-2.757,-2.8122,-2.8499,-2.826,-2.7833,-2.7293,-2.7052,-2.6361,-2.5277,-2.4077,-2.3119,-2.2383,-2.1318,-2.0281,-1.9365,-1.9089,-1.8284,-1.6758,-1.5703,0.0,0.0,0.0,0.0,0.0,0.0,0.0,0.0,0.0,-1.624,-1.426,0.0,-1.7334,0.0,-1.9439,-2.0098,-1.9372,-1.937,0.0,0.0,-2.0133,-2.0625,-2.0933,-2.2112,-2.2998,-2.3262,-2.3748,-2.4471,-2.5526,-2.578,-2.612,-2.6933,-2.6978,-2.6514,-2.5616,-2.5853,-2.5786,-2.4723,-2.4564,-2.4305,-2.3353,-2.3073,-2.2974,-2.3081,-2.3101,-2.3101,-2.3101,-2.3101,-2.3101,-2.3101,-2.3101,-2.3101,-2.3101,-2.3101,-2.3101,-2.3101,-2.3101,-2.3101,-2.3101,-2.3101,-2.3101,-2.9779,-2.9779,-2.9779,-2.944,-2.8875,-2.9189,-2.9139,-2.8888,-2.9189,-2.9001,-2.8436,-2.7883,-2.7482,-2.7243,-2.777,-2.8009,-2.8047,-2.8599,-2.885,-2.8863,-2.8863,-2.8863,-2.885,-2.8863,-2.8863,-2.8863,-2.8863,-2.8863,-2.8863,-2.885,-2.8863,-2.8863,-2.9164,-2.9001,-2.8436,-2.8699,-2.9013,-2.9302,-2.8762,-2.8323,-2.8021,-2.7532,-2.6679,-2.5362,-2.4129,-2.2868,-2.1518,-2.0539,-1.9534,-1.851,-1.8459,-1.8016,-1.7063,-1.6182,-1.5576,0.0,0.0,0.0,0.0,0.0,0.0,0.0,0.0,0.0,0.0,0.0,-1.7959,-1.8008,-1.9394,-2.0038,-1.9346,-1.9453,-1.9639,-1.9871,-2.0329,-2.0775,-2.1182,-2.2239,-2.3144,-2.3624,-2.4303,-2.5047,-2.5891,-2.5976,-2.5902,-2.5764,-2.5758,-2.5734,-2.5625,-2.582,-2.5609,-2.4577,-2.4587,-2.4414,-2.3256,-2.3101,-2.3101,-2.3101,-2.3101,-2.3101,-2.3101,-2.3101,-2.3101,-2.3101,-2.3101,-2.3101,-2.3101,-2.3101,-2.3101,-2.3101,-2.3101,-2.3101,-2.3101,-2.3101,-2.3101,-2.9779,-2.9779,-2.9779,-2.9779,-2.9779,-2.9779,-2.9779,-2.9779,-2.9779,-2.9503,-2.8976,-2.8499,-2.8323,-2.8348,-2.8787,-2.9001,-2.9038,-2.9566,-2.9779,-2.9779,-2.9779,-2.9779,-2.9779,-2.9779,-2.9779,-2.9779,-2.9779,-2.9779,-2.9779,-2.9779,-2.9779,-2.9779,-2.9779,-2.9779,-2.9779,-2.9779,-2.9754,-2.9679,-2.9214,-2.8938,-2.8775,-2.7883,-2.6691,-2.5218,-2.4101,-2.2482,-2.031,-1.9646,-1.8832,-1.766,-1.7607,-1.765,-1.7641,-1.6819,-1.6484,0.0,-1.6034,0.0,0.0,0.0,0.0,0.0,0.0,0.0,0.0,-1.8281,-1.8633,-1.8203,-1.9277,-1.9844,-1.9482,-1.9775,-2.0176,-2.0635,-2.0742,-2.0908,-2.1357,-2.2625,-2.3596,-2.3992,-2.5214,-2.6058,-2.5953,-2.6058,-2.563,-2.4755,-2.4586,-2.4872,-2.5734,-2.5848,-2.5483,-2.4713,-2.4575,-2.4082,-2.3299,-2.3101,-2.3101,-2.3101,-2.3101,-2.3101,-2.3101,-2.3101,-2.3101,-2.3101,-2.3101,-2.3101,-2.3101,-2.3101,-2.3101,-2.3101,-2.3101,-2.3101,-2.3101,-2.3101,-2.3101,-2.9779,-2.9779,-2.9779,-2.9779,-2.9779,-2.9779,-2.9779,-2.9779,-2.9779,-2.9729,-2.9628,-2.9515,-2.9478,-2.9478,-2.9578,-2.9628,-2.9628,-2.9741,-2.9779,-2.9779,-2.9779,-2.9779,-2.9779,-2.9779,-2.9779,-2.9779,-2.9779,-2.9779,-2.9779,-2.9779,-2.9779,-2.9779,-2.9779,-2.9779,-2.9779,0.0,0.0,0.0,-2.944,-2.9189,-2.8298,-2.8059,-2.7398,-2.6223,-2.4458,0.0,-2.1787,-2.0496,-1.9357,-1.8462,-1.873,0.0,0.0,0.0,0.0,0.0,0.0,0.0,0.0,0.0,0.0,0.0,-1.8334,-1.813,-1.7949,-1.8984,-1.9502,-1.9111,-1.9893,-2.0449,-2.037,-2.0429,-2.0654,-2.1055,-2.1416,-2.1797,-2.2227,-2.2788,-2.3222,-2.3292,-2.3597,-2.3767,-2.3854,-2.3724,-2.3681,-2.3551,-2.343,-2.3517,-2.3767,-2.3897,-2.3691,-2.3474,-2.3507,-2.3387,-2.3135,-2.3101,-2.3101,-2.3101,-2.3101,-2.3101,-2.3101,-2.3101,-2.3101,-2.3101,-2.3101,-2.3101,-2.3101,-2.3101,-2.3101,-2.3101,-2.3101,-2.3101,-2.3101,-2.3101,-2.3101,-2.9779,0.0,-2.9779,-2.9779,0.0,-2.9779,-2.9779,-2.9779,-2.9779,-2.9779,-2.9779,-2.9779,-2.9779,-2.9779,-2.9779,-2.9779,-2.9779,-2.9779,-2.9779,-2.9779,-2.9779,-2.9779,-2.9779,-2.9779,-2.9779,-2.9779,-2.9779,-2.9779,-2.9779,-2.9779,-2.9779,-2.9779,-2.9779,-2.9779,-2.9779,-2.9779,-2.9654,-2.9365,-2.9641,-2.9515,-2.895,-2.8662,-2.7984,-2.6892,0.0,0.0,0.0,0.0,0.0,0.0,0.0,0.0,0.0,0.0,0.0,-1.8623,-1.8232,-1.8184,-1.8594,-1.8633,-1.8906,-1.9531,-1.96,-1.9414,-1.8984,-1.9746,-2.0156,-1.9989,-2.0361,-2.0615,-2.0615,-2.0615,-2.0742,-2.1132,-2.1395,-2.1807,-2.2402,-2.2695,-2.291,-2.3062,-2.3101,-2.3101,-2.3101,-2.3101,-2.3101,-2.3101,-2.3101,-2.3101,-2.3101,-2.3101,-2.3101,-2.3101,-2.3101,-2.3101,-2.3101,-2.3101,-2.3101,-2.3101,-2.3101,-2.3101,-2.3101,-2.3101,-2.3101,-2.3101,-2.3101,-2.3101,-2.3101,-2.3101,-2.3101,-2.3101,-2.3101,-2.3101,-2.3101,-2.3101,-2.3101,-2.9779,-2.9779,-2.9779,-2.9779,-2.9779,-2.9779,-2.9779,-2.9779,0.0,0.0,0.0,-2.9779,-2.9779,-2.9779,-2.9779,-2.9779,-2.9779,-2.9779,-2.9779,-2.9779,-2.9779,-2.9779,-2.9779,-2.9779,-2.9779,-2.9779,-2.9779,-2.9779,-2.9779,-2.9779,-2.9779,-2.9779,-2.9779,-2.9779,-2.9779,-2.9779,-2.9779,-2.9779,-2.9779,-2.9741,-2.9628,-2.9176,-2.8399,-2.7444,-2.6114,-2.4272,-2.1902,-2.0995,-1.9862,-1.8448,-1.8418,-1.8613,-1.8955,-1.8939,-1.9131,-1.9473,-1.9549,-1.9658,-2.001,-2.0029,-2.0185,-2.0586,-2.0615,-2.0458,-2.0049,-2.04,-2.0615,-2.0615,-2.0615,-2.0635,-2.0713,-2.0693,-2.0898,-2.1356,-2.1424,-2.1746,-2.2457,-2.2627,-2.275,-2.3023,-2.3101,-2.3101,-2.3101,-2.3101,-2.3101,-2.3101,-2.3101,-2.3101,-2.3101,-2.3101,-2.3101,-2.3101,-2.3101,-2.3101,-2.3101,-2.3101,-2.3101,-2.3101,-2.3101,-2.3101,-2.3101,-2.3101,-2.3101,-2.3101,-2.3101,-2.3101,-2.3101,-2.3101,-2.3101,-2.3101,-2.3101,-2.3101,-2.3101,-2.3101,-2.3101,-2.9779,-2.9779,-2.9779,-2.9779,-2.9779,-2.9779,-2.9779,-2.9779,-2.9792,-2.9792,-2.9779,-2.9779,-2.9779,-2.9779,-2.9779,-2.9779,-2.9779,-2.9779,-2.9779,0.0,-2.9779,-2.9779,-2.9779,-2.9779,-2.9779,-2.9779,-2.9779,-2.9779,-2.9779,-2.9779,-2.9779,-2.9779,-2.9779,-2.9779,-2.9779,-2.9779,-2.9779,-2.9779,-2.9779,-2.9553,-2.9026,-2.8938,-2.8637,-2.8009,-2.7349,-2.5851,-2.3474,-2.3117,-2.1938,-1.9789,-2.001,-2.0273,-2.0331,-2.0273,-2.0361,-2.0419,-2.0419,-2.0449,-2.0507,-2.0507,-2.0537,-2.0595,-2.0615,-2.0576,-2.0527,-2.0566,-2.0615,-2.0615,-2.0615,-2.0732,-2.1074,-2.1083,-2.1395,-2.2136,-2.2324,-2.2477,-2.2925,-2.2984,-2.3003,-2.3081,-2.3101,-2.3101,-2.3101,-2.3101,-2.3101,-2.3101,-2.3101,-2.3101,-2.3101,-2.3101,-2.3101,-2.3101,-2.3101,-2.3101,-2.3101,-2.3101,-2.3101,-2.3101,-2.3101,-2.3101,-2.3101,-2.3101,-2.3101,-2.3101,-2.3101,-2.3101,-2.3101,-2.3101,-2.3101,-2.3101,-2.3101,-2.3101,-2.3101,-2.3101,-2.3101,-2.9779,-2.9829,-3.0118,-3.0244,-3.0269,-3.0532,-3.0658,-3.0633,-3.0357,-3.0068,-2.9792,-2.9779,-2.9779,-2.9779,-2.9779,-2.9779,-2.9779,-2.9779,-2.9779,-2.9779,-2.9779,-2.9779,-2.9779,-2.9779,-2.9779,-2.9779,-2.9779,-2.9779,-2.9779,-2.9779,-2.9779,-2.9779,-2.9779,-2.9779,-2.9779,-2.9779,-2.9779,-2.9779,-2.9779,-2.9666,-2.9415,-2.9402,-2.9126,-2.8561,-2.8009,-2.6721,-2.4612,-2.3676,-2.2419,-2.0788,-2.0401,-2.0312,-2.0595,-2.0791,-2.0937,-2.0937,-2.1152,-2.1279,-2.1319,-2.1064,-2.082,-2.0625,-2.0615,-2.0615,-2.0615,-2.0615,-2.0615,-2.0615,-2.0615,-2.0742,-2.1142,-2.12,-2.1541,-2.2432,-2.251,-2.2685,-2.3013,-2.3101,-2.3101,-2.3101,-2.3101,-2.3101,-2.3101,-2.3101,-2.3101,-2.3101,-2.3101,-2.3101,-2.3101,-2.3101,-2.3101,-2.3101,-2.3101,-2.3101,-2.3101,-2.3101,-2.3101,-2.3101,-2.3101,-2.3101,-2.3101,-2.3101,-2.3101,-2.3101,-2.3101,-2.3101,-2.3101,-2.3101,-2.3101,-2.3101,-2.3101,-2.3101,-2.3101,-2.3101,-2.3101,-2.9779,-2.9829,-3.0382,-3.0631,-3.0821,-3.1223,-3.1386,-3.1348,-3.0959,-3.0482,-3.0005,-2.9854,-2.9854,-2.9967,-2.9854,-2.9854,-2.9942,-2.9854,-2.9917,-3.0131,-3.003,-3.0043,-3.0143,-3.0168,-3.0093,-2.9993,-2.998,-2.9917,-2.9804,-2.9779,-2.9779,-2.9779,-2.9779,-2.9779,-2.9779,-2.9779,-2.9779,-2.9779,-2.9779,-2.9779,-2.9779,-2.9779,-2.9578,-2.9139,-2.8725,-2.752,-2.5454,-2.4173,-2.2937,-2.1597,-2.0763,-2.0518,-2.0889,-2.1191,-2.1337,-2.1416,-2.1699,-2.1936,-2.1865,-2.1572,-2.123,-2.0938,-2.0811,-2.0762,-2.0752,-2.0664,-2.0615,-2.0615,-2.0713,-2.0908,-2.1328,-2.1504,-2.1785,-2.2559,-2.2613,-2.2793,-2.3033,-2.3101,-2.3101,-2.3101,-2.3101,-2.3101,-2.3101,-2.3101,-2.3101,-2.3101,-2.3101,-2.3101,-2.3101,-2.3101,-2.3101,-2.3101,-2.3101,-2.3101,-2.3101,-2.3101,-2.3101,-2.3101,-2.3101,-2.3101,-2.3101,-2.3101,-2.3101,-2.3101,-2.3101,-2.3101,-2.3101,-2.3101,-2.3101,-2.3101,-2.3101,-2.3101,-2.3101,-2.3101,-2.3101,-2.9804,-2.9867,-3.0407,-3.0896,-3.1336,-3.1399,-3.1436,-3.1424,-3.1336,-3.1022,-3.0595,-3.0018,-3.008,-3.0432,-3.0018,-3.0068,-3.0457,-3.0018,-3.0306,-3.1085,-3.0758,-3.0783,-3.1135,-3.1198,-3.0997,-3.0557,-3.0495,-3.0256,-2.9854,-2.9817,-2.9792,-2.9779,-2.9779,-2.9792,-2.9792,-2.9792,-2.9779,-2.9779,-2.9779,-2.9779,-2.9779,-2.9779,-2.9767,-2.9729,-2.9654,-2.8417,-2.5977,-2.5605,-2.4378,-2.2138,-2.1742,-2.1709,-2.1789,-2.1807,-2.1826,-2.1826,-2.1885,-2.1936,-2.1885,-2.1846,-2.1797,-2.1748,-2.1377,-2.1122,-2.1093,-2.0801,-2.0615,-2.0683,-2.0947,-2.1278,-2.1777,-2.2129,-2.25,-2.2896,-2.2994,-2.3052,-2.3081,-2.3101,-2.3101,-2.3101,-2.3101,-2.3101,-2.3101,-2.3101,-2.3101,-2.3101,-2.3101,-2.3101,-2.3101,-2.3101,-2.3101,-2.3101,-2.3101,-2.3101,-2.3101,-2.3101,-2.3101,-2.3101,-2.3101,-2.3101,-2.3101,-2.3101,-2.3101,-2.3101,-2.3101,-2.3101,-2.3101,-2.3101,-2.3101,-2.3101,-2.3101,-2.3101,-2.3101,-2.3101,-2.3101,-3.008,-2.9917,-3.1072,-3.1888,-3.2395,-3.239,-3.239,-3.2365,-3.2014,-3.1938,-3.1938,-3.1135,-3.052,-3.0143,-3.0218,-3.0419,-3.0555,-3.0382,-3.067,-3.1336,-3.1173,-3.1022,-3.0934,-3.0934,-3.0658,-3.0206,-3.0457,-3.0495,-3.0319,-3.0281,-3.0281,-3.0231,-2.9967,-2.9955,-3.0218,-2.9955,-2.9779,-2.9779,-2.9779,-2.9779,-2.9779,-2.9779,-2.9779,-2.9779,-2.9779,-2.9195,-2.7678,-2.6489,-2.515,-2.3767,-2.2594,-2.1936,-2.1936,-2.2119,-2.2256,-2.2266,-2.249,-2.2519,-2.2266,-2.2256,-2.2148,-2.1914,-2.1728,-2.1523,-2.1239,-2.1289,-2.129,-2.1035,-2.1143,-2.1375,-2.1855,-2.2266,-2.2643,-2.2994,-2.3101,-2.3101,-2.3101,-2.3101,-2.3101,-2.3101,-2.3101,-2.3101,-2.3101,-2.3101,-2.3101,-2.3101,-2.3101,-2.3101,-2.3101,-2.3101,-2.3101,-2.3101,-2.3101,-2.3101,-2.3101,-2.3101,-2.3101,-2.3101,-2.3101,-2.3101,-2.3101,-2.3101,-2.3101,-2.3101,-2.3101,-2.3101,-2.3101,-2.3101,-2.3101,-2.3101,-2.3101,-2.3101,-2.3101,-2.3101,-2.3101,-3.0294,-3.0068,-3.1386,-3.2416,-3.3111,-3.3124,-3.3124,-3.3074,-3.2629,-3.2616,-3.2754,-3.2127,-3.1248,-3.0382,-3.0658,-3.0909,-3.1022,-3.0896,-3.111,-3.1549,-3.1474,-3.1185,-3.0846,-3.0834,-3.062,-3.0331,-3.0495,-3.0505,-3.0457,-3.0733,-3.0758,-3.0595,-3.0357,-3.0357,-3.0545,-3.0193,-2.9942,-2.9792,-2.9779,-2.9779,-2.9779,-2.9779,-2.9779,-2.9779,-2.9779,-2.9463,-2.8694,-2.7211,-2.5966,-2.497,-2.3453,-2.2552,-2.2236,-2.2519,-2.2685,-2.2662,-2.2916,-2.2964,-2.2705,-2.2685,-2.2549,-2.2266,-2.2139,-2.1875,-2.1572,-2.1709,-2.167,-2.1309,-2.1395,-2.1758,-2.2021,-2.2441,-2.2769,-2.3052,-2.3101,-2.3101,-2.3101,-2.3101,-2.3101,-2.3101,-2.3101,-2.3101,-2.3101,-2.3101,-2.3101,-2.3101,-2.3101,-2.3101,-2.3101,-2.3101,-2.3101,-2.3101,-2.3101,-2.3101,-2.3101,-2.3101,-2.3101,-2.3101,-2.3101,-2.3101,-2.3101,-2.3101,-2.3101,-2.3101,-2.3101,-2.3101,-2.3101,-2.3101,-2.3101,-2.3101,-2.3101,-2.3101,-2.3101,-2.3101,-2.3101,-3.0294,-3.0005,-3.0984,-3.2102,-3.3068,-3.3124,-3.3124,-3.3068,-3.3061,-3.2754,-3.2441,-3.2729,-3.2353,-3.1311,-3.1298,-3.1637,-3.1989,-3.1574,-3.1662,-3.2102,-3.1662,-3.1399,-3.1361,-3.1361,-3.1286,-3.1009,-3.0746,-3.0394,-3.003,-3.0859,-3.1097,-3.067,-3.0959,-3.0997,-3.067,-3.052,-3.0306,-2.9842,-2.9779,-2.9779,-2.9779,-2.9779,-2.9779,-2.9779,-2.9779,-2.9302,-2.8354,-2.8048,-2.7024,-2.4914,-2.4629,-2.4118,-2.3187,-2.3033,-2.3042,-2.3052,-2.3071,-2.3091,-2.3042,-2.3033,-2.3013,-2.2955,-2.2676,-2.2295,-2.1865,-2.1934,-2.1787,-2.1259,-2.1931,-2.2432,-2.251,-2.2769,-2.3023,-2.3071,-2.3101,-2.3101,-2.3101,-2.3101,-2.3101,-2.3101,-2.3101,-2.3101,-2.3101,-2.3101,-2.3101,-2.3101,-2.3101,-2.3101,-2.3101,-2.3101,-2.3101,-2.3101,-2.3101,-2.3101,-2.3101,-2.3101,-2.3101,-2.3101,-2.3101,-2.3101,-2.3101,-2.3101,-2.3101,-2.3101,-2.3101,-2.3101,-2.3101,-2.3101,-2.3101,-2.3101,-2.3101,-2.3101,-2.3101,-2.3101,-2.3101,-3.121,-3.1373,-3.175,-3.2378,-3.3043,-3.3124,-3.3124,-3.3124,-3.3124,-3.2955,-3.2754,-3.2604,-3.229,-3.1888,-3.1549,-3.1687,-3.2152,-3.2001,-3.2215,-3.2654,-3.2177,-3.1738,-3.1373,-3.106,-3.0683,-3.0419,-3.0532,-3.0696,-3.0859,-3.1235,-3.1298,-3.1035,-3.0583,-3.0432,-3.052,-3.0256,-2.998,-2.9817,-2.9779,-2.9779,-2.9779,-2.9779,-2.9779,-2.9779,-2.9779,-2.9624,-2.9197,-2.8518,-2.74,-2.5922,-2.5199,-2.4296,-2.3266,-2.3101,-2.3101,-2.3101,-2.3101,-2.3101,-2.3101,-2.3101,-2.3101,-2.3081,-2.2964,-2.2565,-2.2148,-2.2334,-2.2402,-2.1973,-2.2412,-2.2838,-2.2886,-2.3013,-2.3101,-2.3101,-2.3101,-2.3101,-2.3101,-2.3101,-2.3101,-2.3101,-2.3101,-2.3101,-2.3101,-2.3101,-2.3101,-2.3101,-2.3101,-2.3101,-2.3101,-2.3101,-2.3101,-2.3101,-2.3101,-2.3101,-2.3101,-2.3101,-2.3101,-2.3101,-2.3101,-2.3101,-2.3101,-2.3101,-2.3101,-2.3101,-2.3101,-2.3101,-2.3101,-2.3101,-2.3101,-2.3101,-2.3101,-2.3101,-2.3101,-2.3101,-2.3101,-3.1298,-3.1901,-3.1951,-3.239,-3.3086,-3.3124,-3.3124,-3.3124,-3.3124,-3.2968,-3.2742,-3.2378,-3.2114,-3.1913,-3.1549,-3.1687,-3.2164,-3.2202,-3.2252,-3.2265,-3.2039,-3.1562,-3.0909,-3.052,-3.0357,-3.0407,-3.0871,-3.1097,-3.0922,-3.1223,-3.1298,-3.1085,-3.0532,-3.0394,-3.052,-3.0231,-3.0005,-2.9842,-2.9779,-2.9779,-2.9779,-2.9779,-2.9779,-2.9779,-2.9779,-2.9779,-2.9779,-2.9067,-2.8148,-2.7046,-2.5953,-2.467,-2.3299,-2.3101,-2.3101,-2.3101,-2.3101,-2.3101,-2.3101,-2.3101,-2.3101,-2.3101,-2.3081,-2.2779,-2.2227,-2.2691,-2.2672,-2.2432,-2.2695,-2.3101,-2.3101,-2.3091,-2.3101,-2.3101,-2.3101,-2.3101,-2.3101,-2.3101,-2.3101,-2.3101,-2.3101,-2.3101,-2.3101,-2.3101,-2.3101,-2.3101,-2.3101,-2.3101,-2.3101,-2.3101,-2.3101,-2.3101,-2.3101,-2.3101,-2.3101,-2.3101,-2.3101,-2.3101,-2.3101,-2.3101,-2.3101,-2.3101,-2.3101,-2.3101,-2.3091,-2.3091,-2.3091,-2.3091,-2.3081,-2.3071,-2.3101,-2.3101,-2.3101,-2.3101,-2.3101,-3.0457,-3.1336,-3.1386,-3.2014,-3.2898,-3.2948,-3.3048,-3.2986,-3.2998,-3.2629,-3.2227,-3.2139,-3.1788,-3.1449,-3.1248,-3.1587,-3.1901,-3.1989,-3.1725,-3.1173,-3.1336,-3.0984,-3.0181,-3.0118,-3.0457,-3.1148,-3.1838,-3.1311,-3.0118,-3.0859,-3.1097,-3.0809,-3.0984,-3.0809,-3.0583,-3.0457,-3.0269,-2.9905,-2.9779,-2.9779,-2.9779,-2.9779,-2.9779,-2.9779,-2.9779,-2.9779,-2.9779,-2.9753,-2.9106,-2.8016,-2.6953,-2.5431,-2.3474,-2.3101,-2.3101,-2.3101,-2.3101,-2.3101,-2.3101,-2.3101,-2.3101,-2.3101,-2.3101,-2.2939,-2.2555,-2.2818,-2.2896,-2.2607,-2.2799,-2.3101,-2.3101,-2.3101,-2.3101,-2.3101,-2.3101,-2.3101,-2.3101,-2.3101,-2.3101,-2.3101,-2.3101,-2.3101,-2.3101,-2.3101,-2.3101,-2.3101,-2.3101,-2.3101,-2.3101,-2.3101,-2.3101,-2.3101,-2.3101,-2.3101,-2.3101,-2.3101,-2.3101,-2.3101,-2.3101,-2.3101,-2.3101,-2.3101,-2.3101,-2.3081,-2.2925,-2.2916,-2.2857,-2.2857,-2.2867,-2.2877,-2.2964,-2.3052,-2.3101,-2.3101,-2.3101,-3.0557,-3.0896,-3.1248,-3.1574,-3.1913,-3.1926,-3.1913,-3.1913,-3.1913,-3.18,-3.1599,-3.1273,-3.0969,-3.0796,-3.0482,-3.0407,-3.057,-3.0947,-3.1512,-3.2051,-3.1675,-3.1411,-3.1348,-3.1047,-3.0871,-3.0947,-3.1386,-3.1223,-3.0557,-3.0683,-3.0746,-3.0633,-3.0394,-3.0206,-3.008,-3.0043,-2.993,-2.9817,-2.9779,-2.9779,-2.9779,-2.9779,-2.9779,-2.9779,-2.9779,-2.9779,-2.9779,-2.9779,-2.9236,-2.8176,-2.7087,-2.5473,-2.3594,-2.3101,-2.3101,-2.3101,-2.3101,-2.3101,-2.3101,-2.3101,-2.3101,-2.3101,-2.3101,-2.2896,-2.2627,-2.2857,-2.2896,-2.2584,-2.2838,-2.3101,-2.3101,-2.3101,-2.3101,-2.3101,-2.3101,-2.3101,-2.3101,-2.3101,-2.3101,-2.3101,-2.3101,-2.3101,-2.3101,-2.3101,-2.3101,-2.3101,-2.3101,-2.3101,-2.3101,-2.3101,-2.3101,-2.3101,-2.3101,-2.3101,-2.3101,-2.3101,-2.3101,-2.3101,-2.3101,-2.3101,-2.3101,-2.3101,-2.3101,-2.3042,-2.2886,-2.275,-2.2725,-2.2715,-2.2754,-2.2672,-2.2701,-2.2847,-2.3033,-2.3101,-2.3101,-3.0432,-3.0605,-3.0972,-3.1223,-3.1373,-3.1386,-3.1386,-3.1386,-3.1386,-3.1286,-3.1047,-3.0771,-3.0495,-3.0281,-2.993,-2.993,-3.0093,-3.0269,-3.1085,-3.2202,-3.1788,-3.1599,-3.1901,-3.18,-3.1298,-3.0781,-3.1148,-3.1009,-3.0331,-3.0306,-3.0306,-3.0231,-2.9955,-2.9804,-2.9779,-2.9779,-2.9779,-2.9779,-2.9779,-2.9779,-2.9779,-2.9779,-2.9779,-2.9779,-2.9779,-2.9779,-2.9779,-2.9779,-2.9495,-2.8609,-2.7342,-2.5431,-2.3387,-2.3101,-2.3101,-2.3101,-2.3101,-2.3101,-2.3101,-2.3101,-2.3101,-2.3101,-2.3101,-2.2994,-2.2799,-2.2984,-2.2935,-2.2808,-2.2945,-2.3101,-2.3101,-2.3101,-2.3101,-2.3101,-2.3101,-2.3101,-2.3101,-2.3101,-2.3101,-2.3101,-2.3101,-2.3101,-2.3101,-2.3101,-2.3101,-2.3101,-2.3101,-2.3101,-2.3101,-2.3101,-2.3101,-2.3101,-2.3101,-2.3101,-2.3101,-2.3101,-2.3101,-2.3101,-2.3101,-2.3101,-2.3101,-2.3101,-2.3101,-2.3081,-2.2964,-2.276,-2.2672,-2.2715,-2.2734,-2.2637,-2.2559,-2.2847,-2.3101,-2.3101,-2.3101,-3.0093,-3.0545,-3.057,-3.0821,-3.1185,-3.1198,-3.1173,-3.1235,-3.1223,-3.0959,-3.0608,-3.052,-3.0269,-2.9892,-2.9804,-3.0018,-3.0394,-3.0055,-3.0419,-3.1198,-3.1311,-3.1386,-3.1625,-3.1964,-3.1562,-3.0809,-3.1085,-3.0758,-2.9917,-2.988,-2.9792,-2.9842,-2.9829,-2.9779,-2.9779,-2.9779,-2.9779,-2.9779,-2.9779,-2.9779,-2.9779,-2.9779,-2.9779,-2.9779,-2.9779,-2.9779,-2.9779,-2.9779,-2.9702,-2.9339,-2.7424,-2.5473,-2.3594,-2.3101,-2.3101,-2.3101,-2.3101,-2.3101,-2.3101,-2.3101,-2.3101,-2.3101,-2.3101,-2.3091,-2.3052,-2.3052,-2.3071,-2.3033,-2.3071,-2.3101,-2.3101,-2.3101,-2.3101,-2.3101,-2.3101,-2.3101,-2.3101,-2.3101,-2.3101,-2.3101,-2.3101,-2.3101,-2.3101,-2.3101,-2.3101,-2.3101,-2.3101,-2.3101,-2.3101,-2.3101,-2.3101,-2.3101,-2.3101,-2.3101,-2.3101,-2.3101,-2.3071,-2.2906,-2.2974,-2.3101,-2.3101,-2.3101,-2.3101,-2.3081,-2.2984,-2.2799,-2.2584,-2.2539,-2.249,-2.2393,-2.2559,-2.2925,-2.3091,-2.3091,-2.3101,-2.988,-3.0005,-3.0018,-3.0093,-3.0206,-3.0218,-3.0218,-3.0206,-3.0244,-3.0206,-3.003,-3.0005,-2.9955,-2.9804,-2.9779,-2.988,-2.9967,-2.9867,-3.0118,-3.0721,-3.0821,-3.1323,-3.1863,-3.2102,-3.165,-3.0771,-3.0758,-3.047,-2.9829,-2.9779,-2.9779,-2.9779,-2.9779,-2.9779,-2.9779,-2.9779,-2.9779,-2.9779,-2.9779,-2.9779,-2.9779,-2.9779,-2.9779,-2.9779,-2.9779,-2.9779,-2.9779,-2.9779,-2.8922,-2.7476,-2.6894,-2.5484,-2.3474,-2.3135,-2.3101,-2.3101,-2.3101,-2.3101,-2.3101,-2.3101,-2.3101,-2.3101,-2.3101,-2.3101,-2.3101,-2.3101,-2.3101,-2.3101,-2.3101,-2.3101,-2.3101,-2.3101,-2.3101,-2.3101,-2.3101,-2.3101,-2.3101,-2.3101,-2.3101,-2.3101,-2.3101,-2.3101,-2.3101,-2.3101,-2.3101,-2.3101,-2.3101,-2.3101,-2.3101,-2.3101,-2.3101,-2.3101,-2.3101,-2.3101,-2.3101,-2.3101,-2.2994,-2.2783,-2.2828,-2.3101,-2.3101,-2.3101,-2.3101,-2.3091,-2.2906,-2.2721,-2.2363,-2.209,-2.207,-2.2246,-2.25,-2.2818,-2.3013,-2.3081,-2.3091,-2.9779,-2.9779,-2.9779,-2.9779,-2.9779,-2.9779,-2.9779,-2.9779,-2.9779,-2.9779,-2.9779,-2.9779,-2.9779,-2.9779,-2.9779,-2.9779,-2.9779,-2.9779,-2.998,-3.0244,-3.052,-3.1085,-3.1687,-3.1851,-3.1411,-3.0708,-3.062,-3.0306,-2.9867,-2.9779,-2.9779,-2.9779,-2.9779,-2.9779,-2.9779,-2.9779,-2.9779,-2.9779,-2.9779,-2.9779,-2.9779,-2.9779,-2.9779,-2.9779,-2.9779,-2.9779,-2.9779,-2.9779,-2.8949,-2.7504,-2.6719,-2.5683,-2.4006,-2.3343,-2.3135,-2.3101,-2.3101,-2.3101,-2.3101,-2.3101,-2.3101,-2.3101,-2.3101,-2.3101,-2.3101,-2.3101,-2.3101,-2.3101,-2.3101,-2.3101,-2.3101,-2.3101,-2.3101,-2.3101,-2.3101,-2.3101,-2.3101,-2.3101,-2.3101,-2.3101,-2.3101,-2.3101,-2.3101,-2.3101,-2.3101,-2.3101,-2.3101,-2.3101,-2.3101,-2.3101,-2.3101,-2.3101,-2.3101,-2.3101,-2.3101,-2.3101,-2.3101,-2.2838,-2.2685,-2.2935,-2.3042,-2.3052,-2.3071,-2.3023,-2.2838,-2.2637,-2.2266,-2.206,-2.2246,-2.2432,-2.2578,-2.2695,-2.2847,-2.2994,-2.3013,-2.9779,-2.9779,-2.9779,-2.9779,-2.9779,-2.9779,-2.9779,-2.9779,-2.9779,-2.9779,-2.9779,-2.9779,-2.9779,-2.9779,-2.9779,-2.9779,-2.9779,-2.9779,-2.9792,-2.998,-3.0269,-3.0746,-3.1072,-3.126,-3.0972,-3.052,-3.052,-3.0244,-2.988,-2.9779,-2.9779,-2.9779,-2.9779,-2.9779,-2.9779,-2.9779,-2.9779,-2.9779,-2.9779,-2.9779,-2.9779,-2.9779,-2.9779,-2.9779,-2.9779,-2.9779,-2.9779,-2.974,-2.9275,-2.8347,-2.7168,-2.5933,-2.4798,-2.3714,-2.3178,-2.3101,-2.3101,-2.3101,-2.3101,-2.3101,-2.3101,-2.3101,-2.3101,-2.3101,-2.3101,-2.3101,-2.3101,-2.3101,-2.3101,-2.3101,-2.3101,-2.3101,-2.3101,-2.3101,-2.3101,-2.3101,-2.3101,-2.3101,-2.3101,-2.3101,-2.3101,-2.3101,-2.3101,-2.3101,-2.3101,-2.3101,-2.3101,-2.3101,-2.3101,-2.3101,-2.3101,-2.3101,-2.3101,-2.3101,-2.3101,-2.3101,-2.3101,-2.2994,-2.2705,-2.2754,-2.2896,-2.2955,-2.3013,-2.2974,-2.2847,-2.2656,-2.2324,-2.2305,-2.2471,-2.248,-2.2539,-2.2637,-2.2754,-2.2799,-2.2847,-2.9779,-2.9779,-2.9779,-2.9779,-2.9779,-2.9779,-2.9779,-2.9779,-2.9779,-2.9779,-2.9779,-2.9779,-2.9779,-2.9779,-2.9779,-2.9779,-2.9779,-2.9779,-2.9779,-2.9817,-2.988,-3.0005,-3.0256,-3.0557,-3.0482,-3.0118,-2.998,-2.9905,-2.9792,-2.9779,-2.9779,-2.9779,-2.9779,-2.9779,-2.9779,-2.9779,-2.9779,-2.9779,-2.9779,-2.9779,-2.9779,-2.9779,-2.9779,-2.9779,-2.9779,-2.9779,-2.9779,-2.9779,-2.9663,-2.904,-2.7585,-2.6016,-2.4957,-2.3757,-2.3135,-2.3101,-2.3101,-2.3101,-2.3101,-2.3101,-2.3101,-2.3101,-2.3101,-2.3101,-2.3101,-2.3101,-2.3101,-2.3101,-2.3101,-2.3101,-2.3101,-2.3101,-2.3101,-2.3101,-2.3101,-2.3101,-2.3101,-2.3101,-2.3101,-2.3101,-2.3101,-2.3101,-2.3101,-2.3101,-2.3101,-2.3101,-2.3101,-2.3101,-2.3101,-2.3101,-2.3101,-2.3101,-2.3101,-2.3101,-2.3101,-2.3071,-2.3023,-2.2955,-2.2705,-2.2451,-2.2646,-2.2764,-2.2773,-2.2861,-2.2939,-2.2646,-2.2227,-2.251,-2.2623,-2.2588,-2.2441,-2.25,-2.2496,-2.2594,-2.2711,-2.9779,-2.9779,-2.9779,-2.9779,-2.9779,-2.9779,-2.9779,-2.9779,-2.9779,-2.9779,-2.9779,-2.9779,-2.9779,-2.9779,-2.9779,-2.9779,-2.9779,-2.9779,-2.9779,-2.9792,-2.9804,-2.9792,-2.9817,-3.0043,-3.0055,-2.9792,-2.9792,-2.9779,-2.9779,-2.9779,-2.9779,-2.9779,-2.9779,-2.9779,-2.9779,-2.9779,-2.9779,-2.9779,-2.9779,-2.9779,-2.9779,-2.9779,-2.9779,-2.9779,-2.9779,-2.9779,-2.9779,-2.9779,-2.9495,-2.8779,-2.7424,-2.6265,-2.542,-2.4049,-2.3178,-2.3101,-2.3101,-2.3101,-2.3101,-2.3101,-2.3101,-2.3101,-2.3101,-2.3101,-2.3101,-2.3101,-2.3101,-2.3101,-2.3101,-2.3101,-2.3101,-2.3101,-2.3101,-2.3101,-2.3101,-2.3101,-2.3101,-2.3101,-2.3101,-2.3101,-2.3101,-2.3101,-2.3101,-2.3101,-2.3101,-2.3101,-2.3101,-2.3101,-2.3101,-2.3101,-2.3101,-2.3101,-2.3101,-2.3101,-2.3101,-2.3042,-2.2945,-2.2799,-2.2598,-2.2334,-2.2256,-2.2353,-2.2422,-2.2471,-2.248,-2.2363,-2.21,-2.2461,-2.2457,-2.208,-2.1924,-2.2139,-2.2236,-2.2158,-2.2321,-2.9779,-2.9779,-2.9779,-2.9779,-2.9779,-2.9779,-2.9779,-2.9779,-2.9779,-2.9779,-2.9779,-2.9779,-2.9779,-2.9779,-2.9779,-2.9779,-2.9779,-2.9779,-2.9779,-2.9779,-2.9779,-2.9779,-2.9804,-2.9829,-2.9854,-2.9792,-2.9779,-2.9779,-2.9779,-2.9779,-2.9779,-2.9779,-2.9779,-2.9779,-2.9779,-2.9779,-2.9779,-2.9779,-2.9779,-2.9779,-2.9779,-2.9779,-2.9779,-2.9779,-2.9779,-2.9779,-2.9779,-2.974,-2.9404,-2.8386,-2.7168,-2.6719,-2.6141,-2.452,-2.3101,-2.3101,-2.3101,-2.3101,-2.3101,-2.3101,-2.3101,-2.3101,-2.3101,-2.3101,-2.3101,-2.3101,-2.3101,-2.3101,-2.3101,-2.3101,-2.3101,-2.3101,-2.3101,-2.3101,-2.3101,-2.3101,-2.3101,-2.3101,-2.3101,-2.3101,-2.3101,-2.3101,-2.3101,-2.3101,-2.3101,-2.3101,-2.3101,-2.3101,-2.3101,-2.3101,-2.3101,-2.3101,-2.3101,-2.3101,-2.3101,-2.3042,-2.2945,-2.2646,-2.2432,-2.2109,-2.1846,-2.167,-2.1699,-2.1865,-2.1865,-2.1826,-2.1865,-2.2031,-2.1894,-2.1445,-2.1465,-2.1768,-2.1768,-2.165,-2.1943,-2.9779,-2.9779,-2.9779,-2.9779,-2.9779,-2.9779,-2.9779,-2.9779,-2.9779,-2.9779,-2.9779,-2.9779,-2.9779,-2.9779,-2.9779,-2.9779,-2.9779,-2.9779,-2.9779,-2.9779,-2.9779,-2.9779,-2.9779,-2.9779,-2.9779,-2.9779,-2.9779,-2.9779,-2.9779,-2.9779,-2.9779,-2.9779,-2.9779,-2.9779,-2.9779,-2.9779,-2.9779,-2.9779,-2.9779,-2.9779,-2.9779,-2.9779,-2.9779,-2.9779,-2.9779,-2.9779,-2.9779,-2.9779,-2.9702,-2.9326,-2.7557,-2.7209,-2.6871,-2.4798,-2.3517,-2.3266,-2.3256,-2.3299,-2.3144,-2.3101,-2.3101,-2.3101,-2.3101,-2.3101,-2.3101,-2.3101,-2.3101,-2.3101,-2.3101,-2.3101,-2.3101,-2.3101,-2.3101,-2.3101,-2.3101,-2.3101,-2.3101,-2.3101,-2.3101,-2.3101,-2.3101,-2.3101,-2.3101,-2.3101,-2.3101,-2.3101,-2.3101,-2.3101,-2.3101,-2.3101,-2.3101,-2.3101,-2.3101,-2.3101,-2.3101,-2.3033,-2.2906,-2.249,-2.2158,-2.1728,-2.1406,-2.1016,-2.0928,-2.124,-2.1475,-2.1562,-2.1611,-2.1672,-2.1582,-2.1357,-2.1387,-2.1426,-2.1387,-2.1357,-2.1514,-3.0945,-3.0558,-3.0533,-3.0254,-2.9869,-2.9779,-2.9779,-2.9779,-2.9779,-2.9779,-2.9779,-2.9779,-2.9779,-2.9779,-2.9779,-2.9779,-2.9779,-2.9779,-2.9779,-2.9779,-2.9779,-2.9779,-2.9779,-2.9779,-2.9779,-2.9779,-2.9779,-2.9779,-2.9779,-2.9779,-2.9779,-2.9779,-2.9779,-2.9779,-2.9779,-2.9779,-2.9779,-2.9779,-2.9779,-2.9779,-2.9779,-2.9779,-2.9779,-2.9779,-2.9779,-2.9779,-2.9779,-2.9779,-2.9443,-2.8819,-2.7907,-2.7452,-2.683,-2.6005,-2.4553,-2.4125,-2.392,-2.3627,-2.3222,-2.3101,-2.3101,-2.3101,-2.3101,-2.3101,-2.3101,-2.3101,-2.3101,-2.3101,-2.3101,-2.3101,-2.3101,-2.3101,-2.3101,-2.3101,-2.3101,-2.3101,-2.3101,-2.3101,-2.3101,-2.3101,-2.3101,-2.3101,-2.3101,-2.3101,-2.3101,-2.3101,-2.3101,-2.3101,-2.3101,-2.3101,-2.3101,-2.3101,-2.3101,-2.3101,-2.3071,-2.2974,-2.276,-2.2344,-2.1963,-2.1533,-2.1113,-2.0791,-2.0713,-2.0869,-2.1035,-2.123,-2.1103,-2.1075,-2.1182,-2.128,-2.1094,-2.1006,-2.1085,-2.1153,-2.124,-3.2177,-3.1499,-3.1499,-3.0945,-3.0177,-3.0062,-2.996,-2.9818,-2.9779,-2.9779,-2.9779,-2.9779,-2.9779,-2.9779,-2.9779,-2.9779,-2.9779,-2.9779,-2.9779,-2.9779,-2.9779,-2.9779,-2.9779,-2.9779,-2.9779,-2.9779,-2.9779,-2.9779,-2.9779,-2.9779,-2.9779,-2.9779,-2.9779,-2.9779,-2.9779,-2.9779,-2.9779,-2.9779,-2.9779,-2.9779,-2.9779,-2.9779,-2.9779,-2.9779,-2.9779,-2.9779,-2.9779,-2.9779,-2.9417,-2.8819,-2.8215,-2.7804,-2.725,-2.6964,-2.6295,-2.5336,-2.4957,-2.4286,-2.3757,-2.3135,-2.3101,-2.3101,-2.3101,-2.3101,-2.3101,-2.3101,-2.3101,-2.3101,-2.3101,-2.3101,-2.3101,-2.3101,-2.3101,-2.3101,-2.3101,-2.3101,-2.3101,-2.3101,-2.3101,-2.3101,-2.3101,-2.3101,-2.3101,-2.3101,-2.3101,-2.3101,-2.3101,-2.3101,-2.3101,-2.3101,-2.3101,-2.3101,-2.3101,-2.3101,-2.3042,-2.2949,-2.2617,-2.2119,-2.1816,-2.1475,-2.1035,-2.0644,-2.0674,-2.0742,-2.0703,-2.085,-2.0654,-2.0615,-2.0811,-2.0869,-2.0693,-2.0674,-2.082,-2.086,-2.0918,-3.2522,-3.2464,-3.2415,-3.1888,-3.1106,-3.1044,-3.0558,-2.9934,-2.9895,-2.9779,-2.9895,-2.9779,-2.9779,-2.9779,-2.9779,-2.9779,-2.9779,-2.9779,-2.9779,-2.9779,-2.9779,-2.9779,-2.9779,-2.9779,-2.9779,-2.9779,-2.9779,-2.9779,-2.9779,-2.9779,-2.9779,-2.9779,-2.9779,-2.9779,-2.9779,-2.9779,-2.9779,-2.9779,-2.9779,-2.9779,-2.9779,-2.9779,-2.9779,-2.9779,-2.9779,-2.9779,-2.9779,-2.9779,-2.9611,-2.9495,-2.8597,-2.8609,-2.904,-2.8398,-2.7452,-2.6378,-2.5462,-2.4755,-2.4296,-2.3594,-2.3101,-2.3101,-2.3101,-2.3101,-2.3101,-2.3101,-2.3101,-2.3101,-2.3101,-2.3101,-2.3101,-2.3101,-2.3101,-2.3101,-2.3101,-2.3101,-2.3101,-2.3101,-2.3101,-2.3101,-2.3101,-2.3101,-2.3101,-2.3101,-2.3101,-2.3101,-2.3101,-2.3101,-2.3101,-2.3101,-2.3101,-2.3101,-2.3101,-2.3101,-2.3003,-2.292,-2.2598,-2.2041,-2.1758,-2.1514,-2.1221,-2.0948,-2.0723,-2.0752,-2.0693,-2.0644,-2.0615,-2.0615,-2.0615,-2.0615,-2.0615,-2.0615,-2.0625,-2.0635,-2.0654,-3.3891,-3.3394,-3.338,-3.2855,-3.2033,-3.1983,-3.1756,-3.1341,-3.0809,-3.0595,-3.0457,-2.996,-2.9779,-2.9792,-2.9779,-2.9779,-2.9779,-2.9779,-2.9779,-2.9779,-2.9779,-2.9779,-2.9779,-2.9779,-2.9779,-2.9779,-2.9779,-2.9779,-2.9779,-2.9779,-2.9779,-2.9779,-2.9779,-2.9779,-2.9779,-2.9779,-2.9779,-2.9779,-2.9779,-2.9779,-2.9779,-2.9779,-2.9779,-2.9779,-2.9779,-2.9779,-2.9779,-2.9779,-2.9779,-2.9702,-2.9197,-2.9275,-2.9585,-2.9236,-2.8569,-2.7481,-2.6378,-2.5221,-2.3963,-2.3387,-2.3178,-2.3101,-2.3101,-2.3101,-2.3101,-2.3101,-2.3101,-2.3101,-2.3101,-2.3101,-2.3101,-2.3101,-2.3101,-2.3101,-2.3101,-2.3101,-2.3101,-2.3101,-2.3101,-2.3101,-2.3101,-2.3101,-2.3101,-2.3101,-2.3101,-2.3101,-2.3101,-2.3101,-2.3101,-2.3101,-2.3101,-2.3101,-2.3101,-2.3101,-2.2964,-2.2881,-2.2695,-2.2256,-2.1963,-2.1748,-2.1633,-2.1378,-2.1143,-2.0977,-2.0996,-2.0879,-2.0703,-2.0615,-2.0615,-2.0615,-2.0615,-2.0615,-2.0615,-2.0615,-2.0635,-3.5052,-3.4394,-3.4394,-3.3822,-3.2947,-3.2947,-3.2784,-3.2486,-3.1852,-3.1559,-3.1291,-3.0633,-3.0075,-2.983,-2.9779,-2.9779,-2.9779,-2.9779,-2.9779,-2.9779,-2.9779,-2.9779,-2.9779,-2.9779,-2.9779,-2.9779,-2.9779,-2.9779,-2.9779,-2.9779,-2.9779,-2.9779,-2.9779,-2.9779,-2.9779,-2.9779,-2.9779,-2.9779,-2.9779,-2.9779,-2.9779,-2.9779,-2.9779,-2.9779,-2.9779,-2.9779,-2.9779,-2.9779,-2.9779,-2.9779,-2.9753,-2.9702,-2.974,-2.9663,-2.8831,-2.7706,-2.6637,-2.5358,-2.3973,-2.3135,-2.3101,-2.3101,-2.3101,-2.3101,-2.3101,-2.3101,-2.3101,-2.3101,-2.3101,-2.3101,-2.3101,-2.3101,-2.3101,-2.3101,-2.3101,-2.3101,-2.3101,-2.3101,-2.3101,-2.3101,-2.3101,-2.3101,-2.3101,-2.3101,-2.3101,-2.3101,-2.3101,-2.3101,-2.3101,-2.3101,-2.3101,-2.3101,-2.3101,-2.3101,-2.3023,-2.2847,-2.2685,-2.248,-2.2197,-2.1953,-2.1797,-2.168,-2.1514,-2.1426,-2.1229,-2.0986,-2.0703,-2.0654,-2.0615,-2.0615,-2.0615,-2.0615,-2.0615,-2.0615,-2.0674,-3.5457,-3.5407,-3.5359,-3.4806,-3.391,-3.391,-3.3429,-3.2855,-3.2593,-3.2429,-3.2105,-3.1476,-3.052,-2.996,-2.9779,-2.9779,-2.9779,-2.9779,-2.9779,-2.9779,-2.9779,-2.9779,-2.9779,-2.9779,-2.9779,-2.9779,-2.9779,-2.9779,-2.9779,-2.9779,-2.9779,-2.9779,-2.9779,-2.9779,-2.9779,-2.9779,-2.9779,-2.9779,-2.9779,-2.9779,-2.9779,-2.9779,-2.9779,-2.9779,-2.9779,-2.9779,-2.9779,-2.9779,-2.9779,-2.9779,-2.9779,-2.9779,-2.9779,-2.9779,-2.891,-2.7545,-2.7005,-2.5641,-2.4049,-2.3222,-2.3101,-2.3101,-2.3101,-2.3101,-2.3101,-2.3101,-2.3101,-2.3101,-2.3101,-2.3101,-2.3101,-2.3101,-2.3101,-2.3101,-2.3101,-2.3101,-2.3101,-2.3101,-2.3101,-2.3101,-2.3101,-2.3101,-2.3101,-2.3101,-2.3101,-2.3101,-2.3101,-2.3101,-2.3101,-2.3101,-2.3101,-2.3101,-2.3101,-2.3101,-2.3101,-2.2964,-2.2838,-2.2652,-2.2451,-2.2197,-2.1982,-2.1885,-2.1738,-2.1455,-2.1171,-2.0937,-2.0752,-2.0664,-2.0615,-2.0615,-2.0615,-2.0615,-2.0615,-2.0615,-2.0801,-3.5489,-3.5489,-3.5489,-3.5279,-3.4905,-3.492,-3.4739,-3.4293,-3.3719,-3.2735,-3.1792,-3.1328,-3.0658,-2.9998,-2.9779,-2.9779,-2.9779,-2.9779,-2.9779,-2.9779,-2.9779,-2.9779,-2.9779,-2.9779,-2.9779,-2.9779,-2.9779,-2.9779,-2.9779,-2.9779,-2.9779,-2.9779,-2.9779,-2.9779,-2.9779,-2.9779,-2.9779,-2.9779,-2.9779,-2.9779,-2.9779,-2.9779,-2.9779,-2.9779,-2.9779,-2.9779,-2.9779,-2.9779,-2.9779,-2.9779,-2.9779,-2.9779,-2.9779,-2.9779,-2.8949,-2.7614,-2.736,-2.616,-2.4372,-2.3507,-2.3091,-2.3101,-2.3101,-2.3101,-2.3101,-2.3101,-2.3101,-2.3101,-2.3101,-2.3101,-2.3101,-2.3101,-2.3101,-2.3101,-2.3101,-2.3101,-2.3101,-2.3101,-2.3101,-2.3101,-2.3101,-2.3101,-2.3101,-2.3101,-2.3101,-2.3101,-2.3101,-2.3101,-2.3101,-2.3101,-2.3101,-2.3101,-2.3101,-2.3101,-2.3101,-2.3062,-2.3033,-2.2838,-2.2633,-2.2379,-2.2168,-2.1943,-2.1768,-2.1465,-2.1151,-2.0967,-2.0771,-2.0674,-2.0615,-2.0615,-2.0615,-2.0615,-2.0615,-2.0625,-2.0908,-3.5489,-3.5489,-3.5489,-3.5489,-3.5489,-3.5489,-3.5489,-3.5392,-3.4758,-3.3581,-3.2033,-3.1756,-3.1082,-3.0394,-2.9869,-2.9779,-2.9779,-2.9779,-2.9779,-2.9779,-2.9779,-2.9779,-2.9779,-2.9779,-2.9779,-2.9779,-2.9779,-2.9779,-2.9779,-2.9779,-2.9779,-2.9779,-2.9779,-2.9779,-2.9779,-2.9779,-2.9779,-2.9779,-2.9779,-2.9779,-2.9779,-2.9779,-2.9779,-2.9779,-2.9779,-2.9779,-2.9779,-2.9779,-2.9779,-2.9779,-2.9779,-2.9779,-2.9779,-2.965,-2.9145,-2.8426,-2.7631,-2.6737,-2.5115,-2.3833,-2.3135,-2.3101,-2.3101,-2.3101,-2.3101,-2.3101,-2.3101,-2.3101,-2.3101,-2.3101,-2.3101,-2.3101,-2.3101,-2.3101,-2.3101,-2.3101,-2.3101,-2.3101,-2.3101,-2.3101,-2.3101,-2.3101,-2.3101,-2.3101,-2.3101,-2.3101,-2.3101,-2.3101,-2.3101,-2.3101,-2.3101,-2.3101,-2.3101,-2.3101,-2.3091,-2.3071,-2.3052,-2.2955,-2.274,-2.2535,-2.2344,-2.207,-2.1738,-2.1396,-2.1112,-2.0986,-2.081,-2.0654,-2.0615,-2.0615,-2.0615,-2.0615,-2.0703,-2.0762,-2.1074,-3.5489,-3.5489,-3.5489,-3.5489,-3.5489,-3.5489,-3.5489,-3.5504,-3.5392,-3.4691,-3.3587,-3.2841,-3.1924,-3.1007,-3.0177,-2.9818,-2.9779,-2.9779,-2.9779,-2.9779,-2.9779,-2.9779,-2.9779,-2.9779,-2.9779,-2.9779,-2.9779,-2.9779,-2.9779,-2.9779,-2.9779,-2.9779,-2.9779,-2.9779,-2.9779,-2.9779,-2.9779,-2.9779,-2.9779,-2.9779,-2.9779,-2.9779,-2.9779,-2.9779,-2.9779,-2.9779,-2.9779,-2.9779,-2.9779,-2.9779,-2.9779,-2.9779,-2.9779,-2.9779,-2.9275,-2.8426,-2.7331,-2.6171,-2.4872,-2.3757,-2.3222,-2.3101,-2.3101,-2.3101,-2.3101,-2.3101,-2.3101,-2.3101,-2.3101,-2.3101,-2.3101,-2.3101,-2.3101,-2.3101,-2.3101,-2.3101,-2.3101,-2.3101,-2.3101,-2.3101,-2.3101,-2.3101,-2.3101,-2.3101,-2.3101,-2.3101,-2.3101,-2.3101,-2.3101,-2.3101,-2.3101,-2.3101,-2.3101,-2.3101,-2.3101,-2.3101,-2.3062,-2.2984,-2.2799,-2.2578,-2.2285,-2.1953,-2.1621,-2.1309,-2.1064,-2.0859,-2.0723,-2.0615,-2.0674,-2.0732,-2.0635,-2.0635,-2.0732,-2.0889,-2.1221,-3.5489,-3.5489,-3.5489,-3.5489,-3.5489,-3.5489,-3.5489,-3.5489,-3.5424,-3.4938,-3.3945,-3.3031,-3.2055,-3.1143,-3.0381,-2.9895,-2.9818,-2.9779,-2.9779,-2.9779,-2.9779,-2.9779,-2.9779,-2.9779,-2.9779,-2.9779,-2.9779,-2.9779,-2.9779,-2.9779,-2.9779,-2.9779,-2.9779,-2.9779,-2.9779,-2.9779,-2.9779,-2.9779,-2.9779,-2.9779,-2.9779,-2.9779,-2.9779,-2.9779,-2.9779,-2.9779,-2.9779,-2.9779,-2.9779,-2.9779,-2.9779,-2.9779,-2.9779,-2.9779,-2.9611,-2.8976,-2.8119,-2.6655,-2.5115,-2.38,-2.3135,-2.3101,-2.3101,-2.3101,-2.3101,-2.3101,-2.3101,-2.3101,-2.3101,-2.3101,-2.3101,-2.3101,-2.3101,-2.3101,-2.3101,-2.3101,-2.3101,-2.3101,-2.3101,-2.3101,-2.3101,-2.3101,-2.3101,-2.3178,-2.3178,-2.3222,-2.3266,-2.3135,-2.3101,-2.3101,-2.3101,-2.3101,-2.3101,-2.3101,-2.3101,-2.3101,-2.3101,-2.3042,-2.275,-2.2422,-2.2119,-2.1885,-2.1586,-2.1322,-2.1036,-2.0772,-2.1083,-2.1277,-2.0958,-2.083,-2.1014,-2.0928,-2.0947,-2.1113,-2.1328,-3.5489,-3.5489,-3.5489,-3.5489,-3.5489,-3.5489,-3.5489,-3.5489,-3.5489,-3.51,-3.4442,-3.3547,-3.282,-3.2069,-3.1267,-3.0457,-3.0343,-3.0279,-2.9895,-2.9856,-2.9779,-2.9779,-2.9779,-2.9779,-2.9779,-2.9779,-2.9779,-2.9779,-2.9779,-2.9779,-2.9779,-2.9779,-2.9779,-2.9779,-2.9779,-2.9779,-2.9779,-2.9779,-2.9779,-2.9779,-2.9779,-2.9779,-2.9779,-2.9779,-2.9779,-2.9779,-2.9779,-2.9779,-2.9779,-2.9779,-2.9779,-2.9779,-2.9779,-2.9779,-2.9779,-2.9482,-2.8239,-2.6491,-2.45,-2.3637,-2.3091,-2.3101,-2.3101,-2.3101,-2.3101,-2.3101,-2.3101,-2.3101,-2.3101,-2.3101,-2.3101,-2.3101,-2.3101,-2.3101,-2.3101,-2.3101,-2.3178,-2.3178,-2.3178,-2.3178,-2.3222,-2.3178,-2.3266,-2.3222,-2.3256,-2.3343,-2.3387,-2.3343,-2.3266,-2.3266,-2.3299,-2.3299,-2.3266,-2.3299,-2.3222,-2.3101,-2.3101,-2.3101,-2.2942,-2.277,-2.2207,-2.2002,-2.1667,-2.159,-2.1878,-2.2094,-2.209,-2.2076,-2.2074,-2.1943,-2.1821,-2.1669,-2.1322,-2.1339,-2.1488,-3.5489,-3.5489,-3.5489,-3.5489,-3.5489,-3.5489,-3.5489,-3.5489,-3.5489,-3.5457,-3.5344,-3.4327,-3.3739,-3.3671,-3.289,-3.201,-3.1254,-3.1143,-3.062,-3.0075,-2.9895,-2.9856,-2.9779,-2.9779,-2.9779,-2.9779,-2.9779,-2.9779,-2.9779,-2.9779,-2.9779,-2.9779,-2.9779,-2.9779,-2.9779,-2.9779,-2.9779,-2.9779,-2.9779,-2.9779,-2.9779,-2.9779,-2.9779,-2.9779,-2.9779,-2.9779,-2.9779,-2.9779,-2.9779,-2.9779,-2.9779,-2.9779,-2.9779,-2.9779,-2.9779,-2.9079,-2.7476,-2.5473,-2.3767,-2.3178,-2.3135,-2.3101,-2.3101,-2.3101,-2.3101,-2.3101,-2.3101,-2.3101,-2.3101,-2.3101,-2.3101,-2.3101,-2.3101,-2.3101,-2.3101,-2.3178,-2.3299,-2.3299,-2.3266,-2.3309,-2.3387,-2.3517,-2.3897,-2.3897,-2.4178,-2.4435,-2.452,-2.4264,-2.4145,-2.3627,-2.3671,-2.3637,-2.3637,-2.3551,-2.3551,-2.3887,-2.4059,-2.4392,-2.3878,-2.3584,-2.29,-2.269,-2.2929,-2.3181,-2.3377,-2.348,-2.3462,-2.3471,-2.3542,-2.3324,-2.3112,-2.2059,-2.163,-2.16,-2.167,-3.5489,-3.5489,-3.5489,-3.5489,-3.5489,-3.5489,-3.5489,-3.5489,-3.5489,-3.5489,-3.5439,-3.4428,-3.4129,-3.391,-3.3017,-3.2536,-3.2069,-3.1559,-3.1143,-3.062,-3.0075,-2.9856,-2.9779,-2.9779,-2.9779,-2.9779,-2.9779,-2.9779,-2.9779,-2.9779,-2.9779,-2.9779,-2.9779,-2.9779,-2.9779,-2.9779,-2.9779,-2.9779,-2.9779,-2.9779,-2.9779,-2.9779,-2.9779,-2.9779,-2.9779,-2.9779,-2.9779,-2.9779,-2.9779,-2.9779,-2.9779,-2.9779,-2.9779,-2.9702,-2.9456,-2.7464,-2.6005,-2.4628,-2.343,-2.3101,-2.3101,-2.3101,-2.3101,-2.3101,-2.3101,-2.3101,-2.3101,-2.3101,-2.3101,-2.3101,-2.3101,-2.3101,-2.3101,-2.3101,-2.3266,-2.3594,-2.3757,-2.3887,-2.3887,-2.4221,-2.4307,-2.451,-2.4851,-2.5147,-2.5431,-2.5724,-2.5724,-2.5431,-2.5094,-2.467,-2.4382,-2.4382,-2.4595,-2.4723,-2.5189,-2.5568,-2.5599,-2.5566,-2.5049,-2.4712,-2.4612,-2.4551,-2.4647,-2.4849,-2.5109,-2.5021,-2.4781,-2.4889,-2.5139,-2.4785,-2.4404,-2.3044,-2.2015,-2.2005,-2.1719,-3.5489,-3.5489,-3.5489,-3.5489,-3.5489,-3.5489,-3.5489,-3.5489,-3.5489,-3.5489,-3.5424,-3.4872,-3.4576,-3.4576,-3.4075,-3.3581,-3.3052,-3.2236,-3.1609,-3.0908,-3.0216,-2.9921,-2.9779,-2.9779,-2.9779,-2.9779,-2.9779,-2.9779,-2.9779,-2.9779,-2.9779,-2.9779,-2.9779,-2.9779,-2.9779,-2.9779,-2.9779,-2.9779,-2.9779,-2.9779,-2.9779,-2.9779,-2.9779,-2.9779,-2.9779,-2.9779,-2.9779,-2.9779,-2.9779,-2.9779,-2.9779,-2.9779,-2.9611,-2.9365,-2.8502,-2.6719,-2.5546,-2.4372,-2.3343,-2.3091,-2.3101,-2.3101,-2.3101,-2.3101,-2.3101,-2.3101,-2.3101,-2.3101,-2.3101,-2.3101,-2.3101,-2.3101,-2.3101,-2.3101,-2.3594,-2.4082,-2.4339,-2.4553,-2.4925,-2.5336,-2.5588,-2.5797,-2.6099,-2.6431,-2.6637,-2.6801,-2.6789,-2.6502,-2.6254,-2.5953,-2.563,-2.5515,-2.5808,-2.6099,-2.6565,-2.6771,-2.6554,-2.6389,-2.6055,-2.5867,-2.6087,-2.6141,-2.5959,-2.6336,-2.6898,-2.6749,-2.6662,-2.668,-2.6797,-2.6348,-2.5873,-2.4991,-2.3616,-2.2425,-2.1988,-3.5489,-3.5489,-3.5489,-3.5489,-3.5489,-3.5489,-3.5489,-3.5489,-3.5489,-3.5489,-3.5457,-3.5457,-3.5392,-3.5231,-3.5067,-3.4543,-3.3754,-3.282,-3.1852,-3.118,-3.0254,-2.983,-2.9779,-2.9779,-2.9779,-2.9779,-2.9779,-2.9779,-2.9779,-2.9779,-2.9779,-2.9779,-2.9779,-2.9779,-2.9779,-2.9779,-2.9779,-2.9779,-2.9779,-2.9779,-2.9779,-2.9779,-2.9779,-2.9779,-2.9779,-2.9779,-2.9779,-2.9779,-2.9779,-2.9779,-2.9779,-2.9779,-2.9482,-2.853,-2.7464,-2.6419,-2.521,-2.4125,-2.3343,-2.3091,-2.3101,-2.3101,-2.3101,-2.3101,-2.3101,-2.3101,-2.3101,-2.3101,-2.3101,-2.343,-2.3551,-2.3714,-2.3757,-2.4178,-2.4723,-2.5294,-2.5734,-2.5994,-2.6284,-2.6614,-2.6655,-2.6912,-2.7424,-2.7758,-2.7919,-2.7947,-2.7907,-2.7706,-2.7533,-2.7279,-2.6912,-2.6719,-2.7221,-2.7516,-2.7476,-2.7597,-2.7261,-2.7058,-2.7017,-2.7157,-2.7519,-2.7405,-2.7197,-2.7683,-2.8239,-2.8653,-2.8708,-2.8494,-2.8067,-2.7669,-2.7196,-2.688,-2.5611,-2.3771,-2.2706,-3.5489,-3.5489,-3.5489,-3.5489,-3.5489,-3.5489,-3.5489,-3.5489,-3.5489,-3.5489,-3.5489,-3.5489,-3.5489,-3.5489,-3.5504,-3.4986,-3.4075,-3.3066,-3.2092,-3.1217,-3.0279,-2.983,-2.9779,-2.9779,-2.9779,-2.9779,-2.9779,-2.9779,-2.9779,-2.9779,-2.9779,-2.9779,-2.9779,-2.9779,-2.9779,-2.9779,-2.9779,-2.9779,-2.9779,-2.9779,-2.9779,-2.9779,-2.9779,-2.9779,-2.9779,-2.9779,-2.9779,-2.9779,-2.9779,-2.9779,-2.9779,-2.9779,-2.974,-2.7959,-2.6935,-2.6224,-2.4798,-2.38,-2.3299,-2.3101,-2.3101,-2.3101,-2.3101,-2.3101,-2.3101,-2.3101,-2.3101,-2.3101,-2.3266,-2.3671,-2.4039,-2.4253,-2.4585,-2.5221,-2.5891,-2.6491,-2.7093,-2.7429,-2.7735,-2.7735,-2.7735,-2.8068,-2.8621,-2.891,-2.9157,-2.9248,-2.9287,-2.9209,-2.904,-2.8819,-2.8227,-2.8119,-2.8752,-2.8961,-2.8752,-2.8502,-2.8291,-2.845,-2.8581,-2.8752,-2.8843,-2.8673,-2.8462,-2.9,-2.9524,-2.954,-2.9541,-2.9514,-2.9122,-2.8683,-2.8307,-2.7895,-2.6655,-2.4926,-2.4,-3.5489,-3.5489,-3.5489,-3.5489,-3.5489,-3.5489,-3.5489,-3.5489,-3.5489,-3.5489,-3.5489,-3.5489,-3.5489,-3.5489,-3.5504,-3.5279,-3.4361,-3.3171,-3.2486,-3.1646,-3.0457,-2.9921,-2.9779,-2.9779,-2.9779,-2.9779,-2.9779,-2.9779,-2.9779,-2.9779,-2.9779,-2.9779,-2.9779,-2.9779,-2.9779,-2.9779,-2.9779,-2.9779,-2.9779,-2.9779,-2.9779,-2.9779,-2.9779,-2.9779,-2.9779,-2.9779,-2.9779,-2.9779,-2.9779,-2.9779,-2.9779,-2.9779,-2.9456,-2.8291,-2.718,-2.6224,-2.501,-2.3647,-2.3309,-2.3101,-2.3101,-2.3101,-2.3101,-2.3101,-2.3101,-2.3101,-2.3101,-2.3101,-2.3101,-2.343,-2.4253,-2.4628,-2.5221,-2.585,-2.6801,-2.7602,-2.8227,-2.874,-2.887,-2.8858,-2.8858,-2.8949,-2.9326,-2.9365,-2.9573,-2.9534,-2.974,-2.9753,-2.9779,-2.9779,-2.9353,-2.9145,-2.9534,-2.9714,-2.9417,-2.9365,-2.9365,-2.9663,-2.9779,-2.9585,-2.9339,-2.9534,-2.974,-2.9753,-2.9753,-2.9767,-2.9754,-2.9779,-2.9779,-2.9374,-2.9083,-2.8792,-2.7396,-2.6075,-2.5099,-3.5489,-3.5489,-3.5489,-3.5489,-3.5489,-3.5489,-3.5489,-3.5489,-3.5489,-3.5489,-3.5489,-3.5489,-3.5489,-3.5489,-3.5489,-3.5392,-3.4739,-3.3241,-3.2642,-3.1792,-3.0495,-2.9998,-2.9779,-2.9779,-2.9779,-2.9779,-2.9779,-2.9779,-2.9779,-2.9779,-2.9779,-2.9779,-2.9779,-2.9779,-2.9779,-2.9779,-2.9779,-2.9779,-2.9779,-2.9779,-2.9779,-2.9779,-2.9779,-2.9779,-2.9779,-2.9779,-2.9779,-2.9779,-2.9779,-2.9779,-2.9779,-2.9779,-2.9443,-2.8569,-2.7504,-2.6472,-2.5336,-2.4135,-2.3387,-2.3101,-2.3101,-2.3101,-2.3101,-2.3101,-2.3101,-2.3101,-2.3101,-2.3101,-2.3101,-2.3637,-2.4467,-2.5221,-2.5808,-2.6801,-2.7827,-2.8557,-2.9157,-2.9714,-2.9702,-2.9702,-2.9702,-2.9753,-2.9753,-2.9779,-2.9779,-2.9779,-2.9779,-2.9779,-2.9779,-2.9779,-2.9573,-2.9482,-2.9663,-2.9779,-2.9779,-2.9779,-2.9779,-2.9779,-2.9779,-2.9779,-2.9779,-2.9779,-2.9779,-2.9779,-2.9779,-2.9779,-2.9779,-2.9779,-2.9779,-2.9779,-2.9563,-2.9155,-2.8182,-2.6898,-2.6046,-3.5489,-3.5489,-3.5489,-3.5489,-3.5489,-3.5489,-3.5489,-3.5489,-3.5489,-3.5489,-3.5489,-3.5489,-3.5489,-3.5489,-3.5489,-3.5279,-3.4543,-3.3206,-3.2141,-3.1254,-3.052,-3.0037,-2.9779,-2.9779,-2.9779,-2.9779,-2.9779,-2.9779,-2.9779,-2.9779,-2.9779,-2.9779,-2.9779,-2.9779,-2.9779,-2.9779,-2.9779,-2.9779,-2.9779,-2.9779,-2.9779,-2.9779,-2.9779,-2.9779,-2.9779,-2.9779,-2.9779,-2.9779,-2.9779,-2.9779,-2.9779,-2.9779,-2.9482,-2.8806,-2.7787,-2.6637,-2.5504,-2.4382,-2.3637,-2.3178,-2.3101,-2.3101,-2.3101,-2.3101,-2.3101,-2.3101,-2.3101,-2.3101,-2.3387,-2.4317,-2.5105,-2.5808,-2.6483,-2.8039,-2.9314,-2.9365,-2.9663,-2.9753,-2.974,-2.974,-2.974,-2.9792,-2.9779,-2.9779,-2.9779,-2.9779,-2.9779,-2.9779,-2.9779,-2.9779,-2.9779,-2.9779,-2.9779,-2.9779,-2.9779,-2.9779,-2.9779,-2.9779,-2.9779,-2.9779,-2.9779,-2.9779,-2.9779,-2.9779,-2.9779,-2.9779,-2.9779,-2.9779,-2.9779,-2.9779,-2.9779,-2.9406,-2.8505,-2.7631,-2.6644]},{"header":{"parameterUnit":"m.s-1","parameterCategory":1,"la1":31.0,"la2":29.5877,"lo1":-88.7671,"lo2":-86.6584,"dy":0.0162,"dx":0.0185,"nx":115,"ny":88,"refTime":"2023-08-06T12:00:00:Z","depth":0,"parameterNumber":3,"parameterNumberName":"V-component_of_WINDS"},"data":[0.0,0.0,0.0,0.0,0.0,0.0,0.0,0.0,0.0,0.0,0.0,0.0,0.0,0.0,0.0,0.0,0.0,0.0,0.0,0.0,0.0,0.0,0.0,0.0,0.0,0.0,0.0,0.0,0.0,0.0,0.0,0.0,0.0,0.0,0.0,0.0,0.0,0.0,0.0,0.0,0.0,0.0,0.0,0.0,0.0,0.0,0.0,0.0,0.0,0.0,0.0,0.0,0.0,0.0,0.0,0.0,0.0,0.0,0.0,0.0,0.0,0.0,0.0,0.0,0.0,0.0,0.0,0.0,0.0,0.0,0.0,0.0,0.0,0.0,0.0,0.0,0.0,0.0,0.0,0.0,0.0,0.0,0.0,0.0,0.0,0.0,0.0,0.0,0.0,0.0,0.0,0.0,0.0,0.0,0.0,0.0,0.0,0.0,0.0,0.0,0.0,0.0,0.0,0.0,0.0,0.0,0.0,0.0,0.0,0.0,0.0,0.0,0.0,0.0,0.0,0.0,0.0,0.0,0.0,0.0,0.0,0.0,0.0,0.0,0.0,0.0,0.0,0.0,0.0,0.0,0.0,0.0,0.0,0.0,0.0,0.0,0.0,0.0,0.0,0.0,0.0,0.0,0.0,0.0,0.0,0.0,0.0,0.0,0.0,0.0,0.0,0.0,0.0,0.0,0.0,0.0,0.0,0.0,0.0,0.0,0.0,0.0,0.0,0.0,0.0,0.0,0.0,0.0,0.0,0.0,0.0,0.0,0.0,0.0,0.0,0.0,0.0,0.0,0.0,0.0,0.0,0.0,0.0,0.0,0.0,0.0,0.0,0.0,0.0,0.0,0.0,0.0,0.0,0.0,0.0,0.0,0.0,0.0,0.0,0.0,0.0,0.0,0.0,0.0,0.0,0.0,0.0,0.0,0.0,0.0,0.0,0.0,0.0,0.0,0.0,0.0,0.0,0.0,0.0,0.0,0.0,0.0,0.0,0.0,0.0,0.0,0.0,0.0,0.0,0.0,0.0,0.0,0.0,0.0,0.0,0.0,0.0,0.0,0.0,0.0,0.0,0.0,0.0,0.0,0.0,0.0,0.0,0.0,0.0,0.0,0.0,0.0,0.0,0.0,0.0,0.0,0.0,0.0,0.0,0.0,0.0,0.0,0.0,0.0,0.0,0.0,0.0,0.0,0.0,0.0,0.0,0.0,0.0,0.0,0.0,0.0,0.0,0.0,0.0,0.0,0.0,0.0,0.0,0.0,0.0,0.0,0.0,0.0,0.0,0.0,0.0,0.0,0.0,0.0,0.0,0.0,0.0,0.0,0.0,0.0,0.0,0.0,0.0,0.0,0.0,0.0,0.0,0.0,0.0,0.0,0.0,0.0,0.0,0.0,0.0,0.0,0.0,0.0,0.0,0.0,0.0,0.0,0.0,0.0,0.0,0.0,0.0,0.0,0.0,0.0,0.0,0.0,0.0,0.0,0.0,0.0,0.0,0.0,0.0,0.0,0.0,0.0,0.0,0.0,0.0,0.0,0.0,0.0,0.0,0.0,0.0,0.0,0.0,0.0,0.0,0.0,0.0,0.0,0.0,0.0,0.0,0.0,0.0,0.0,0.0,0.0,0.0,0.0,0.0,0.0,0.0,0.0,0.0,0.0,0.0,0.0,0.0,0.0,0.0,0.0,0.0,0.0,0.0,0.0,0.0,0.0,0.0,0.0,0.0,0.0,0.0,0.0,0.0,0.0,0.0,0.0,0.0,0.0,0.0,0.0,0.0,0.0,0.0,0.0,0.0,0.0,0.0,0.0,0.0,0.0,0.0,0.0,0.0,0.0,0.0,0.0,0.0,0.0,0.0,0.0,0.0,0.0,0.0,0.0,0.0,0.0,0.0,0.0,0.0,0.0,0.0,0.0,0.0,0.0,0.0,0.0,0.0,0.0,0.0,0.0,0.0,0.0,0.0,0.0,0.0,0.0,0.0,0.0,0.0,0.0,0.0,0.0,0.0,0.0,0.0,0.0,0.0,0.0,0.0,0.0,0.0,0.0,0.0,0.0,0.0,0.0,0.0,0.0,0.0,0.0,0.0,0.0,0.0,0.0,0.0,0.0,0.0,0.0,0.0,0.0,0.0,0.0,0.0,0.0,0.0,0.0,0.0,0.0,0.0,0.0,0.0,0.0,0.0,0.0,0.0,0.0,0.0,0.0,0.0,0.0,0.0,0.0,0.0,0.0,0.0,0.0,0.0,0.0,0.0,0.0,0.0,0.0,0.0,0.0,0.0,0.0,0.0,0.0,0.0,0.0,0.0,0.0,0.0,0.0,0.0,0.0,0.0,0.0,0.0,0.0,0.0,0.0,0.0,0.0,0.0,0.0,0.0,0.0,0.0,0.0,0.0,0.0,0.0,0.0,0.0,0.0,0.0,0.0,0.0,0.0,0.0,0.0,0.0,0.0,0.0,0.0,0.0,0.0,0.0,0.0,0.0,0.0,0.0,0.0,0.0,0.0,0.0,0.0,0.0,0.0,0.0,0.0,0.0,0.0,0.0,0.0,0.0,0.0,0.0,0.0,0.0,0.0,0.0,0.0,0.0,0.0,0.0,0.0,0.0,0.0,0.0,0.0,0.0,0.0,0.0,0.0,0.0,0.0,0.0,0.0,0.0,0.0,0.0,0.0,0.0,0.0,0.0,0.0,0.0,0.0,0.0,0.0,0.0,0.0,0.0,0.0,0.0,0.0,0.0,0.0,0.0,0.0,0.0,0.0,0.0,0.0,0.0,0.0,0.0,0.0,0.0,0.0,0.0,0.0,0.0,0.0,0.0,0.0,0.0,0.0,0.0,0.0,0.0,0.0,0.0,0.0,0.0,0.0,0.0,0.0,0.0,0.0,0.0,0.0,0.0,0.0,0.0,0.0,0.0,0.0,0.0,0.0,0.0,0.0,0.0,0.0,0.0,0.0,0.0,0.0,0.0,0.0,0.0,0.0,0.0,0.0,0.0,0.0,0.0,0.0,0.0,0.0,0.0,0.0,0.0,0.0,0.0,0.0,0.0,0.0,0.0,0.0,0.0,0.0,0.0,0.0,0.0,0.0,0.0,0.0,0.0,0.0,0.0,0.0,0.0,0.0,0.0,0.0,0.0,0.0,0.0,0.0,0.0,0.0,0.0,0.0,0.0,0.0,0.0,0.0,0.0,0.0,0.0,0.0,0.0,0.0,0.0,0.0,0.0,0.0,0.0,0.0,0.0,0.0,0.0,0.0,0.0,0.0,0.0,0.0,0.0,0.0,0.0,0.0,0.0,0.0,0.0,0.0,0.0,0.0,0.0,0.0,0.0,0.0,0.0,0.0,0.0,0.0,0.0,0.0,0.0,0.0,0.0,0.0,0.0,0.0,0.0,0.0,0.0,0.0,0.0,0.0,0.0,0.0,0.0,0.0,0.0,0.0,0.0,0.0,0.0,0.0,0.0,0.0,0.0,0.0,0.0,0.0,0.0,0.0,0.0,0.0,0.0,0.0,0.0,0.0,0.0,0.0,0.0,0.0,0.0,0.0,0.0,0.0,0.0,0.0,0.0,0.0,0.0,0.0,0.0,0.0,0.0,0.0,0.0,0.0,0.0,0.0,0.0,0.0,0.0,0.0,0.0,0.0,0.0,0.0,0.0,0.0,0.0,0.0,0.0,0.0,0.0,0.0,0.0,0.0,0.0,0.0,0.0,0.0,0.0,0.0,0.0,0.0,0.0,0.0,0.0,0.0,0.0,0.0,0.0,0.0,0.0,0.0,0.0,0.0,0.0,0.0,0.0,0.0,0.0,0.0,0.0,0.0,0.0,0.0,0.0,0.0,0.0,0.0,0.0,0.0,0.0,0.0,0.0,0.0,0.0,0.0,0.0,0.0,0.0,0.0,0.0,0.0,0.0,0.0,0.0,0.0,0.0,0.0,0.0,0.0,0.0,0.0,0.0,0.0,0.0,0.0,0.0,0.0,0.0,0.0,0.0,0.0,0.0,0.0,0.0,0.0,0.0,0.0,0.0,0.0,0.0,0.0,0.0,0.0,0.0,0.0,0.0,0.0,0.0,0.0,0.0,0.0,0.0,0.0,0.0,0.0,0.0,0.0,0.0,0.0,0.0,0.0,0.0,0.0,0.0,0.0,0.0,0.0,0.0,0.0,0.0,0.0,0.0,0.0,0.0,0.0,0.0,0.0,0.0,0.0,0.0,0.0,0.0,0.0,0.0,0.0,0.0,0.0,0.0,0.0,0.0,0.0,0.0,0.0,-2.1545,0.0,0.0,0.0,0.0,0.0,0.0,0.0,0.0,0.0,0.0,0.0,0.0,0.0,0.0,0.0,0.0,0.0,0.0,0.0,0.0,0.0,0.0,0.0,0.0,0.0,0.0,0.0,0.0,0.0,0.0,0.0,0.0,0.0,0.0,0.0,0.0,0.0,0.0,0.0,0.0,0.0,0.0,0.0,0.0,0.0,0.0,0.0,0.0,0.0,0.0,0.0,0.0,0.0,0.0,0.0,0.0,0.0,0.0,0.0,0.0,0.0,0.0,0.0,0.0,0.0,0.0,0.0,0.0,0.0,0.0,0.0,0.0,0.0,0.0,0.0,0.0,0.0,0.0,0.0,0.0,0.0,0.0,0.0,0.0,0.0,0.0,0.0,0.0,0.0,0.0,0.0,0.0,0.0,0.0,0.0,0.0,0.0,0.0,0.0,0.0,0.0,0.0,0.0,0.0,0.0,0.0,0.0,0.0,0.0,0.0,-2.3251,-2.3565,-2.2353,-2.1695,-2.1665,0.0,0.0,0.0,0.0,0.0,0.0,0.0,0.0,0.0,0.0,0.0,0.0,0.0,0.0,0.0,0.0,0.0,0.0,0.0,0.0,0.0,0.0,0.0,0.0,0.0,0.0,0.0,0.0,0.0,0.0,0.0,0.0,0.0,0.0,0.0,0.0,0.0,0.0,0.0,0.0,0.0,0.0,0.0,0.0,0.0,0.0,0.0,0.0,0.0,0.0,0.0,0.0,0.0,0.0,0.0,0.0,0.0,0.0,0.0,0.0,0.0,0.0,0.0,0.0,0.0,0.0,0.0,0.0,0.0,0.0,0.0,0.0,0.0,0.0,0.0,0.0,0.0,0.0,0.0,0.0,0.0,0.0,0.0,0.0,0.0,0.0,0.0,0.0,0.0,0.0,0.0,0.0,0.0,0.0,0.0,0.0,0.0,0.0,0.0,0.0,0.0,0.0,0.0,0.0,0.0,0.0,0.0,0.0,0.0,0.0,0.0,0.0,-2.2503,-2.1789,-2.1455,0.0,0.0,0.0,0.0,0.0,0.0,0.0,0.0,0.0,0.0,0.0,0.0,0.0,0.0,0.0,0.0,0.0,0.0,0.0,0.0,0.0,0.0,0.0,0.0,0.0,0.0,0.0,0.0,0.0,0.0,0.0,0.0,0.0,0.0,0.0,0.0,0.0,0.0,0.0,0.0,0.0,0.0,0.0,0.0,0.0,0.0,0.0,0.0,0.0,0.0,0.0,0.0,0.0,0.0,0.0,0.0,0.0,0.0,0.0,0.0,0.0,0.0,0.0,0.0,0.0,0.0,0.0,0.0,0.0,0.0,0.0,0.0,0.0,0.0,0.0,0.0,0.0,0.0,0.0,0.0,0.0,0.0,0.0,0.0,0.0,0.0,0.0,0.0,0.0,0.0,0.0,0.0,0.0,0.0,0.0,0.0,0.0,0.0,0.0,0.0,0.0,0.0,0.0,0.0,0.0,0.0,0.0,0.0,0.0,0.0,-2.2987,-2.3565,-2.2942,0.0,-2.0882,0.0,0.0,0.0,0.0,0.0,0.0,0.0,0.0,0.0,0.0,0.0,0.0,0.0,0.0,0.0,0.0,0.0,0.0,0.0,0.0,0.0,0.0,0.0,0.0,0.0,0.0,0.0,0.0,0.0,0.0,0.0,0.0,0.0,0.0,0.0,0.0,0.0,0.0,0.0,0.0,0.0,0.0,0.0,0.0,0.0,0.0,0.0,0.0,0.0,0.0,0.0,0.0,0.0,0.0,0.0,0.0,0.0,0.0,0.0,0.0,0.0,0.0,0.0,0.0,0.0,0.0,0.0,0.0,0.0,0.0,0.0,0.0,0.0,0.0,0.0,0.0,0.0,0.0,0.0,0.0,0.0,0.0,0.0,0.0,0.0,0.0,0.0,0.0,0.0,0.0,0.0,0.0,0.0,0.0,0.0,0.0,0.0,0.0,0.0,0.0,0.0,0.0,0.0,0.0,0.0,0.0,0.0,0.0,0.0,0.0,-2.2577,-2.358,-2.2622,-2.1665,0.0,0.0,0.0,0.0,0.0,0.0,0.0,0.0,0.0,0.0,0.0,0.0,0.0,0.0,0.0,0.0,0.0,0.0,0.0,0.0,0.0,0.0,0.0,0.0,0.0,0.0,0.0,0.0,0.0,0.0,0.0,0.0,0.0,0.0,0.0,0.0,0.0,0.0,0.0,0.0,0.0,0.0,0.0,0.0,0.0,0.0,0.0,0.0,0.0,0.0,0.0,0.0,0.0,0.0,0.0,0.0,0.0,0.0,0.0,0.0,0.0,0.0,0.0,0.0,0.0,0.0,0.0,0.0,0.0,0.0,0.0,0.0,0.0,0.0,0.0,0.0,0.0,0.0,0.0,0.0,0.0,0.0,0.0,0.0,0.0,0.0,0.0,0.0,0.0,0.0,0.0,0.0,0.0,0.0,0.0,0.0,0.0,0.0,0.0,0.0,0.0,0.0,0.0,0.0,0.0,0.0,0.0,0.0,0.0,0.0,-2.1969,-2.2233,-2.3221,-2.2478,-2.1575,-2.0718,0.0,0.0,0.0,0.0,0.0,0.0,0.0,0.0,0.0,0.0,0.0,0.0,0.0,0.0,0.0,0.0,0.0,0.0,0.0,0.0,0.0,0.0,0.0,0.0,0.0,0.0,0.0,0.0,0.0,0.0,0.0,0.0,0.0,0.0,0.0,0.0,0.0,0.0,0.0,0.0,0.0,0.0,0.0,0.0,0.0,0.0,0.0,0.0,0.0,0.0,0.0,0.0,0.0,0.0,0.0,0.0,0.0,0.0,0.0,0.0,0.0,0.0,0.0,0.0,0.0,0.0,0.0,0.0,0.0,0.0,0.0,0.0,0.0,0.0,0.0,0.0,0.0,0.0,0.0,0.0,0.0,0.0,0.0,0.0,0.0,0.0,0.0,0.0,0.0,0.0,0.0,0.0,0.0,0.0,0.0,0.0,0.0,0.0,0.0,0.0,0.0,0.0,0.0,0.0,0.0,0.0,0.0,0.0,-2.168,-2.171,-2.2044,-2.2733,-2.2673,-2.2024,0.0,0.0,0.0,0.0,0.0,0.0,0.0,0.0,0.0,0.0,0.0,0.0,0.0,0.0,0.0,0.0,0.0,0.0,0.0,0.0,0.0,0.0,0.0,0.0,0.0,0.0,0.0,0.0,0.0,0.0,0.0,0.0,0.0,0.0,0.0,0.0,0.0,0.0,0.0,0.0,0.0,0.0,0.0,0.0,0.0,0.0,0.0,0.0,0.0,0.0,0.0,0.0,0.0,0.0,0.0,0.0,0.0,0.0,0.0,0.0,0.0,0.0,0.0,0.0,0.0,0.0,0.0,0.0,0.0,0.0,0.0,0.0,0.0,0.0,0.0,0.0,0.0,0.0,0.0,0.0,0.0,0.0,0.0,0.0,0.0,0.0,0.0,0.0,0.0,0.0,0.0,0.0,0.0,0.0,0.0,0.0,0.0,0.0,0.0,0.0,0.0,0.0,0.0,0.0,0.0,0.0,0.0,0.0,0.0,-2.1002,-2.1485,-2.2009,-2.2643,-2.1874,-2.1395,0.0,0.0,0.0,0.0,0.0,0.0,0.0,0.0,0.0,0.0,0.0,0.0,0.0,0.0,0.0,0.0,0.0,0.0,0.0,0.0,0.0,0.0,0.0,0.0,0.0,0.0,0.0,0.0,0.0,0.0,0.0,0.0,0.0,0.0,0.0,0.0,0.0,0.0,0.0,0.0,0.0,0.0,0.0,0.0,0.0,0.0,0.0,0.0,0.0,0.0,0.0,0.0,0.0,0.0,0.0,0.0,0.0,0.0,0.0,0.0,0.0,0.0,0.0,0.0,0.0,0.0,0.0,0.0,0.0,0.0,0.0,0.0,0.0,0.0,0.0,0.0,0.0,0.0,0.0,0.0,0.0,0.0,0.0,0.0,0.0,0.0,0.0,0.0,0.0,0.0,0.0,0.0,0.0,0.0,0.0,0.0,0.0,0.0,0.0,0.0,0.0,0.0,0.0,0.0,0.0,0.0,0.0,0.0,0.0,-2.1006,0.0,-2.2128,-2.2308,-2.15,-2.1017,0.0,0.0,0.0,0.0,0.0,0.0,0.0,0.0,0.0,0.0,0.0,0.0,0.0,0.0,0.0,0.0,0.0,0.0,0.0,0.0,0.0,0.0,0.0,0.0,0.0,0.0,0.0,0.0,0.0,0.0,0.0,0.0,0.0,0.0,0.0,0.0,0.0,0.0,0.0,0.0,0.0,0.0,0.0,0.0,0.0,0.0,0.0,0.0,0.0,0.0,0.0,0.0,0.0,0.0,0.0,0.0,0.0,0.0,0.0,0.0,0.0,0.0,0.0,0.0,0.0,0.0,0.0,0.0,0.0,0.0,0.0,0.0,0.0,0.0,0.0,0.0,0.0,0.0,0.0,0.0,0.0,0.0,0.0,0.0,0.0,0.0,0.0,0.0,0.0,0.0,0.0,0.0,0.0,0.0,0.0,0.0,0.0,0.0,0.0,0.0,0.0,0.0,0.0,0.0,0.0,0.0,0.0,0.0,-2.0382,-2.162,-2.2313,-2.2358,-2.1739,-2.1684,-2.1051,0.0,0.0,0.0,0.0,0.0,0.0,0.0,0.0,0.0,0.0,0.0,0.0,0.0,0.0,0.0,0.0,0.0,0.0,0.0,0.0,0.0,0.0,0.0,0.0,0.0,0.0,0.0,0.0,0.0,0.0,0.0,0.0,0.0,0.0,0.0,0.0,0.0,0.0,0.0,0.0,0.0,0.0,0.0,0.0,0.0,0.0,0.0,0.0,0.0,0.0,0.0,0.0,0.0,0.0,0.0,0.0,0.0,0.0,0.0,0.0,0.0,0.0,0.0,0.0,0.0,0.0,0.0,0.0,0.0,0.0,0.0,0.0,0.0,0.0,0.0,0.0,0.0,0.0,0.0,0.0,0.0,0.0,0.0,0.0,0.0,0.0,0.0,0.0,0.0,0.0,0.0,0.0,0.0,0.0,0.0,0.0,0.0,0.0,0.0,0.0,0.0,0.0,0.0,0.0,0.0,0.0,0.0,0.0,0.0,-2.1036,-2.1665,-2.2134,-2.2343,-2.1485,-2.1017,0.0,0.0,0.0,0.0,0.0,0.0,0.0,0.0,0.0,0.0,0.0,0.0,0.0,0.0,0.0,0.0,0.0,0.0,0.0,0.0,0.0,0.0,0.0,0.0,0.0,0.0,0.0,0.0,0.0,0.0,0.0,0.0,0.0,0.0,0.0,0.0,0.0,0.0,0.0,0.0,0.0,0.0,0.0,0.0,0.0,0.0,0.0,0.0,0.0,0.0,0.0,0.0,0.0,0.0,0.0,0.0,0.0,0.0,0.0,0.0,0.0,0.0,0.0,0.0,0.0,0.0,0.0,0.0,0.0,0.0,0.0,0.0,0.0,0.0,0.0,0.0,0.0,0.0,0.0,0.0,0.0,0.0,0.0,0.0,0.0,0.0,0.0,0.0,0.0,0.0,0.0,0.0,0.0,0.0,0.0,0.0,0.0,0.0,0.0,0.0,0.0,0.0,0.0,0.0,0.0,0.0,0.0,0.0,0.0,-2.1814,-2.2443,-2.2862,-2.3032,-2.1994,-2.141,-2.1306,0.0,0.0,0.0,0.0,0.0,0.0,0.0,0.0,0.0,0.0,0.0,0.0,0.0,0.0,0.0,0.0,0.0,0.0,0.0,0.0,0.0,0.0,0.0,0.0,0.0,0.0,0.0,0.0,0.0,0.0,0.0,0.0,0.0,0.0,0.0,0.0,0.0,0.0,0.0,0.0,0.0,0.0,0.0,0.0,0.0,0.0,0.0,0.0,0.0,0.0,0.0,0.0,0.0,0.0,0.0,0.0,0.0,0.0,0.0,0.0,0.0,0.0,0.0,0.0,0.0,0.0,0.0,0.0,0.0,0.0,0.0,0.0,0.0,0.0,0.0,0.0,0.0,0.0,0.0,0.0,0.0,0.0,0.0,0.0,0.0,0.0,0.0,0.0,0.0,0.0,0.0,0.0,0.0,0.0,0.0,0.0,0.0,0.0,0.0,0.0,0.0,0.0,0.0,0.0,0.0,0.0,0.0,0.0,-2.364,-2.435,-2.438,-2.3729,-2.3047,-2.2099,0.0,0.0,0.0,0.0,0.0,0.0,0.0,0.0,0.0,0.0,0.0,0.0,0.0,0.0,0.0,0.0,0.0,0.0,0.0,0.0,0.0,0.0,0.0,0.0,0.0,0.0,0.0,0.0,0.0,0.0,0.0,0.0,0.0,0.0,0.0,0.0,0.0,0.0,0.0,0.0,0.0,0.0,0.0,0.0,0.0,0.0,0.0,0.0,0.0,0.0,0.0,0.0,0.0,0.0,0.0,0.0,0.0,0.0,0.0,0.0,0.0,0.0,0.0,0.0,0.0,0.0,0.0,0.0,0.0,0.0,0.0,0.0,0.0,0.0,0.0,0.0,0.0,0.0,0.0,0.0,0.0,0.0,0.0,0.0,0.0,0.0,0.0,0.0,0.0,0.0,0.0,0.0,0.0,0.0,0.0,0.0,0.0,0.0,0.0,0.0,0.0,0.0,0.0,0.0,0.0,0.0,0.0,0.0,0.0,-2.4321,-2.548,-2.5749,-2.5076,-2.3541,-2.2538,0.0,0.0,0.0,0.0,0.0,0.0,0.0,0.0,0.0,0.0,0.0,0.0,0.0,0.0,0.0,0.0,0.0,0.0,0.0,0.0,0.0,0.0,0.0,0.0,0.0,0.0,0.0,0.0,0.0,0.0,0.0,0.0,0.0,0.0,0.0,0.0,0.0,0.0,0.0,0.0,0.0,0.0,0.0,0.0,0.0,0.0,0.0,0.0,0.0,0.0,0.0,0.0,0.0,0.0,0.0,0.0,0.0,0.0,0.0,0.0,0.0,0.0,0.0,0.0,0.0,0.0,0.0,0.0,0.0,0.0,0.0,0.0,0.0,0.0,0.0,0.0,0.0,0.0,0.0,0.0,0.0,0.0,0.0,0.0,0.0,0.0,0.0,0.0,0.0,0.0,0.0,0.0,0.0,0.0,0.0,0.0,0.0,0.0,0.0,0.0,0.0,0.0,0.0,0.0,0.0,0.0,0.0,0.0,-2.4133,-2.5435,-2.6752,-2.726,-2.6847,-2.4672,-2.3257,0.0,0.0,0.0,0.0,0.0,0.0,0.0,0.0,0.0,0.0,0.0,0.0,0.0,0.0,0.0,0.0,0.0,0.0,0.0,0.0,0.0,0.0,0.0,0.0,0.0,0.0,0.0,0.0,0.0,0.0,0.0,0.0,0.0,0.0,0.0,0.0,0.0,0.0,0.0,0.0,0.0,0.0,0.0,0.0,0.0,0.0,0.0,0.0,0.0,0.0,0.0,0.0,0.0,0.0,0.0,0.0,0.0,0.0,0.0,0.0,0.0,0.0,0.0,0.0,0.0,0.0,0.0,0.0,0.0,0.0,0.0,0.0,0.0,0.0,0.0,0.0,0.0,0.0,0.0,0.0,0.0,0.0,0.0,0.0,0.0,0.0,0.0,0.0,0.0,0.0,0.0,0.0,0.0,0.0,0.0,0.0,0.0,0.0,0.0,0.0,0.0,0.0,0.0,0.0,0.0,0.0,0.0,0.0,-2.5277,-2.6662,-2.7874,-2.8532,-2.8517,-2.5995,-2.4066,0.0,0.0,0.0,0.0,0.0,0.0,0.0,0.0,0.0,0.0,0.0,0.0,0.0,0.0,0.0,0.0,0.0,0.0,0.0,0.0,0.0,0.0,0.0,0.0,0.0,0.0,0.0,0.0,0.0,0.0,0.0,0.0,0.0,0.0,0.0,0.0,0.0,0.0,0.0,0.0,0.0,0.0,0.0,0.0,0.0,0.0,0.0,0.0,0.0,0.0,0.0,0.0,0.0,0.0,0.0,0.0,0.0,0.0,0.0,0.0,0.0,0.0,0.0,0.0,0.0,0.0,0.0,0.0,0.0,0.0,0.0,0.0,0.0,0.0,0.0,0.0,0.0,0.0,0.0,0.0,0.0,0.0,0.0,0.0,0.0,0.0,0.0,0.0,0.0,0.0,0.0,0.0,0.0,0.0,0.0,0.0,0.0,0.0,0.0,0.0,0.0,0.0,0.0,0.0,0.0,0.0,0.0,0.0,-2.5525,-2.733,-2.7675,-2.8079,-2.8577,-2.5995,-2.4485,0.0,0.0,0.0,0.0,0.0,0.0,0.0,0.0,0.0,0.0,0.0,0.0,0.0,0.0,0.0,0.0,0.0,0.0,0.0,0.0,0.0,0.0,0.0,0.0,0.0,0.0,0.0,0.0,0.0,0.0,0.0,0.0,0.0,0.0,0.0,0.0,0.0,0.0,0.0,0.0,0.0,0.0,0.0,0.0,0.0,0.0,0.0,0.0,-2.1096,0.0,0.0,0.0,0.0,0.0,0.0,0.0,0.0,0.0,0.0,0.0,0.0,0.0,0.0,0.0,0.0,0.0,0.0,0.0,0.0,0.0,0.0,0.0,0.0,0.0,0.0,0.0,0.0,0.0,0.0,0.0,0.0,0.0,0.0,0.0,0.0,0.0,0.0,0.0,0.0,0.0,0.0,0.0,0.0,0.0,0.0,0.0,0.0,0.0,0.0,0.0,0.0,0.0,0.0,0.0,0.0,0.0,0.0,0.0,-2.6198,-2.7555,-2.8498,-2.8846,-2.8547,-2.6916,-2.5546,0.0,0.0,0.0,0.0,0.0,0.0,0.0,0.0,0.0,0.0,0.0,0.0,0.0,0.0,0.0,0.0,0.0,0.0,0.0,0.0,0.0,0.0,0.0,0.0,0.0,0.0,0.0,0.0,0.0,0.0,0.0,0.0,0.0,0.0,0.0,0.0,0.0,0.0,0.0,0.0,0.0,0.0,0.0,0.0,0.0,0.0,0.0,0.0,0.0,0.0,0.0,0.0,0.0,0.0,0.0,0.0,0.0,0.0,0.0,0.0,0.0,0.0,0.0,0.0,0.0,0.0,0.0,0.0,0.0,0.0,0.0,0.0,0.0,0.0,0.0,0.0,0.0,0.0,0.0,0.0,0.0,0.0,0.0,0.0,0.0,0.0,0.0,0.0,0.0,0.0,0.0,0.0,0.0,0.0,0.0,0.0,0.0,0.0,0.0,0.0,0.0,0.0,0.0,0.0,0.0,0.0,0.0,-2.5383,-2.6986,-2.7779,-2.9355,-2.9699,-2.8637,-2.7959,-2.6716,-2.4829,0.0,0.0,0.0,0.0,0.0,0.0,0.0,0.0,0.0,0.0,0.0,0.0,0.0,0.0,0.0,0.0,0.0,0.0,0.0,0.0,0.0,0.0,0.0,0.0,0.0,0.0,0.0,0.0,0.0,0.0,0.0,0.0,0.0,0.0,0.0,0.0,0.0,0.0,-1.9974,-1.9842,0.0,0.0,0.0,0.0,0.0,0.0,0.0,0.0,-2.0872,0.0,0.0,0.0,0.0,0.0,0.0,0.0,0.0,0.0,0.0,0.0,0.0,0.0,0.0,0.0,0.0,0.0,0.0,0.0,0.0,0.0,0.0,0.0,0.0,0.0,0.0,0.0,0.0,0.0,0.0,0.0,0.0,0.0,0.0,0.0,0.0,0.0,0.0,0.0,0.0,0.0,0.0,0.0,0.0,0.0,0.0,0.0,0.0,0.0,0.0,0.0,0.0,0.0,0.0,0.0,0.0,-2.4261,-2.5824,-2.7186,-2.8397,-2.8757,-2.8816,-2.8592,-2.7959,-2.6926,-2.548,0.0,0.0,0.0,0.0,0.0,0.0,0.0,0.0,0.0,0.0,0.0,0.0,0.0,0.0,0.0,0.0,0.0,0.0,0.0,0.0,0.0,0.0,0.0,0.0,0.0,0.0,0.0,0.0,0.0,0.0,0.0,0.0,0.0,0.0,0.0,0.0,0.0,0.0,0.0,-2.0412,-2.0187,0.0,0.0,0.0,0.0,0.0,0.0,0.0,0.0,-2.2009,0.0,0.0,0.0,0.0,0.0,0.0,0.0,0.0,0.0,0.0,0.0,0.0,0.0,0.0,0.0,0.0,0.0,0.0,0.0,0.0,0.0,0.0,0.0,0.0,0.0,0.0,0.0,0.0,0.0,0.0,0.0,0.0,0.0,0.0,0.0,0.0,0.0,0.0,0.0,0.0,0.0,0.0,0.0,0.0,0.0,0.0,0.0,0.0,0.0,0.0,0.0,0.0,0.0,0.0,0.0,-2.4605,-2.6602,-2.7949,-2.8592,-2.925,-2.9101,-2.8113,-2.7779,-2.6986,0.0,0.0,0.0,0.0,0.0,0.0,0.0,0.0,0.0,0.0,0.0,0.0,0.0,0.0,0.0,0.0,0.0,0.0,0.0,0.0,0.0,0.0,0.0,0.0,0.0,0.0,0.0,0.0,0.0,0.0,0.0,0.0,0.0,0.0,0.0,0.0,0.0,0.0,0.0,0.0,-2.137,-2.1201,-2.2503,0.0,0.0,0.0,0.0,0.0,0.0,-2.2099,-2.2128,0.0,0.0,0.0,0.0,0.0,0.0,0.0,0.0,0.0,0.0,0.0,0.0,0.0,0.0,0.0,0.0,0.0,0.0,0.0,0.0,0.0,0.0,0.0,0.0,0.0,0.0,0.0,0.0,0.0,0.0,0.0,0.0,0.0,0.0,0.0,0.0,0.0,0.0,0.0,0.0,0.0,0.0,0.0,0.0,0.0,0.0,0.0,0.0,0.0,0.0,0.0,0.0,0.0,0.0,0.0,-2.4634,-2.7086,-2.8397,-2.8442,-2.952,-2.9295,-2.766,-2.7465,-2.6752,0.0,0.0,0.0,0.0,0.0,0.0,0.0,0.0,0.0,0.0,0.0,0.0,0.0,0.0,0.0,0.0,0.0,0.0,0.0,0.0,0.0,0.0,0.0,0.0,0.0,0.0,0.0,0.0,0.0,0.0,0.0,0.0,0.0,0.0,0.0,0.0,0.0,0.0,0.0,0.0,0.0,-2.2503,-2.3625,-2.2712,0.0,0.0,0.0,0.0,-2.2293,-2.2607,0.0,0.0,0.0,0.0,0.0,0.0,0.0,0.0,0.0,0.0,0.0,0.0,0.0,0.0,0.0,0.0,0.0,0.0,0.0,0.0,0.0,0.0,0.0,0.0,0.0,0.0,0.0,0.0,0.0,0.0,0.0,0.0,0.0,0.0,0.0,0.0,0.0,0.0,0.0,0.0,0.0,0.0,0.0,0.0,0.0,0.0,0.0,0.0,0.0,0.0,0.0,0.0,0.0,0.0,0.0,0.0,-2.4619,-2.6671,-2.772,-2.775,-2.8453,-2.8438,-2.7615,-2.7046,-2.6078,0.0,0.0,0.0,0.0,0.0,0.0,0.0,0.0,0.0,0.0,0.0,0.0,0.0,0.0,0.0,0.0,0.0,0.0,0.0,0.0,0.0,0.0,0.0,0.0,0.0,0.0,0.0,0.0,0.0,0.0,0.0,0.0,0.0,0.0,0.0,0.0,0.0,0.0,0.0,0.0,0.0,-2.3655,-2.438,-2.3385,-2.2583,0.0,0.0,-2.4276,-2.4261,-2.5749,0.0,0.0,0.0,0.0,0.0,0.0,0.0,0.0,0.0,0.0,0.0,0.0,0.0,0.0,0.0,0.0,0.0,0.0,0.0,0.0,0.0,0.0,0.0,0.0,0.0,0.0,0.0,0.0,0.0,0.0,0.0,0.0,0.0,0.0,0.0,0.0,0.0,0.0,0.0,0.0,0.0,0.0,0.0,0.0,0.0,0.0,0.0,0.0,0.0,0.0,0.0,0.0,0.0,0.0,0.0,-2.4044,-2.5734,-2.7735,-2.8903,-2.922,-2.9175,-2.8831,-2.8173,-2.6782,-2.5561,0.0,0.0,0.0,0.0,0.0,0.0,0.0,0.0,0.0,0.0,0.0,0.0,0.0,0.0,0.0,0.0,0.0,0.0,0.0,0.0,0.0,0.0,0.0,0.0,0.0,0.0,0.0,0.0,0.0,0.0,0.0,0.0,0.0,0.0,0.0,0.0,0.0,0.0,0.0,0.0,0.0,0.0,-2.5113,-2.4702,0.0,0.0,0.0,-2.4903,-2.4141,0.0,0.0,0.0,0.0,0.0,0.0,0.0,0.0,0.0,0.0,0.0,0.0,0.0,0.0,0.0,0.0,0.0,0.0,0.0,0.0,0.0,0.0,0.0,0.0,0.0,0.0,0.0,0.0,0.0,0.0,0.0,0.0,0.0,0.0,0.0,0.0,0.0,0.0,0.0,0.0,0.0,0.0,0.0,0.0,0.0,0.0,0.0,0.0,0.0,0.0,0.0,0.0,0.0,0.0,0.0,0.0,0.0,-2.6572,-2.8423,-2.9666,-3.0238,-2.9669,-2.9101,-2.8592,-2.6662,0.0,0.0,0.0,0.0,0.0,0.0,0.0,0.0,0.0,0.0,0.0,0.0,0.0,0.0,0.0,0.0,0.0,0.0,0.0,0.0,0.0,0.0,0.0,0.0,0.0,0.0,0.0,-2.0097,0.0,0.0,0.0,0.0,0.0,0.0,0.0,0.0,0.0,0.0,0.0,0.0,0.0,0.0,-2.6243,-2.5899,-2.5989,-2.6153,0.0,0.0,-2.5615,-2.4956,-2.6956,-2.757,0.0,0.0,0.0,0.0,0.0,0.0,0.0,0.0,0.0,0.0,0.0,0.0,0.0,0.0,0.0,0.0,0.0,0.0,0.0,0.0,0.0,0.0,0.0,0.0,0.0,0.0,0.0,0.0,0.0,0.0,0.0,0.0,0.0,0.0,0.0,0.0,0.0,0.0,0.0,0.0,0.0,0.0,0.0,0.0,0.0,0.0,0.0,0.0,0.0,0.0,0.0,0.0,0.0,0.0,-2.4597,-2.6542,-2.7964,-2.8996,-2.9609,-2.8996,-2.8637,-2.8562,-2.6662,-2.5001,0.0,0.0,0.0,0.0,0.0,0.0,0.0,0.0,0.0,0.0,0.0,0.0,0.0,0.0,0.0,0.0,0.0,0.0,0.0,0.0,0.0,0.0,0.0,0.0,0.0,0.0,0.0,0.0,0.0,0.0,0.0,0.0,0.0,0.0,0.0,0.0,0.0,0.0,0.0,0.0,0.0,-2.7934,-2.6707,-2.7076,-2.7705,0.0,-2.7335,-2.6916,-2.8068,-2.9909,-2.9911,-2.6069,0.0,0.0,0.0,0.0,0.0,0.0,0.0,0.0,0.0,0.0,0.0,0.0,0.0,0.0,0.0,0.0,0.0,0.0,0.0,0.0,0.0,0.0,0.0,0.0,0.0,0.0,0.0,0.0,0.0,0.0,0.0,0.0,0.0,0.0,0.0,0.0,0.0,0.0,0.0,0.0,0.0,0.0,0.0,0.0,0.0,0.0,0.0,0.0,0.0,0.0,0.0,0.0,0.0,-2.4792,-2.718,-2.8543,-2.9505,-3.0088,-2.952,-2.9011,-2.8607,-2.7066,-2.539,0.0,0.0,0.0,0.0,0.0,0.0,0.0,0.0,0.0,0.0,0.0,0.0,0.0,0.0,0.0,0.0,0.0,0.0,0.0,0.0,0.0,0.0,0.0,0.0,0.0,0.0,0.0,0.0,-2.343,-2.3155,-2.2383,0.0,0.0,0.0,0.0,0.0,0.0,0.0,0.0,0.0,0.0,-2.8562,-2.8468,-2.8981,0.0,0.0,-2.8757,-2.8349,-2.8049,-2.8951,-2.8595,-2.5332,-2.4977,0.0,0.0,0.0,0.0,0.0,0.0,0.0,0.0,0.0,0.0,0.0,0.0,0.0,0.0,0.0,0.0,0.0,0.0,0.0,0.0,0.0,0.0,0.0,0.0,0.0,0.0,0.0,0.0,0.0,0.0,0.0,0.0,0.0,0.0,0.0,0.0,0.0,0.0,0.0,0.0,0.0,0.0,0.0,0.0,0.0,0.0,0.0,0.0,0.0,0.0,0.0,0.0,-2.5338,-2.7585,-2.9112,-3.0178,-3.0763,-3.0013,-2.9397,-2.8861,-2.7395,-2.5839,0.0,0.0,0.0,0.0,0.0,0.0,0.0,0.0,0.0,0.0,0.0,0.0,0.0,0.0,0.0,0.0,0.0,0.0,0.0,0.0,0.0,0.0,0.0,0.0,0.0,0.0,0.0,0.0,-2.4051,-2.3699,-2.2793,0.0,0.0,0.0,0.0,0.0,0.0,0.0,0.0,0.0,0.0,-2.9505,-2.9579,-2.9953,-3.0058,-2.9654,-2.8906,-2.8304,-2.7959,-2.8293,-2.7765,-2.5377,0.0,0.0,0.0,0.0,0.0,0.0,0.0,0.0,0.0,0.0,0.0,0.0,0.0,0.0,0.0,0.0,0.0,0.0,0.0,0.0,0.0,0.0,0.0,0.0,0.0,0.0,0.0,0.0,0.0,0.0,-1.9723,0.0,0.0,0.0,0.0,0.0,0.0,0.0,0.0,0.0,0.0,0.0,0.0,0.0,0.0,0.0,0.0,0.0,0.0,0.0,0.0,0.0,0.0,-2.6213,-2.76,-2.9475,-3.0806,-3.1406,-3.0253,-2.9592,-2.9517,-2.766,-2.6273,-2.554,0.0,0.0,0.0,0.0,0.0,0.0,0.0,0.0,0.0,0.0,0.0,0.0,0.0,0.0,0.0,0.0,0.0,0.0,0.0,0.0,0.0,0.0,0.0,0.0,0.0,0.0,-2.1229,-2.2014,-2.2783,0.0,0.0,0.0,0.0,0.0,0.0,0.0,0.0,0.0,0.0,-2.9762,-3.0957,-2.9759,-2.9621,-2.9681,-2.9651,-2.7455,-2.6437,-2.8319,-2.8588,-2.8128,0.0,0.0,0.0,0.0,0.0,0.0,0.0,0.0,0.0,0.0,0.0,0.0,0.0,0.0,0.0,0.0,0.0,0.0,0.0,0.0,0.0,0.0,0.0,0.0,0.0,0.0,0.0,-2.2054,-2.1699,0.0,0.0,0.0,0.0,0.0,0.0,0.0,0.0,0.0,0.0,0.0,-2.331,-2.3759,0.0,0.0,0.0,0.0,0.0,0.0,0.0,0.0,0.0,0.0,0.0,0.0,-2.6258,-2.7615,-2.9505,-3.0612,-3.0821,-3.0013,-2.937,-2.8936,-2.7869,-2.6722,-2.5606,0.0,0.0,0.0,0.0,0.0,0.0,0.0,0.0,0.0,0.0,0.0,0.0,0.0,0.0,0.0,0.0,0.0,0.0,0.0,0.0,0.0,0.0,0.0,0.0,0.0,-2.4856,0.0,0.0,0.0,0.0,0.0,0.0,0.0,0.0,0.0,0.0,0.0,-2.6512,-2.8079,-2.9026,-2.9579,-2.9579,-2.9924,-3.0357,0.0,0.0,0.0,0.0,0.0,0.0,0.0,0.0,0.0,0.0,0.0,0.0,0.0,0.0,-3.0649,-2.7925,-2.806,-2.8584,-2.8602,0.0,0.0,0.0,0.0,0.0,0.0,0.0,0.0,0.0,0.0,0.0,0.0,0.0,0.0,-2.3729,0.0,-2.3122,0.0,0.0,0.0,0.0,0.0,0.0,0.0,0.0,-2.4859,-2.5345,-2.536,-2.5785,-2.5779,0.0,-2.533,-2.4672,0.0,0.0,0.0,0.0,0.0,0.0,0.0,0.0,-2.7081,-2.7989,-2.9864,-3.0866,-3.0808,-3.0238,-2.9594,-2.8951,-2.8079,-2.7195,-2.6318,-2.5016,-2.4118,0.0,0.0,0.0,0.0,0.0,0.0,0.0,0.0,0.0,0.0,0.0,0.0,0.0,0.0,0.0,0.0,0.0,0.0,0.0,0.0,0.0,0.0,0.0,-2.579,0.0,0.0,0.0,0.0,0.0,0.0,0.0,0.0,0.0,-2.6701,-2.7021,-2.7949,-2.9729,-2.9968,-2.9953,-2.9909,0.0,0.0,0.0,0.0,0.0,0.0,0.0,-2.8427,-2.897,-2.9313,-3.0068,-3.1736,-3.3199,-3.4252,-3.4455,0.0,0.0,-3.1086,-3.112,-3.163,-3.163,-3.2408,-3.2919,-3.2425,-3.2733,-3.2936,0.0,0.0,0.0,0.0,0.0,0.0,0.0,0.0,-2.5128,-2.4844,0.0,-2.4088,0.0,0.0,0.0,0.0,0.0,-2.4066,0.0,0.0,-2.7649,-2.8607,-2.8577,-2.8562,-2.8607,-2.8622,-2.8562,-2.7904,-2.6602,-2.4747,0.0,0.0,0.0,0.0,0.0,0.0,-2.8652,-2.8727,-3.0539,-3.154,-3.1511,-3.0838,-3.0193,-2.9547,-2.8304,-2.7615,-2.754,-2.6318,-2.5902,-2.6432,-2.4351,0.0,0.0,0.0,0.0,0.0,0.0,0.0,0.0,0.0,0.0,0.0,0.0,0.0,0.0,0.0,0.0,0.0,0.0,0.0,0.0,-2.6439,0.0,0.0,0.0,0.0,0.0,0.0,0.0,0.0,0.0,0.0,-2.888,-2.8723,-2.9621,-3.2092,0.0,0.0,0.0,0.0,-3.0088,-2.9019,-2.8235,-2.8311,-2.969,-3.0927,-3.1934,-3.2636,0.0,0.0,-3.5684,-3.5701,-3.5549,-3.4844,-3.6017,-3.666,-3.5836,-3.5064,-3.4641,-3.4663,-3.4764,-3.4714,-3.4697,-3.4878,-3.4827,-2.922,0.0,0.0,0.0,0.0,-2.747,-2.8083,-2.9086,-2.8906,-2.8308,-2.741,-2.6737,0.0,0.0,0.0,0.0,0.0,0.0,-2.6647,-2.7739,-2.8338,-2.8846,-2.9295,-2.9322,-2.9322,-2.9337,-2.9295,-2.9127,-2.8738,-2.8169,-2.7021,-2.5352,0.0,0.0,0.0,0.0,-2.9953,-3.0043,-3.1436,-3.2198,-3.2198,-3.1106,-2.9983,-2.8906,-2.8502,-2.8094,-2.7615,-2.724,-2.7006,-2.6983,-2.6047,0.0,0.0,0.0,0.0,0.0,0.0,0.0,0.0,0.0,0.0,0.0,0.0,0.0,0.0,0.0,0.0,0.0,0.0,0.0,-2.7699,-2.7912,-2.7859,0.0,0.0,0.0,0.0,0.0,0.0,0.0,0.0,0.0,-3.1324,-3.1007,-3.101,0.0,0.0,-3.0283,-2.9921,-3.0223,-3.091,-3.2054,-3.1672,0.0,-3.4309,-3.3762,-3.3439,-3.4572,-3.6209,-3.7292,-3.7233,-3.8108,-3.8759,-3.8505,-3.886,-3.908,-3.886,-3.821,-3.7743,-3.7736,-3.8125,-3.8488,-3.8505,-3.8488,-3.8454,-3.1734,-2.9864,-2.937,-2.9535,-3.0133,-3.0163,-3.0746,-3.1674,-3.142,-3.0717,-2.9702,-2.9041,-2.7799,-2.6144,-2.5779,0.0,0.0,0.0,-2.8861,-3.012,-3.0163,-3.0492,-3.1134,-3.112,-3.1164,-3.1135,-3.1164,-3.0986,-3.0746,-3.1044,-3.0058,-2.8013,0.0,0.0,-2.8203,-3.0253,-3.1285,-3.1316,-3.2362,-3.2781,-3.2482,-3.1195,-3.027,-2.9796,-2.9533,-2.9175,-2.8784,-2.8737,-2.867,-2.8425,-2.7598,-2.687,0.0,0.0,0.0,0.0,0.0,0.0,0.0,0.0,0.0,0.0,0.0,-2.686,-2.4694,0.0,0.0,0.0,-2.8496,-2.9458,-2.9968,-3.0002,0.0,0.0,0.0,0.0,0.0,0.0,0.0,-2.9943,-3.1259,-3.2314,-3.2844,-3.2806,-3.2755,-3.2739,-3.184,-3.1074,-3.0791,0.0,-3.2158,-3.3501,-3.358,-3.424,-3.6357,-3.6198,-3.6111,-3.7216,-3.8125,-3.8734,-3.8802,-3.9512,-4.0079,-4.0113,-4.0113,-4.0113,-4.0113,-3.9723,-3.9453,-3.9453,-3.9791,-4.0096,-4.0113,-4.0113,-4.0113,-3.3649,-3.3544,-3.2318,-3.2108,-3.2587,-3.2647,-3.2991,-3.344,-3.2901,-3.2273,-3.1615,-3.0928,-2.9983,-2.8831,-2.8891,0.0,-2.9861,-3.0462,-3.139,-3.2557,-3.2572,-3.2916,-3.3484,-3.3484,-3.3499,-3.3484,-3.3499,-3.3185,-3.2587,-3.3185,-3.2871,-3.1675,-3.1106,-3.0761,-3.0746,-3.1943,-3.2617,-3.2677,-3.3215,-3.3185,-3.2512,-3.13,-3.093,-3.1458,-3.0908,-3.0535,-3.0416,-3.0412,-3.038,-3.0251,-2.9021,-2.8497,-2.8889,0.0,0.0,0.0,0.0,0.0,0.0,0.0,0.0,0.0,0.0,0.0,0.0,0.0,0.0,0.0,-3.0493,0.0,-3.3296,-3.2348,0.0,0.0,0.0,-2.9917,-3.0139,-3.1218,-3.1737,-3.1154,0.0,0.0,-3.3836,-3.4317,-3.4705,-3.4755,-3.4073,-3.3396,-3.284,-3.3351,-3.3817,-3.417,-3.4652,-3.5532,-3.7067,-3.8129,-3.9031,-3.9681,-4.0113,-4.0028,-4.0011,-4.0045,-4.0096,-4.0113,-4.0113,-4.0113,-4.0113,-4.0062,-4.0113,-4.0079,-4.0096,-4.0113,-4.0113,-4.0113,-4.0113,-3.5026,-3.5011,-3.4665,-3.4037,-3.329,-3.3799,-3.3814,-3.3529,-3.3858,-3.3649,-3.2991,-3.2332,-3.157,-3.0823,-3.136,-3.1674,-3.1839,-3.2482,-3.2961,-3.326,-3.3275,-3.335,-3.3499,-3.3499,-3.3499,-3.3499,-3.3499,-3.341,-3.3275,-3.341,-3.3335,-3.3066,-3.3365,-3.3021,-3.2108,-3.2856,-3.3514,-3.4039,-3.3679,-3.317,-3.2527,-3.2168,-3.1626,-3.08,-3.0611,-3.0266,-2.977,-2.9681,-2.9857,-3.0251,-2.9963,-2.9546,-2.9025,-2.7199,0.0,0.0,0.0,0.0,0.0,0.0,0.0,0.0,0.0,-2.8129,-2.4762,0.0,-2.9798,0.0,-3.3001,-3.429,-3.347,-3.3132,0.0,0.0,-3.2376,-3.2689,-3.4839,-3.4961,-3.4994,-3.5312,-3.588,-3.6195,-3.6035,-3.6142,-3.6451,-3.69,-3.5478,-3.4554,-3.4935,-3.5584,-3.6234,-3.6826,-3.7377,-3.8243,-3.9059,-3.9564,-3.9893,-4.0079,-4.0113,-4.0113,-4.0113,-4.0113,-4.0113,-4.0113,-4.0113,-4.0113,-4.0113,-4.0113,-4.0113,-4.0113,-4.0113,-4.0113,-4.0113,-4.0113,-4.0113,-3.5489,-3.5489,-3.5489,-3.5085,-3.4412,-3.4786,-3.4726,-3.4427,-3.4786,-3.4562,-3.3888,-3.323,-3.2751,-3.2467,-3.3095,-3.338,-3.3425,-3.4083,-3.4382,-3.4397,-3.4397,-3.4397,-3.4382,-3.4397,-3.4397,-3.4397,-3.4397,-3.4397,-3.4397,-3.4382,-3.4397,-3.4397,-3.4756,-3.4562,-3.3888,-3.4203,-3.4577,-3.4921,-3.4277,-3.3754,-3.3395,-3.2811,-3.2149,-3.146,-3.1731,-3.1403,-3.0377,-3.0884,-3.0884,-3.0279,-3.0196,-2.9984,-2.948,-2.8027,-2.6979,0.0,0.0,0.0,0.0,0.0,0.0,0.0,0.0,0.0,0.0,0.0,-3.1106,-3.119,-3.3592,-3.4619,-3.3508,-3.3694,-3.4015,-3.4332,-3.4085,-3.4661,-3.6597,-3.6469,-3.6504,-3.7171,-3.7245,-3.7221,-3.7235,-3.727,-3.7512,-3.8197,-3.7303,-3.6582,-3.6682,-3.7046,-3.7524,-3.8301,-3.8688,-3.9166,-3.9978,-4.0113,-4.0113,-4.0113,-4.0113,-4.0113,-4.0113,-4.0113,-4.0113,-4.0113,-4.0113,-4.0113,-4.0113,-4.0113,-4.0113,-4.0113,-4.0113,-4.0113,-4.0113,-4.0113,-4.0113,-3.5489,-3.5489,-3.5489,-3.5489,-3.5489,-3.5489,-3.5489,-3.5489,-3.5489,-3.516,-3.4608,-3.4039,-3.3754,-3.3784,-3.4384,-3.4638,-3.4683,-3.5235,-3.5489,-3.5489,-3.5489,-3.5489,-3.5489,-3.5489,-3.5489,-3.5489,-3.5489,-3.5489,-3.5489,-3.5489,-3.5489,-3.5489,-3.5489,-3.5489,-3.5489,-3.5489,-3.5459,-3.537,-3.4893,-3.4563,-3.4369,-3.323,-3.2595,-3.2496,-3.2946,-3.2635,-3.15,-3.2536,-3.2293,-3.0511,-3.0497,-3.0495,-3.0478,-2.9058,-2.8552,0.0,-2.7842,0.0,0.0,0.0,0.0,0.0,0.0,0.0,0.0,-3.1664,-3.2273,-3.1529,-3.3389,-3.437,-3.3744,-3.4252,-3.4945,-3.565,-3.5836,-3.6214,-3.6992,-3.7103,-3.7397,-3.8025,-3.8095,-3.8092,-3.8117,-3.8092,-3.8358,-3.8951,-3.8966,-3.8668,-3.8241,-3.8141,-3.8409,-3.8978,-3.9043,-3.9394,-3.9952,-4.0113,-4.0113,-4.0113,-4.0113,-4.0113,-4.0113,-4.0113,-4.0113,-4.0113,-4.0113,-4.0113,-4.0113,-4.0113,-4.0113,-4.0113,-4.0113,-4.0113,-4.0113,-4.0113,-4.0113,-3.5489,-3.5489,-3.5489,-3.5489,-3.5489,-3.5489,-3.5489,-3.5489,-3.5489,-3.5429,-3.531,-3.5175,-3.513,-3.513,-3.525,-3.531,-3.531,-3.5444,-3.5489,-3.5489,-3.5489,-3.5489,-3.5489,-3.5489,-3.5489,-3.5489,-3.5489,-3.5489,-3.5489,-3.5489,-3.5489,-3.5489,-3.5489,-3.5489,-3.5489,0.0,0.0,0.0,-3.5085,-3.4786,-3.3724,-3.344,-3.2796,-3.1741,-3.1305,0.0,-3.1405,-3.1636,-3.1821,-3.1898,-3.2442,0.0,0.0,0.0,0.0,0.0,0.0,0.0,0.0,0.0,0.0,0.0,-3.1836,-3.1481,-3.1089,-3.2882,-3.3778,-3.3102,-3.4455,-3.5329,-3.5194,-3.5295,-3.5684,-3.6468,-3.7094,-3.7753,-3.8497,-3.9075,-3.9522,-3.964,-3.9664,-3.9653,-3.9601,-3.9679,-3.9705,-3.9782,-3.9876,-3.9825,-3.9653,-3.9575,-3.9722,-3.985,-3.9808,-3.9901,-4.007,-4.0113,-4.0113,-4.0113,-4.0113,-4.0113,-4.0113,-4.0113,-4.0113,-4.0113,-4.0113,-4.0113,-4.0113,-4.0113,-4.0113,-4.0113,-4.0113,-4.0113,-4.0113,-4.0113,-4.0113,-3.5489,0.0,-3.5489,-3.5489,0.0,-3.5489,-3.5489,-3.5489,-3.5489,-3.5489,-3.5489,-3.5489,-3.5489,-3.5489,-3.5489,-3.5489,-3.5489,-3.5489,-3.5489,-3.5489,-3.5489,-3.5489,-3.5489,-3.5489,-3.5489,-3.5489,-3.5489,-3.5489,-3.5489,-3.5489,-3.5489,-3.5489,-3.5489,-3.5489,-3.5489,-3.5489,-3.534,-3.4996,-3.5325,-3.5175,-3.4502,-3.4158,-3.335,-3.2048,0.0,0.0,0.0,0.0,0.0,0.0,0.0,0.0,0.0,0.0,0.0,-3.2256,-3.1579,-3.1495,-3.2205,-3.2273,-3.2747,-3.3829,-3.3947,-3.3626,-3.2882,-3.4201,-3.4912,-3.4535,-3.5177,-3.5616,-3.5616,-3.5616,-3.5926,-3.6694,-3.7151,-3.777,-3.8802,-3.9309,-3.9681,-4.0045,-4.0113,-4.0113,-4.0113,-4.0113,-4.0113,-4.0113,-4.0113,-4.0113,-4.0113,-4.0113,-4.0113,-4.0113,-4.0113,-4.0113,-4.0113,-4.0113,-4.0113,-4.0113,-4.0113,-4.0113,-4.0113,-4.0113,-4.0113,-4.0113,-4.0113,-4.0113,-4.0113,-4.0113,-4.0113,-4.0113,-4.0113,-4.0113,-4.0113,-4.0113,-4.0113,-3.5489,-3.5489,-3.5489,-3.5489,-3.5489,-3.5489,-3.5489,-3.5489,0.0,0.0,0.0,-3.5489,-3.5489,-3.5489,-3.5489,-3.5489,-3.5489,-3.5489,-3.5489,-3.5489,-3.5489,-3.5489,-3.5489,-3.5489,-3.5489,-3.5489,-3.5489,-3.5489,-3.5489,-3.5489,-3.5489,-3.5489,-3.5489,-3.5489,-3.5489,-3.5489,-3.5489,-3.5489,-3.5489,-3.5444,-3.531,-3.4771,-3.3919,-3.2706,-3.261,-3.2064,-3.0991,-3.1495,-3.1785,-3.1793,-3.1901,-3.2239,-3.2831,-3.2886,-3.3136,-3.3728,-3.3774,-3.4049,-3.4658,-3.4692,-3.4962,-3.5566,-3.5616,-3.5346,-3.4726,-3.5245,-3.5616,-3.5616,-3.5616,-3.565,-3.5785,-3.5842,-3.6197,-3.7083,-3.7202,-3.776,-3.8996,-3.9191,-3.9503,-3.9977,-4.0113,-4.0113,-4.0113,-4.0113,-4.0113,-4.0113,-4.0113,-4.0113,-4.0113,-4.0113,-4.0113,-4.0113,-4.0113,-4.0113,-4.0113,-4.0113,-4.0113,-4.0113,-4.0113,-4.0113,-4.0113,-4.0113,-4.0113,-4.0113,-4.0113,-4.0113,-4.0113,-4.0113,-4.0113,-4.0113,-4.0113,-4.0113,-4.0113,-4.0113,-4.0113,-3.5489,-3.5489,-3.5489,-3.5489,-3.5489,-3.5489,-3.5489,-3.5489,-3.5504,-3.5504,-3.5489,-3.5489,-3.5489,-3.5489,-3.5489,-3.5489,-3.5489,-3.5489,-3.5489,0.0,-3.5489,-3.5489,-3.5489,-3.5489,-3.5489,-3.5489,-3.5489,-3.5489,-3.5489,-3.5489,-3.5489,-3.5489,-3.5489,-3.5489,-3.5489,-3.5489,-3.5489,-3.5489,-3.5489,-3.522,-3.4668,-3.4563,-3.4128,-3.338,-3.2811,-3.2719,-3.3061,-3.3168,-3.3541,-3.4018,-3.4658,-3.5025,-3.5126,-3.5115,-3.5177,-3.5278,-3.5278,-3.5329,-3.543,-3.543,-3.5481,-3.5583,-3.5616,-3.5549,-3.5464,-3.5532,-3.5616,-3.5616,-3.5616,-3.591,-3.6502,-3.6609,-3.7151,-3.8437,-3.8667,-3.9029,-3.9808,-3.991,-3.9943,-4.0079,-4.0113,-4.0113,-4.0113,-4.0113,-4.0113,-4.0113,-4.0113,-4.0113,-4.0113,-4.0113,-4.0113,-4.0113,-4.0113,-4.0113,-4.0113,-4.0113,-4.0113,-4.0113,-4.0113,-4.0113,-4.0113,-4.0113,-4.0113,-4.0113,-4.0113,-4.0113,-4.0113,-4.0113,-4.0113,-4.0113,-4.0113,-4.0113,-4.0113,-4.0113,-4.0113,-3.5489,-3.5549,-3.5893,-3.6043,-3.6073,-3.6387,-3.6537,-3.6507,-3.6178,-3.5833,-3.5504,-3.5489,-3.5489,-3.5489,-3.5489,-3.5489,-3.5489,-3.5489,-3.5489,-3.5489,-3.5489,-3.5489,-3.5489,-3.5489,-3.5489,-3.5489,-3.5489,-3.5489,-3.5489,-3.5489,-3.5489,-3.5489,-3.5489,-3.5489,-3.5489,-3.5489,-3.5489,-3.5489,-3.5489,-3.5355,-3.5055,-3.504,-3.4711,-3.4038,-3.338,-3.2998,-3.2884,-3.2964,-3.3315,-3.3922,-3.4633,-3.5182,-3.5583,-3.6011,-3.6265,-3.6265,-3.6637,-3.6857,-3.6834,-3.6485,-3.6062,-3.5633,-3.5616,-3.5616,-3.5616,-3.5616,-3.5616,-3.5616,-3.5616,-3.5926,-3.6711,-3.6812,-3.7405,-3.8853,-3.8988,-3.9292,-3.996,-4.0113,-4.0113,-4.0113,-4.0113,-4.0113,-4.0113,-4.0113,-4.0113,-4.0113,-4.0113,-4.0113,-4.0113,-4.0113,-4.0113,-4.0113,-4.0113,-4.0113,-4.0113,-4.0113,-4.0113,-4.0113,-4.0113,-4.0113,-4.0113,-4.0113,-4.0113,-4.0113,-4.0113,-4.0113,-4.0113,-4.0113,-4.0113,-4.0113,-4.0113,-4.0113,-4.0113,-4.0113,-4.0113,-3.5489,-3.5549,-3.6207,-3.6585,-3.6731,-3.721,-3.7404,-3.736,-3.6896,-3.6327,-3.5759,-3.5579,-3.5579,-3.5714,-3.5579,-3.5579,-3.5684,-3.5579,-3.5654,-3.5908,-3.5789,-3.5804,-3.5923,-3.5953,-3.5863,-3.5744,-3.5729,-3.5654,-3.5519,-3.5489,-3.5489,-3.5489,-3.5489,-3.5489,-3.5489,-3.5489,-3.5489,-3.5489,-3.5489,-3.5489,-3.5489,-3.5489,-3.525,-3.4726,-3.4233,-3.3758,-3.3398,-3.3425,-3.3767,-3.4478,-3.4986,-3.5537,-3.609,-3.6705,-3.7049,-3.7094,-3.7584,-3.7898,-3.7872,-3.7364,-3.6772,-3.6174,-3.5955,-3.587,-3.5853,-3.5701,-3.5616,-3.5616,-3.5785,-3.6214,-3.6941,-3.7246,-3.7828,-3.9073,-3.9266,-3.9478,-3.9994,-4.0113,-4.0113,-4.0113,-4.0113,-4.0113,-4.0113,-4.0113,-4.0113,-4.0113,-4.0113,-4.0113,-4.0113,-4.0113,-4.0113,-4.0113,-4.0113,-4.0113,-4.0113,-4.0113,-4.0113,-4.0113,-4.0113,-4.0113,-4.0113,-4.0113,-4.0113,-4.0113,-4.0113,-4.0113,-4.0113,-4.0113,-4.0113,-4.0113,-4.0113,-4.0113,-4.0113,-4.0113,-4.0113,-3.5519,-3.5594,-3.6237,-3.6821,-3.7345,-3.7419,-3.7464,-3.7449,-3.7345,-3.6971,-3.6462,-3.5774,-3.5848,-3.6267,-3.5774,-3.5833,-3.6297,-3.5774,-3.6118,-3.7045,-3.6656,-3.6686,-3.7105,-3.718,-3.6941,-3.6417,-3.6342,-3.6058,-3.5579,-3.5534,-3.5504,-3.5489,-3.5489,-3.5504,-3.5504,-3.5504,-3.5489,-3.5489,-3.5489,-3.5489,-3.5489,-3.5489,-3.5474,-3.5429,-3.534,-3.5645,-3.6001,-3.6314,-3.6657,-3.7396,-3.7469,-3.7601,-3.7645,-3.777,-3.7804,-3.7804,-3.7905,-3.7898,-3.7905,-3.7838,-3.7753,-3.7669,-3.7026,-3.6677,-3.6626,-3.6028,-3.5616,-3.5735,-3.6282,-3.6948,-3.7719,-3.8328,-3.8971,-3.9757,-3.9926,-4.0028,-4.0079,-4.0113,-4.0113,-4.0113,-4.0113,-4.0113,-4.0113,-4.0113,-4.0113,-4.0113,-4.0113,-4.0113,-4.0113,-4.0113,-4.0113,-4.0113,-4.0113,-4.0113,-4.0113,-4.0113,-4.0113,-4.0113,-4.0113,-4.0113,-4.0113,-4.0113,-4.0113,-4.0113,-4.0113,-4.0113,-4.0113,-4.0113,-4.0113,-4.0113,-4.0113,-4.0113,-4.0113,-4.0113,-4.0113,-3.5848,-3.5654,-3.703,-3.8003,-3.8521,-3.8601,-3.8601,-3.8571,-3.8153,-3.8063,-3.8063,-3.7105,-3.6372,-3.5923,-3.6013,-3.6252,-3.6495,-3.6207,-3.6552,-3.7345,-3.715,-3.6971,-3.6866,-3.6866,-3.6537,-3.5998,-3.6297,-3.6342,-3.6133,-3.6088,-3.6088,-3.6028,-3.5714,-3.5699,-3.6013,-3.5699,-3.5489,-3.5489,-3.5489,-3.5489,-3.5489,-3.5489,-3.5489,-3.5489,-3.5489,-3.5416,-3.5506,-3.6209,-3.6678,-3.6685,-3.7418,-3.7898,-3.7898,-3.8311,-3.8548,-3.8565,-3.8954,-3.9005,-3.8565,-3.8548,-3.8362,-3.7956,-3.7635,-3.728,-3.688,-3.6874,-3.6783,-3.6434,-3.662,-3.7117,-3.7855,-3.8565,-3.9317,-3.9926,-4.0113,-4.0113,-4.0113,-4.0113,-4.0113,-4.0113,-4.0113,-4.0113,-4.0113,-4.0113,-4.0113,-4.0113,-4.0113,-4.0113,-4.0113,-4.0113,-4.0113,-4.0113,-4.0113,-4.0113,-4.0113,-4.0113,-4.0113,-4.0113,-4.0113,-4.0113,-4.0113,-4.0113,-4.0113,-4.0113,-4.0113,-4.0113,-4.0113,-4.0113,-4.0113,-4.0113,-4.0113,-4.0113,-4.0113,-4.0113,-4.0113,-3.6103,-3.5833,-3.7404,-3.8631,-3.9373,-3.9388,-3.9388,-3.9328,-3.8886,-3.8871,-3.9035,-3.8287,-3.724,-3.6207,-3.6537,-3.6836,-3.6971,-3.6821,-3.7075,-3.7599,-3.7509,-3.7165,-3.6761,-3.6746,-3.6492,-3.6148,-3.6342,-3.6435,-3.6297,-3.6626,-3.6656,-3.6462,-3.6178,-3.6178,-3.6402,-3.5983,-3.5684,-3.5504,-3.5489,-3.5489,-3.5489,-3.5489,-3.5489,-3.5489,-3.5489,-3.5347,-3.512,-3.611,-3.6657,-3.6588,-3.7625,-3.8285,-3.8514,-3.9005,-3.9292,-3.9351,-3.9791,-3.9876,-3.9326,-3.9292,-3.9056,-3.8565,-3.8345,-3.7889,-3.7364,-3.7601,-3.7533,-3.6907,-3.7151,-3.7686,-3.8142,-3.887,-3.9537,-4.0028,-4.0113,-4.0113,-4.0113,-4.0113,-4.0113,-4.0113,-4.0113,-4.0113,-4.0113,-4.0113,-4.0113,-4.0113,-4.0113,-4.0113,-4.0113,-4.0113,-4.0113,-4.0113,-4.0113,-4.0113,-4.0113,-4.0113,-4.0113,-4.0113,-4.0113,-4.0113,-4.0113,-4.0113,-4.0113,-4.0113,-4.0113,-4.0113,-4.0113,-4.0113,-4.0113,-4.0113,-4.0113,-4.0113,-4.0113,-4.0113,-4.0113,-3.6103,-3.5759,-3.6926,-3.8257,-3.9409,-3.9388,-3.9388,-3.9409,-3.9313,-3.9035,-3.8661,-3.9005,-3.8556,-3.7315,-3.73,-3.7704,-3.8123,-3.7629,-3.7734,-3.8257,-3.7734,-3.7419,-3.7375,-3.7375,-3.7285,-3.6956,-3.6641,-3.6222,-3.5789,-3.6776,-3.706,-3.6552,-3.6896,-3.6941,-3.6552,-3.6372,-3.6118,-3.5564,-3.5489,-3.5489,-3.5489,-3.5489,-3.5489,-3.5489,-3.5489,-3.5784,-3.6292,-3.6553,-3.7196,-3.8641,-3.8754,-3.9166,-3.986,-3.9994,-4.0011,-4.0028,-4.0062,-4.0096,-4.0011,-3.9994,-3.996,-3.9859,-3.9276,-3.8616,-3.7872,-3.799,-3.7736,-3.6914,-3.8082,-3.8853,-3.8988,-3.9537,-3.9977,-4.0062,-4.0113,-4.0113,-4.0113,-4.0113,-4.0113,-4.0113,-4.0113,-4.0113,-4.0113,-4.0113,-4.0113,-4.0113,-4.0113,-4.0113,-4.0113,-4.0113,-4.0113,-4.0113,-4.0113,-4.0113,-4.0113,-4.0113,-4.0113,-4.0113,-4.0113,-4.0113,-4.0113,-4.0113,-4.0113,-4.0113,-4.0113,-4.0113,-4.0113,-4.0113,-4.0113,-4.0113,-4.0113,-4.0113,-4.0113,-4.0113,-4.0113,-3.7195,-3.7389,-3.7838,-3.8586,-3.9379,-3.9388,-3.9388,-3.9388,-3.9388,-3.9275,-3.9035,-3.8856,-3.8482,-3.8003,-3.7599,-3.7764,-3.8317,-3.8138,-3.8392,-3.8916,-3.8347,-3.7823,-3.7389,-3.7015,-3.6567,-3.6252,-3.6387,-3.6582,-3.6776,-3.7225,-3.73,-3.6985,-3.6447,-3.6267,-3.6372,-3.6058,-3.5729,-3.5534,-3.5489,-3.5489,-3.5489,-3.5489,-3.5489,-3.5489,-3.5489,-3.5619,-3.5894,-3.6337,-3.7114,-3.8161,-3.8619,-3.9262,-3.9995,-4.0113,-4.0113,-4.0113,-4.0113,-4.0113,-4.0113,-4.0113,-4.0113,-4.0079,-3.9876,-3.9182,-3.8362,-3.8684,-3.8802,-3.8058,-3.8819,-3.9656,-3.974,-3.996,-4.0113,-4.0113,-4.0113,-4.0113,-4.0113,-4.0113,-4.0113,-4.0113,-4.0113,-4.0113,-4.0113,-4.0113,-4.0113,-4.0113,-4.0113,-4.0113,-4.0113,-4.0113,-4.0113,-4.0113,-4.0113,-4.0113,-4.0113,-4.0113,-4.0113,-4.0113,-4.0113,-4.0113,-4.0113,-4.0113,-4.0113,-4.0113,-4.0113,-4.0113,-4.0113,-4.0113,-4.0113,-4.0113,-4.0113,-4.0113,-4.0113,-4.0113,-4.0113,-3.73,-3.8018,-3.8078,-3.8601,-3.9343,-3.9388,-3.9388,-3.9388,-3.9388,-3.929,-3.902,-3.8586,-3.8272,-3.8033,-3.7599,-3.7764,-3.8332,-3.8377,-3.8437,-3.8452,-3.8182,-3.7614,-3.6836,-3.6372,-3.6178,-3.6237,-3.6791,-3.706,-3.6851,-3.721,-3.73,-3.7045,-3.6387,-3.6222,-3.6372,-3.6028,-3.5759,-3.5564,-3.5489,-3.5489,-3.5489,-3.5489,-3.5489,-3.5489,-3.5489,-3.5489,-3.5489,-3.5975,-3.66,-3.7397,-3.8117,-3.9005,-3.9952,-4.0113,-4.0113,-4.0113,-4.0113,-4.0113,-4.0113,-4.0113,-4.0113,-4.0113,-4.0079,-3.9554,-3.8497,-3.9402,-3.9368,-3.8853,-3.9309,-4.0113,-4.0113,-4.0096,-4.0113,-4.0113,-4.0113,-4.0113,-4.0113,-4.0113,-4.0113,-4.0113,-4.0113,-4.0113,-4.0113,-4.0113,-4.0113,-4.0113,-4.0113,-4.0113,-4.0113,-4.0113,-4.0113,-4.0113,-4.0113,-4.0113,-4.0113,-4.0113,-4.0113,-4.0113,-4.0113,-4.0113,-4.0113,-4.0113,-4.0113,-4.0113,-4.0096,-4.0096,-4.0096,-4.0096,-4.0079,-4.0062,-4.0113,-4.0113,-4.0113,-4.0113,-4.0113,-3.6297,-3.7345,-3.7404,-3.8153,-3.9119,-3.9179,-3.9298,-3.9224,-3.9239,-3.8886,-3.8407,-3.8302,-3.7883,-3.7479,-3.724,-3.7644,-3.8018,-3.8123,-3.7808,-3.715,-3.7345,-3.6926,-3.5968,-3.5893,-3.6297,-3.712,-3.7943,-3.7315,-3.5893,-3.6776,-3.706,-3.6716,-3.6926,-3.6716,-3.6447,-3.6297,-3.6073,-3.5639,-3.5489,-3.5489,-3.5489,-3.5489,-3.5489,-3.5489,-3.5489,-3.5489,-3.5489,-3.5537,-3.5943,-3.6676,-3.744,-3.8513,-3.985,-4.0113,-4.0113,-4.0113,-4.0113,-4.0113,-4.0113,-4.0113,-4.0113,-4.0113,-4.0113,-3.9732,-3.9165,-3.9622,-3.9757,-3.9157,-3.9588,-4.0113,-4.0113,-4.0113,-4.0113,-4.0113,-4.0113,-4.0113,-4.0113,-4.0113,-4.0113,-4.0113,-4.0113,-4.0113,-4.0113,-4.0113,-4.0113,-4.0113,-4.0113,-4.0113,-4.0113,-4.0113,-4.0113,-4.0113,-4.0113,-4.0113,-4.0113,-4.0113,-4.0113,-4.0113,-4.0113,-4.0113,-4.0113,-4.0113,-4.0113,-4.0079,-3.9808,-3.9791,-3.969,-3.969,-3.9706,-3.9723,-3.9876,-4.0028,-4.0113,-4.0113,-4.0113,-3.6417,-3.6821,-3.724,-3.7629,-3.8033,-3.8048,-3.8033,-3.8033,-3.8033,-3.7898,-3.7659,-3.727,-3.6989,-3.6701,-3.6327,-3.6237,-3.6432,-3.6881,-3.7554,-3.8197,-3.7749,-3.7434,-3.736,-3.7,-3.6791,-3.6881,-3.7404,-3.721,-3.6417,-3.6567,-3.6641,-3.6507,-3.6222,-3.5998,-3.5848,-3.5804,-3.5669,-3.5534,-3.5489,-3.5489,-3.5489,-3.5489,-3.5489,-3.5489,-3.5489,-3.5489,-3.5489,-3.5489,-3.5863,-3.6554,-3.7368,-3.8486,-3.9756,-4.0113,-4.0113,-4.0113,-4.0113,-4.0113,-4.0113,-4.0113,-4.0113,-4.0113,-4.0113,-3.9757,-3.9191,-3.969,-3.9757,-3.9216,-3.9656,-4.0113,-4.0113,-4.0113,-4.0113,-4.0113,-4.0113,-4.0113,-4.0113,-4.0113,-4.0113,-4.0113,-4.0113,-4.0113,-4.0113,-4.0113,-4.0113,-4.0113,-4.0113,-4.0113,-4.0113,-4.0113,-4.0113,-4.0113,-4.0113,-4.0113,-4.0113,-4.0113,-4.0113,-4.0113,-4.0113,-4.0113,-4.0113,-4.0113,-4.0113,-4.0011,-3.974,-3.9503,-3.936,-3.9343,-3.9411,-3.9368,-3.9419,-3.9673,-3.9994,-4.0113,-4.0113,-3.6267,-3.6555,-3.6911,-3.721,-3.7389,-3.7404,-3.7404,-3.7404,-3.7404,-3.7285,-3.7,-3.6671,-3.6342,-3.6088,-3.5669,-3.5669,-3.5863,-3.6073,-3.7045,-3.8377,-3.7883,-3.7659,-3.8018,-3.7898,-3.73,-3.6765,-3.712,-3.6956,-3.6148,-3.6118,-3.6118,-3.6028,-3.5699,-3.5519,-3.5489,-3.5489,-3.5489,-3.5489,-3.5489,-3.5489,-3.5489,-3.5489,-3.5489,-3.5489,-3.5489,-3.5489,-3.5489,-3.5489,-3.5701,-3.629,-3.7205,-3.8513,-3.9901,-4.0113,-4.0113,-4.0113,-4.0113,-4.0113,-4.0113,-4.0113,-4.0113,-4.0113,-4.0113,-3.9926,-3.9588,-3.991,-3.9825,-3.9605,-3.9842,-4.0113,-4.0113,-4.0113,-4.0113,-4.0113,-4.0113,-4.0113,-4.0113,-4.0113,-4.0113,-4.0113,-4.0113,-4.0113,-4.0113,-4.0113,-4.0113,-4.0113,-4.0113,-4.0113,-4.0113,-4.0113,-4.0113,-4.0113,-4.0113,-4.0113,-4.0113,-4.0113,-4.0113,-4.0113,-4.0113,-4.0113,-4.0113,-4.0113,-4.0113,-4.0079,-3.9876,-3.952,-3.9368,-3.9343,-3.9377,-3.9208,-3.9073,-3.9673,-4.0113,-4.0113,-4.0113,-3.5863,-3.6402,-3.6432,-3.6731,-3.7165,-3.718,-3.715,-3.7225,-3.721,-3.6896,-3.6477,-3.6372,-3.6073,-3.5624,-3.5519,-3.5774,-3.6222,-3.5818,-3.6252,-3.718,-3.7315,-3.7404,-3.7689,-3.8093,-3.7614,-3.6716,-3.7045,-3.6656,-3.5654,-3.5609,-3.5504,-3.5564,-3.5549,-3.5489,-3.5489,-3.5489,-3.5489,-3.5489,-3.5489,-3.5489,-3.5489,-3.5489,-3.5489,-3.5489,-3.5489,-3.5489,-3.5489,-3.5489,-3.5554,-3.5829,-3.7145,-3.8486,-3.9756,-4.0113,-4.0113,-4.0113,-4.0113,-4.0113,-4.0113,-4.0113,-4.0113,-4.0113,-4.0113,-4.0096,-4.0028,-4.0028,-4.0062,-3.9994,-4.0062,-4.0113,-4.0113,-4.0113,-4.0113,-4.0113,-4.0113,-4.0113,-4.0113,-4.0113,-4.0113,-4.0113,-4.0113,-4.0113,-4.0113,-4.0113,-4.0113,-4.0113,-4.0113,-4.0113,-4.0113,-4.0113,-4.0113,-4.0113,-4.0113,-4.0113,-4.0113,-4.0113,-4.0062,-3.9774,-3.9893,-4.0113,-4.0113,-4.0113,-4.0113,-4.0079,-3.991,-3.9588,-3.9216,-3.9039,-3.8954,-3.8785,-3.9073,-3.9808,-4.0096,-4.0096,-4.0113,-3.5609,-3.5759,-3.5774,-3.5863,-3.5998,-3.6013,-3.6013,-3.5998,-3.6043,-3.5998,-3.5789,-3.5759,-3.5699,-3.5519,-3.5489,-3.5609,-3.5714,-3.5594,-3.5893,-3.6611,-3.6731,-3.733,-3.7973,-3.8257,-3.7719,-3.6671,-3.6656,-3.6312,-3.5549,-3.5489,-3.5489,-3.5489,-3.5489,-3.5489,-3.5489,-3.5489,-3.5489,-3.5489,-3.5489,-3.5489,-3.5489,-3.5489,-3.5489,-3.5489,-3.5489,-3.5489,-3.5489,-3.5489,-3.6116,-3.7131,-3.7531,-3.8502,-3.985,-4.007,-4.0113,-4.0113,-4.0113,-4.0113,-4.0113,-4.0113,-4.0113,-4.0113,-4.0113,-4.0113,-4.0113,-4.0113,-4.0113,-4.0113,-4.0113,-4.0113,-4.0113,-4.0113,-4.0113,-4.0113,-4.0113,-4.0113,-4.0113,-4.0113,-4.0113,-4.0113,-4.0113,-4.0113,-4.0113,-4.0113,-4.0113,-4.0113,-4.0113,-4.0113,-4.0113,-4.0113,-4.0113,-4.0113,-4.0113,-4.0113,-4.0113,-4.0113,-3.9926,-3.9462,-3.9639,-4.0113,-4.0113,-4.0113,-4.0113,-4.0096,-3.9774,-3.9453,-3.8734,-3.8261,-3.8227,-3.8531,-3.8971,-3.9622,-3.996,-4.0079,-4.0096,-3.5489,-3.5489,-3.5489,-3.5489,-3.5489,-3.5489,-3.5489,-3.5489,-3.5489,-3.5489,-3.5489,-3.5489,-3.5489,-3.5489,-3.5489,-3.5489,-3.5489,-3.5489,-3.5729,-3.6043,-3.6372,-3.7045,-3.7764,-3.7958,-3.7434,-3.6596,-3.6492,-3.6118,-3.5594,-3.5489,-3.5489,-3.5489,-3.5489,-3.5489,-3.5489,-3.5489,-3.5489,-3.5489,-3.5489,-3.5489,-3.5489,-3.5489,-3.5489,-3.5489,-3.5489,-3.5489,-3.5489,-3.5489,-3.607,-3.7086,-3.7632,-3.8346,-3.9463,-3.9927,-4.007,-4.0113,-4.0113,-4.0113,-4.0113,-4.0113,-4.0113,-4.0113,-4.0113,-4.0113,-4.0113,-4.0113,-4.0113,-4.0113,-4.0113,-4.0113,-4.0113,-4.0113,-4.0113,-4.0113,-4.0113,-4.0113,-4.0113,-4.0113,-4.0113,-4.0113,-4.0113,-4.0113,-4.0113,-4.0113,-4.0113,-4.0113,-4.0113,-4.0113,-4.0113,-4.0113,-4.0113,-4.0113,-4.0113,-4.0113,-4.0113,-4.0113,-4.0113,-3.9656,-3.9292,-3.9825,-4.0011,-4.0028,-4.0062,-3.9977,-3.9656,-3.9208,-3.8565,-3.821,-3.8531,-3.8853,-3.9106,-3.9309,-3.9673,-3.9926,-3.996,-3.5489,-3.5489,-3.5489,-3.5489,-3.5489,-3.5489,-3.5489,-3.5489,-3.5489,-3.5489,-3.5489,-3.5489,-3.5489,-3.5489,-3.5489,-3.5489,-3.5489,-3.5489,-3.5504,-3.5729,-3.6073,-3.6641,-3.703,-3.7255,-3.6911,-3.6372,-3.6372,-3.6043,-3.5609,-3.5489,-3.5489,-3.5489,-3.5489,-3.5489,-3.5489,-3.5489,-3.5489,-3.5489,-3.5489,-3.5489,-3.5489,-3.5489,-3.5489,-3.5489,-3.5489,-3.5489,-3.5489,-3.5522,-3.5831,-3.6446,-3.7308,-3.8177,-3.8924,-3.9662,-4.0045,-4.0113,-4.0113,-4.0113,-4.0113,-4.0113,-4.0113,-4.0113,-4.0113,-4.0113,-4.0113,-4.0113,-4.0113,-4.0113,-4.0113,-4.0113,-4.0113,-4.0113,-4.0113,-4.0113,-4.0113,-4.0113,-4.0113,-4.0113,-4.0113,-4.0113,-4.0113,-4.0113,-4.0113,-4.0113,-4.0113,-4.0113,-4.0113,-4.0113,-4.0113,-4.0113,-4.0113,-4.0113,-4.0113,-4.0113,-4.0113,-4.0113,-4.0113,-3.9926,-3.9326,-3.9411,-3.9757,-3.9859,-3.996,-3.9893,-3.9673,-3.9242,-3.8667,-3.8633,-3.892,-3.8937,-3.9039,-3.9208,-3.9411,-3.9588,-3.9673,-3.5489,-3.5489,-3.5489,-3.5489,-3.5489,-3.5489,-3.5489,-3.5489,-3.5489,-3.5489,-3.5489,-3.5489,-3.5489,-3.5489,-3.5489,-3.5489,-3.5489,-3.5489,-3.5489,-3.5534,-3.5609,-3.5759,-3.6058,-3.6417,-3.6327,-3.5893,-3.5729,-3.5639,-3.5504,-3.5489,-3.5489,-3.5489,-3.5489,-3.5489,-3.5489,-3.5489,-3.5489,-3.5489,-3.5489,-3.5489,-3.5489,-3.5489,-3.5489,-3.5489,-3.5489,-3.5489,-3.5489,-3.5489,-3.5587,-3.6022,-3.7025,-3.8121,-3.8799,-3.9636,-4.007,-4.0113,-4.0113,-4.0113,-4.0113,-4.0113,-4.0113,-4.0113,-4.0113,-4.0113,-4.0113,-4.0113,-4.0113,-4.0113,-4.0113,-4.0113,-4.0113,-4.0113,-4.0113,-4.0113,-4.0113,-4.0113,-4.0113,-4.0113,-4.0113,-4.0113,-4.0113,-4.0113,-4.0113,-4.0113,-4.0113,-4.0113,-4.0113,-4.0113,-4.0113,-4.0113,-4.0113,-4.0113,-4.0113,-4.0113,-4.0113,-4.0062,-3.9977,-3.9859,-3.9326,-3.8886,-3.9225,-3.9428,-3.9445,-3.9597,-3.9732,-3.9225,-3.8497,-3.8988,-3.9283,-3.9123,-3.887,-3.8971,-3.9063,-3.9233,-3.9436,-3.5489,-3.5489,-3.5489,-3.5489,-3.5489,-3.5489,-3.5489,-3.5489,-3.5489,-3.5489,-3.5489,-3.5489,-3.5489,-3.5489,-3.5489,-3.5489,-3.5489,-3.5489,-3.5489,-3.5504,-3.5519,-3.5504,-3.5534,-3.5804,-3.5818,-3.5504,-3.5504,-3.5489,-3.5489,-3.5489,-3.5489,-3.5489,-3.5489,-3.5489,-3.5489,-3.5489,-3.5489,-3.5489,-3.5489,-3.5489,-3.5489,-3.5489,-3.5489,-3.5489,-3.5489,-3.5489,-3.5489,-3.5489,-3.5701,-3.618,-3.7145,-3.795,-3.8497,-3.9437,-4.0045,-4.0113,-4.0113,-4.0113,-4.0113,-4.0113,-4.0113,-4.0113,-4.0113,-4.0113,-4.0113,-4.0113,-4.0113,-4.0113,-4.0113,-4.0113,-4.0113,-4.0113,-4.0113,-4.0113,-4.0113,-4.0113,-4.0113,-4.0113,-4.0113,-4.0113,-4.0113,-4.0113,-4.0113,-4.0113,-4.0113,-4.0113,-4.0113,-4.0113,-4.0113,-4.0113,-4.0113,-4.0113,-4.0113,-4.0113,-4.0113,-4.0011,-3.9842,-3.9588,-3.914,-3.8684,-3.8548,-3.8717,-3.8836,-3.892,-3.8937,-3.8734,-3.8278,-3.8903,-3.8996,-3.8244,-3.7973,-3.8345,-3.8514,-3.8379,-3.8759,-3.5489,-3.5489,-3.5489,-3.5489,-3.5489,-3.5489,-3.5489,-3.5489,-3.5489,-3.5489,-3.5489,-3.5489,-3.5489,-3.5489,-3.5489,-3.5489,-3.5489,-3.5489,-3.5489,-3.5489,-3.5489,-3.5489,-3.5519,-3.5549,-3.5579,-3.5504,-3.5489,-3.5489,-3.5489,-3.5489,-3.5489,-3.5489,-3.5489,-3.5489,-3.5489,-3.5489,-3.5489,-3.5489,-3.5489,-3.5489,-3.5489,-3.5489,-3.5489,-3.5489,-3.5489,-3.5489,-3.5489,-3.5522,-3.575,-3.6415,-3.7308,-3.7632,-3.8035,-3.9146,-4.0113,-4.0113,-4.0113,-4.0113,-4.0113,-4.0113,-4.0113,-4.0113,-4.0113,-4.0113,-4.0113,-4.0113,-4.0113,-4.0113,-4.0113,-4.0113,-4.0113,-4.0113,-4.0113,-4.0113,-4.0113,-4.0113,-4.0113,-4.0113,-4.0113,-4.0113,-4.0113,-4.0113,-4.0113,-4.0113,-4.0113,-4.0113,-4.0113,-4.0113,-4.0113,-4.0113,-4.0113,-4.0113,-4.0113,-4.0113,-4.0113,-4.0011,-3.9842,-3.9225,-3.8853,-3.8294,-3.7838,-3.7533,-3.7584,-3.7872,-3.7872,-3.7804,-3.7872,-3.8159,-3.7922,-3.7144,-3.7178,-3.7702,-3.7702,-3.7499,-3.8007,-3.5489,-3.5489,-3.5489,-3.5489,-3.5489,-3.5489,-3.5489,-3.5489,-3.5489,-3.5489,-3.5489,-3.5489,-3.5489,-3.5489,-3.5489,-3.5489,-3.5489,-3.5489,-3.5489,-3.5489,-3.5489,-3.5489,-3.5489,-3.5489,-3.5489,-3.5489,-3.5489,-3.5489,-3.5489,-3.5489,-3.5489,-3.5489,-3.5489,-3.5489,-3.5489,-3.5489,-3.5489,-3.5489,-3.5489,-3.5489,-3.5489,-3.5489,-3.5489,-3.5489,-3.5489,-3.5489,-3.5489,-3.5489,-3.5554,-3.5814,-3.7071,-3.7279,-3.7499,-3.8924,-3.9825,-3.9995,-3.9978,-3.9952,-4.0087,-4.0113,-4.0113,-4.0113,-4.0113,-4.0113,-4.0113,-4.0113,-4.0113,-4.0113,-4.0113,-4.0113,-4.0113,-4.0113,-4.0113,-4.0113,-4.0113,-4.0113,-4.0113,-4.0113,-4.0113,-4.0113,-4.0113,-4.0113,-4.0113,-4.0113,-4.0113,-4.0113,-4.0113,-4.0113,-4.0113,-4.0113,-4.0113,-4.0113,-4.0113,-4.0113,-4.0113,-3.9994,-3.9774,-3.8954,-3.8379,-3.7635,-3.7077,-3.6309,-3.6248,-3.6789,-3.7195,-3.7347,-3.7432,-3.7442,-3.7381,-3.6992,-3.7043,-3.711,-3.7043,-3.6992,-3.7263,-3.4293,-3.4691,-3.4739,-3.5034,-3.5439,-3.5489,-3.5489,-3.5489,-3.5489,-3.5489,-3.5489,-3.5489,-3.5489,-3.5489,-3.5489,-3.5489,-3.5489,-3.5489,-3.5489,-3.5489,-3.5489,-3.5489,-3.5489,-3.5489,-3.5489,-3.5489,-3.5489,-3.5489,-3.5489,-3.5489,-3.5489,-3.5489,-3.5489,-3.5489,-3.5489,-3.5489,-3.5489,-3.5489,-3.5489,-3.5489,-3.5489,-3.5489,-3.5489,-3.5489,-3.5489,-3.5489,-3.5489,-3.5489,-3.5718,-3.6149,-3.6783,-3.71,-3.7528,-3.8104,-3.9102,-3.9368,-3.9516,-3.9714,-4.002,-4.0113,-4.0113,-4.0113,-4.0113,-4.0113,-4.0113,-4.0113,-4.0113,-4.0113,-4.0113,-4.0113,-4.0113,-4.0113,-4.0113,-4.0113,-4.0113,-4.0113,-4.0113,-4.0113,-4.0113,-4.0113,-4.0113,-4.0113,-4.0113,-4.0113,-4.0113,-4.0113,-4.0113,-4.0113,-4.0113,-4.0113,-4.0113,-4.0113,-4.0113,-4.0113,-4.0062,-3.9893,-3.952,-3.87,-3.8041,-3.7297,-3.6569,-3.5921,-3.5785,-3.6056,-3.6434,-3.6772,-3.6552,-3.6411,-3.6597,-3.6766,-3.6535,-3.6383,-3.6428,-3.6546,-3.6789,-3.3031,-3.3705,-3.3705,-3.4293,-3.51,-3.5198,-3.5311,-3.5457,-3.5489,-3.5489,-3.5489,-3.5489,-3.5489,-3.5489,-3.5489,-3.5489,-3.5489,-3.5489,-3.5489,-3.5489,-3.5489,-3.5489,-3.5489,-3.5489,-3.5489,-3.5489,-3.5489,-3.5489,-3.5489,-3.5489,-3.5489,-3.5489,-3.5489,-3.5489,-3.5489,-3.5489,-3.5489,-3.5489,-3.5489,-3.5489,-3.5489,-3.5489,-3.5489,-3.5489,-3.5489,-3.5489,-3.5489,-3.5489,-3.5765,-3.6149,-3.6523,-3.6813,-3.7249,-3.7456,-3.7905,-3.8553,-3.8799,-3.9246,-3.9636,-4.007,-4.0113,-4.0113,-4.0113,-4.0113,-4.0113,-4.0113,-4.0113,-4.0113,-4.0113,-4.0113,-4.0113,-4.0113,-4.0113,-4.0113,-4.0113,-4.0113,-4.0113,-4.0113,-4.0113,-4.0113,-4.0113,-4.0113,-4.0113,-4.0113,-4.0113,-4.0113,-4.0113,-4.0113,-4.0113,-4.0113,-4.0113,-4.0113,-4.0113,-4.0113,-4.0011,-3.9749,-3.9174,-3.8311,-3.7787,-3.7195,-3.6434,-3.5667,-3.5718,-3.5836,-3.5769,-3.6022,-3.5684,-3.5616,-3.5955,-3.6056,-3.5752,-3.5718,-3.5971,-3.6039,-3.614,-3.2664,-3.2749,-3.277,-3.331,-3.4095,-3.4177,-3.4691,-3.5359,-3.5392,-3.5489,-3.5392,-3.5489,-3.5489,-3.5489,-3.5489,-3.5489,-3.5489,-3.5489,-3.5489,-3.5489,-3.5489,-3.5489,-3.5489,-3.5489,-3.5489,-3.5489,-3.5489,-3.5489,-3.5489,-3.5489,-3.5489,-3.5489,-3.5489,-3.5489,-3.5489,-3.5489,-3.5489,-3.5489,-3.5489,-3.5489,-3.5489,-3.5489,-3.5489,-3.5489,-3.5489,-3.5489,-3.5489,-3.5489,-3.5604,-3.5701,-3.6275,-3.629,-3.6022,-3.643,-3.71,-3.7847,-3.8469,-3.8951,-3.9262,-3.9756,-4.0113,-4.0113,-4.0113,-4.0113,-4.0113,-4.0113,-4.0113,-4.0113,-4.0113,-4.0113,-4.0113,-4.0113,-4.0113,-4.0113,-4.0113,-4.0113,-4.0113,-4.0113,-4.0113,-4.0113,-4.0113,-4.0113,-4.0113,-4.0113,-4.0113,-4.0113,-4.0113,-4.0113,-4.0113,-4.0113,-4.0113,-4.0113,-4.0113,-4.0113,-3.9943,-3.9698,-3.914,-3.8176,-3.7686,-3.7263,-3.6755,-3.6191,-3.5802,-3.5853,-3.5752,-3.5667,-3.5616,-3.5616,-3.5616,-3.5616,-3.5616,-3.5616,-3.5633,-3.565,-3.5684,-3.1328,-3.1829,-3.1815,-3.2357,-3.3171,-3.3192,-3.3463,-3.3905,-3.4442,-3.4658,-3.4806,-3.5311,-3.5489,-3.5504,-3.5489,-3.5489,-3.5489,-3.5489,-3.5489,-3.5489,-3.5489,-3.5489,-3.5489,-3.5489,-3.5489,-3.5489,-3.5489,-3.5489,-3.5489,-3.5489,-3.5489,-3.5489,-3.5489,-3.5489,-3.5489,-3.5489,-3.5489,-3.5489,-3.5489,-3.5489,-3.5489,-3.5489,-3.5489,-3.5489,-3.5489,-3.5489,-3.5489,-3.5489,-3.5489,-3.5554,-3.5894,-3.5831,-3.5651,-3.5863,-3.6321,-3.7054,-3.7847,-3.8652,-3.9489,-3.9901,-4.0045,-4.0113,-4.0113,-4.0113,-4.0113,-4.0113,-4.0113,-4.0113,-4.0113,-4.0113,-4.0113,-4.0113,-4.0113,-4.0113,-4.0113,-4.0113,-4.0113,-4.0113,-4.0113,-4.0113,-4.0113,-4.0113,-4.0113,-4.0113,-4.0113,-4.0113,-4.0113,-4.0113,-4.0113,-4.0113,-4.0113,-4.0113,-4.0113,-4.0113,-3.9876,-3.9631,-3.9309,-3.8548,-3.8041,-3.7669,-3.7374,-3.6935,-3.6529,-3.6332,-3.6366,-3.6163,-3.5769,-3.5616,-3.5616,-3.5616,-3.5616,-3.5616,-3.5616,-3.5616,-3.565,-3.0203,-3.0833,-3.0833,-3.1402,-3.2236,-3.2236,-3.2429,-3.27,-3.3345,-3.3622,-3.3925,-3.4624,-3.5213,-3.5472,-3.5489,-3.5489,-3.5489,-3.5489,-3.5489,-3.5489,-3.5489,-3.5489,-3.5489,-3.5489,-3.5489,-3.5489,-3.5489,-3.5489,-3.5489,-3.5489,-3.5489,-3.5489,-3.5489,-3.5489,-3.5489,-3.5489,-3.5489,-3.5489,-3.5489,-3.5489,-3.5489,-3.5489,-3.5489,-3.5489,-3.5489,-3.5489,-3.5489,-3.5489,-3.5489,-3.5489,-3.5537,-3.5554,-3.5522,-3.5587,-3.6164,-3.6935,-3.769,-3.8585,-3.9506,-4.007,-4.0113,-4.0113,-4.0113,-4.0113,-4.0113,-4.0113,-4.0113,-4.0113,-4.0113,-4.0113,-4.0113,-4.0113,-4.0113,-4.0113,-4.0113,-4.0113,-4.0113,-4.0113,-4.0113,-4.0113,-4.0113,-4.0113,-4.0113,-4.0113,-4.0113,-4.0113,-4.0113,-4.0113,-4.0113,-4.0113,-4.0113,-4.0113,-4.0113,-4.0113,-3.9977,-3.9673,-3.9292,-3.8937,-3.8447,-3.8024,-3.7753,-3.755,-3.7263,-3.711,-3.6863,-3.6349,-3.5769,-3.5684,-3.5616,-3.5616,-3.5616,-3.5616,-3.5616,-3.5616,-3.5808,-2.9818,-2.9908,-2.9934,-3.0457,-3.1278,-3.1278,-3.1792,-3.2357,-3.2593,-3.2784,-3.3101,-3.3754,-3.4725,-3.5311,-3.5489,-3.5489,-3.5489,-3.5489,-3.5489,-3.5489,-3.5489,-3.5489,-3.5489,-3.5489,-3.5489,-3.5489,-3.5489,-3.5489,-3.5489,-3.5489,-3.5489,-3.5489,-3.5489,-3.5489,-3.5489,-3.5489,-3.5489,-3.5489,-3.5489,-3.5489,-3.5489,-3.5489,-3.5489,-3.5489,-3.5489,-3.5489,-3.5489,-3.5489,-3.5489,-3.5489,-3.5489,-3.5489,-3.5489,-3.5489,-3.6101,-3.7055,-3.7427,-3.8374,-3.9437,-4.002,-4.0113,-4.0113,-4.0113,-4.0113,-4.0113,-4.0113,-4.0113,-4.0113,-4.0113,-4.0113,-4.0113,-4.0113,-4.0113,-4.0113,-4.0113,-4.0113,-4.0113,-4.0113,-4.0113,-4.0113,-4.0113,-4.0113,-4.0113,-4.0113,-4.0113,-4.0113,-4.0113,-4.0113,-4.0113,-4.0113,-4.0113,-4.0113,-4.0113,-4.0113,-4.0113,-3.9876,-3.9656,-3.9334,-3.8886,-3.8447,-3.8075,-3.7905,-3.7652,-3.7161,-3.6761,-3.6265,-3.5853,-3.5701,-3.5616,-3.5616,-3.5616,-3.5616,-3.5616,-3.5616,-3.6028,-2.9779,-2.9779,-2.9779,-2.9998,-3.0343,-3.0355,-3.0533,-3.0945,-3.1513,-3.2451,-3.3429,-3.3891,-3.4576,-3.5279,-3.5489,-3.5489,-3.5489,-3.5489,-3.5489,-3.5489,-3.5489,-3.5489,-3.5489,-3.5489,-3.5489,-3.5489,-3.5489,-3.5489,-3.5489,-3.5489,-3.5489,-3.5489,-3.5489,-3.5489,-3.5489,-3.5489,-3.5489,-3.5489,-3.5489,-3.5489,-3.5489,-3.5489,-3.5489,-3.5489,-3.5489,-3.5489,-3.5489,-3.5489,-3.5489,-3.5489,-3.5489,-3.5489,-3.5489,-3.5489,-3.607,-3.698,-3.7144,-3.7975,-3.9193,-3.9808,-4.0096,-4.0113,-4.0113,-4.0113,-4.0113,-4.0113,-4.0113,-4.0113,-4.0113,-4.0113,-4.0113,-4.0113,-4.0113,-4.0113,-4.0113,-4.0113,-4.0113,-4.0113,-4.0113,-4.0113,-4.0113,-4.0113,-4.0113,-4.0113,-4.0113,-4.0113,-4.0113,-4.0113,-4.0113,-4.0113,-4.0113,-4.0113,-4.0113,-4.0113,-4.0113,-4.0045,-3.9994,-3.9656,-3.93,-3.886,-3.8396,-3.8007,-3.7702,-3.7178,-3.6728,-3.6315,-3.5977,-3.5718,-3.5616,-3.5616,-3.5616,-3.5616,-3.5616,-3.5633,-3.6214,-2.9779,-2.9779,-2.9779,-2.9779,-2.9779,-2.9779,-2.9779,-2.9895,-3.0482,-3.1659,-3.3171,-3.3463,-3.4143,-3.4887,-3.5439,-3.5489,-3.5489,-3.5489,-3.5489,-3.5489,-3.5489,-3.5489,-3.5489,-3.5489,-3.5489,-3.5489,-3.5489,-3.5489,-3.5489,-3.5489,-3.5489,-3.5489,-3.5489,-3.5489,-3.5489,-3.5489,-3.5489,-3.5489,-3.5489,-3.5489,-3.5489,-3.5489,-3.5489,-3.5489,-3.5489,-3.5489,-3.5489,-3.5489,-3.5489,-3.5489,-3.5489,-3.5489,-3.5489,-3.5572,-3.5911,-3.6384,-3.6918,-3.7571,-3.8674,-3.9568,-4.007,-4.0113,-4.0113,-4.0113,-4.0113,-4.0113,-4.0113,-4.0113,-4.0113,-4.0113,-4.0113,-4.0113,-4.0113,-4.0113,-4.0113,-4.0113,-4.0113,-4.0113,-4.0113,-4.0113,-4.0113,-4.0113,-4.0113,-4.0113,-4.0113,-4.0113,-4.0113,-4.0113,-4.0113,-4.0113,-4.0113,-4.0113,-4.0113,-4.0113,-4.0096,-4.0062,-4.0028,-3.9859,-3.9486,-3.9131,-3.87,-3.8227,-3.7652,-3.706,-3.666,-3.6349,-3.6045,-3.5684,-3.5616,-3.5616,-3.5616,-3.5616,-3.5769,-3.587,-3.6502,-2.9779,-2.9779,-2.9779,-2.9779,-2.9779,-2.9779,-2.9779,-2.9792,-2.9895,-3.0558,-3.1596,-3.2343,-3.3276,-3.4211,-3.51,-3.5457,-3.5489,-3.5489,-3.5489,-3.5489,-3.5489,-3.5489,-3.5489,-3.5489,-3.5489,-3.5489,-3.5489,-3.5489,-3.5489,-3.5489,-3.5489,-3.5489,-3.5489,-3.5489,-3.5489,-3.5489,-3.5489,-3.5489,-3.5489,-3.5489,-3.5489,-3.5489,-3.5489,-3.5489,-3.5489,-3.5489,-3.5489,-3.5489,-3.5489,-3.5489,-3.5489,-3.5489,-3.5489,-3.5489,-3.5831,-3.6384,-3.7189,-3.7991,-3.8854,-3.9636,-4.002,-4.0113,-4.0113,-4.0113,-4.0113,-4.0113,-4.0113,-4.0113,-4.0113,-4.0113,-4.0113,-4.0113,-4.0113,-4.0113,-4.0113,-4.0113,-4.0113,-4.0113,-4.0113,-4.0113,-4.0113,-4.0113,-4.0113,-4.0113,-4.0113,-4.0113,-4.0113,-4.0113,-4.0113,-4.0113,-4.0113,-4.0113,-4.0113,-4.0113,-4.0113,-4.0113,-4.0045,-3.991,-3.9588,-3.9106,-3.8599,-3.8024,-3.7449,-3.6907,-3.6485,-3.6129,-3.5893,-3.5616,-3.5718,-3.5819,-3.565,-3.565,-3.5819,-3.618,-3.6755,-2.9779,-2.9779,-2.9779,-2.9779,-2.9779,-2.9779,-2.9779,-2.9779,-2.9856,-3.0305,-3.1241,-3.2177,-3.3122,-3.4061,-3.4872,-3.5392,-3.5457,-3.5489,-3.5489,-3.5489,-3.5489,-3.5489,-3.5489,-3.5489,-3.5489,-3.5489,-3.5489,-3.5489,-3.5489,-3.5489,-3.5489,-3.5489,-3.5489,-3.5489,-3.5489,-3.5489,-3.5489,-3.5489,-3.5489,-3.5489,-3.5489,-3.5489,-3.5489,-3.5489,-3.5489,-3.5489,-3.5489,-3.5489,-3.5489,-3.5489,-3.5489,-3.5489,-3.5489,-3.5489,-3.5604,-3.6023,-3.6646,-3.7629,-3.8674,-3.961,-4.007,-4.0113,-4.0113,-4.0113,-4.0113,-4.0113,-4.0113,-4.0113,-4.0113,-4.0113,-4.0113,-4.0113,-4.0113,-4.0113,-4.0113,-4.0113,-4.0113,-4.0113,-4.0113,-4.0113,-4.0113,-4.0113,-4.0113,-4.0045,-4.0045,-4.002,-3.9995,-4.007,-4.0113,-4.0113,-4.0113,-4.0113,-4.0113,-4.0113,-4.0113,-4.0113,-4.0113,-4.0011,-3.9503,-3.8836,-3.8311,-3.7905,-3.7108,-3.647,-3.6162,-3.5887,-3.5614,-3.5498,-3.5937,-3.6079,-3.5587,-3.5796,-3.6282,-3.6569,-3.6941,-2.9779,-2.9779,-2.9779,-2.9779,-2.9779,-2.9779,-2.9779,-2.9779,-2.9779,-3.0177,-3.0809,-3.1696,-3.2393,-3.3136,-3.3973,-3.4806,-3.4905,-3.4986,-3.5392,-3.5424,-3.5489,-3.5489,-3.5489,-3.5489,-3.5489,-3.5489,-3.5489,-3.5489,-3.5489,-3.5489,-3.5489,-3.5489,-3.5489,-3.5489,-3.5489,-3.5489,-3.5489,-3.5489,-3.5489,-3.5489,-3.5489,-3.5489,-3.5489,-3.5489,-3.5489,-3.5489,-3.5489,-3.5489,-3.5489,-3.5489,-3.5489,-3.5489,-3.5489,-3.5489,-3.5489,-3.5686,-3.6554,-3.7745,-3.9113,-3.9731,-4.0096,-4.0113,-4.0113,-4.0113,-4.0113,-4.0113,-4.0113,-4.0113,-4.0113,-4.0113,-4.0113,-4.0113,-4.0113,-4.0113,-4.0113,-4.0113,-4.0045,-4.0045,-4.0045,-4.0045,-4.002,-4.0045,-3.9995,-4.002,-3.9978,-3.9927,-3.9901,-3.9927,-3.9995,-3.9995,-3.9952,-3.9952,-3.9995,-3.9952,-4.002,-4.0113,-4.0113,-4.0113,-3.9437,-3.8655,-3.8464,-3.8108,-3.706,-3.6199,-3.6231,-3.6054,-3.5437,-3.533,-3.5584,-3.5459,-3.5006,-3.5535,-3.6561,-3.6867,-3.6939,-2.9779,-2.9779,-2.9779,-2.9779,-2.9779,-2.9779,-2.9779,-2.9779,-2.9779,-2.9818,-2.9921,-3.0908,-3.1462,-3.1536,-3.2321,-3.322,-3.3959,-3.4061,-3.461,-3.5213,-3.5392,-3.5424,-3.5489,-3.5489,-3.5489,-3.5489,-3.5489,-3.5489,-3.5489,-3.5489,-3.5489,-3.5489,-3.5489,-3.5489,-3.5489,-3.5489,-3.5489,-3.5489,-3.5489,-3.5489,-3.5489,-3.5489,-3.5489,-3.5489,-3.5489,-3.5489,-3.5489,-3.5489,-3.5489,-3.5489,-3.5489,-3.5489,-3.5489,-3.5489,-3.5489,-3.599,-3.7131,-3.8486,-3.9653,-4.0045,-4.007,-4.0113,-4.0113,-4.0113,-4.0113,-4.0113,-4.0113,-4.0113,-4.0113,-4.0113,-4.0113,-4.0113,-4.0113,-4.0113,-4.0113,-4.0045,-3.9952,-3.9952,-3.9995,-3.9969,-3.9901,-3.9825,-3.9575,-3.9575,-3.9358,-3.9199,-3.9146,-3.9305,-3.9401,-3.9714,-3.9688,-3.9731,-3.9731,-3.9782,-3.9782,-3.9558,-3.9454,-3.9226,-3.9061,-3.8485,-3.8396,-3.8044,-3.7053,-3.6388,-3.6518,-3.6242,-3.5531,-3.5126,-3.4984,-3.4825,-3.4919,-3.5387,-3.6448,-3.6488,-3.6606,-2.9779,-2.9779,-2.9779,-2.9779,-2.9779,-2.9779,-2.9779,-2.9779,-2.9779,-2.9779,-2.9869,-3.0796,-3.1068,-3.1278,-3.2164,-3.2678,-3.3136,-3.3622,-3.4061,-3.461,-3.5213,-3.5424,-3.5489,-3.5489,-3.5489,-3.5489,-3.5489,-3.5489,-3.5489,-3.5489,-3.5489,-3.5489,-3.5489,-3.5489,-3.5489,-3.5489,-3.5489,-3.5489,-3.5489,-3.5489,-3.5489,-3.5489,-3.5489,-3.5489,-3.5489,-3.5489,-3.5489,-3.5489,-3.5489,-3.5489,-3.5489,-3.5489,-3.5489,-3.5554,-3.5733,-3.7115,-3.8104,-3.9032,-3.9876,-4.0113,-4.0113,-4.0113,-4.0113,-4.0113,-4.0113,-4.0113,-4.0113,-4.0113,-4.0113,-4.0113,-4.0113,-4.0113,-4.0113,-4.0113,-3.9995,-3.9756,-3.9636,-3.9558,-3.9558,-3.9332,-3.9279,-3.9129,-3.8914,-3.8723,-3.8513,-3.8318,-3.8318,-3.8513,-3.8734,-3.9005,-3.9209,-3.9209,-3.9076,-3.8995,-3.8695,-3.8446,-3.8402,-3.8353,-3.8297,-3.8144,-3.7719,-3.7269,-3.6713,-3.6411,-3.6279,-3.5984,-3.5556,-3.5218,-3.492,-3.5315,-3.5508,-3.5826,-3.6102,-3.6085,-3.6236,-2.9779,-2.9779,-2.9779,-2.9779,-2.9779,-2.9779,-2.9779,-2.9779,-2.9779,-2.9779,-2.9856,-3.0381,-3.0658,-3.0658,-3.1156,-3.1659,-3.2128,-3.2947,-3.3602,-3.4327,-3.5067,-3.5344,-3.5489,-3.5489,-3.5489,-3.5489,-3.5489,-3.5489,-3.5489,-3.5489,-3.5489,-3.5489,-3.5489,-3.5489,-3.5489,-3.5489,-3.5489,-3.5489,-3.5489,-3.5489,-3.5489,-3.5489,-3.5489,-3.5489,-3.5489,-3.5489,-3.5489,-3.5489,-3.5489,-3.5489,-3.5489,-3.5489,-3.5604,-3.5782,-3.6399,-3.7632,-3.8414,-3.9193,-3.9927,-4.0096,-4.0113,-4.0113,-4.0113,-4.0113,-4.0113,-4.0113,-4.0113,-4.0113,-4.0113,-4.0113,-4.0113,-4.0113,-4.0113,-4.0113,-3.9756,-3.9394,-3.9236,-3.9102,-3.8843,-3.8553,-3.8386,-3.8246,-3.8064,-3.7835,-3.769,-3.7573,-3.7557,-3.7761,-3.7933,-3.8117,-3.8358,-3.8458,-3.8262,-3.8064,-3.7764,-3.7618,-3.7748,-3.7863,-3.7999,-3.7725,-3.7169,-3.6988,-3.6901,-3.6416,-3.5857,-3.5578,-3.5301,-3.5165,-3.5002,-3.5365,-3.5449,-3.5361,-3.5428,-3.5456,-3.5706,-2.9779,-2.9779,-2.9779,-2.9779,-2.9779,-2.9779,-2.9779,-2.9779,-2.9779,-2.9779,-2.9818,-2.9818,-2.9895,-3.0024,-3.0216,-3.0696,-3.1476,-3.2393,-3.3345,-3.4027,-3.5034,-3.5472,-3.5489,-3.5489,-3.5489,-3.5489,-3.5489,-3.5489,-3.5489,-3.5489,-3.5489,-3.5489,-3.5489,-3.5489,-3.5489,-3.5489,-3.5489,-3.5489,-3.5489,-3.5489,-3.5489,-3.5489,-3.5489,-3.5489,-3.5489,-3.5489,-3.5489,-3.5489,-3.5489,-3.5489,-3.5489,-3.5489,-3.5686,-3.6352,-3.7115,-3.7819,-3.8635,-3.9368,-3.9927,-4.0096,-4.0113,-4.0113,-4.0113,-4.0113,-4.0113,-4.0113,-4.0113,-4.0113,-4.0113,-3.9876,-3.9782,-3.9662,-3.9636,-3.9358,-3.8995,-3.858,-3.8241,-3.8088,-3.7889,-3.7658,-3.7629,-3.7469,-3.7145,-3.692,-3.6799,-3.6753,-3.6783,-3.6935,-3.704,-3.7203,-3.7469,-3.7632,-3.7294,-3.7101,-3.7131,-3.7041,-3.7265,-3.7413,-3.7442,-3.7293,-3.6685,-3.6867,-3.7263,-3.6488,-3.5661,-3.5305,-3.5058,-3.5031,-3.5049,-3.4941,-3.4966,-3.4716,-3.4769,-3.516,-3.5556,-2.9779,-2.9779,-2.9779,-2.9779,-2.9779,-2.9779,-2.9779,-2.9779,-2.9779,-2.9779,-2.9779,-2.9779,-2.9779,-2.9779,-2.9792,-3.0279,-3.1156,-3.2141,-3.3087,-3.3993,-3.4986,-3.5472,-3.5489,-3.5489,-3.5489,-3.5489,-3.5489,-3.5489,-3.5489,-3.5489,-3.5489,-3.5489,-3.5489,-3.5489,-3.5489,-3.5489,-3.5489,-3.5489,-3.5489,-3.5489,-3.5489,-3.5489,-3.5489,-3.5489,-3.5489,-3.5489,-3.5489,-3.5489,-3.5489,-3.5489,-3.5489,-3.5489,-3.5522,-3.6768,-3.7501,-3.7978,-3.8924,-3.961,-3.9952,-4.0113,-4.0113,-4.0113,-4.0113,-4.0113,-4.0113,-4.0113,-4.0113,-4.0113,-3.9995,-3.9688,-3.942,-3.9289,-3.9059,-3.8652,-3.8206,-3.7745,-3.7291,-3.7068,-3.6889,-3.6889,-3.6889,-3.6661,-3.6305,-3.6101,-3.5926,-3.5878,-3.5846,-3.591,-3.6022,-3.6149,-3.6538,-3.6646,-3.6227,-3.6085,-3.6227,-3.6399,-3.6538,-3.6415,-3.6337,-3.6227,-3.6179,-3.629,-3.643,-3.6053,-3.5499,-3.5282,-3.5205,-3.5329,-3.5249,-3.5028,-3.4956,-3.4912,-3.5453,-3.5931,-3.6088,-2.9779,-2.9779,-2.9779,-2.9779,-2.9779,-2.9779,-2.9779,-2.9779,-2.9779,-2.9779,-2.9779,-2.9779,-2.9779,-2.9779,-2.9792,-2.9998,-3.0871,-3.2033,-3.27,-3.3567,-3.4806,-3.5344,-3.5489,-3.5489,-3.5489,-3.5489,-3.5489,-3.5489,-3.5489,-3.5489,-3.5489,-3.5489,-3.5489,-3.5489,-3.5489,-3.5489,-3.5489,-3.5489,-3.5489,-3.5489,-3.5489,-3.5489,-3.5489,-3.5489,-3.5489,-3.5489,-3.5489,-3.5489,-3.5489,-3.5489,-3.5489,-3.5489,-3.5733,-3.6538,-3.7324,-3.7978,-3.8789,-3.9747,-3.9969,-4.0113,-4.0113,-4.0113,-4.0113,-4.0113,-4.0113,-4.0113,-4.0113,-4.0113,-4.0113,-3.9876,-3.9289,-3.9032,-3.8652,-3.8234,-3.7573,-3.6964,-3.6538,-3.6212,-3.6133,-3.6117,-3.6117,-3.607,-3.5814,-3.5782,-3.5636,-3.5668,-3.5522,-3.5537,-3.5489,-3.5489,-3.5767,-3.5911,-3.5668,-3.5569,-3.5765,-3.5782,-3.5782,-3.5587,-3.5489,-3.5651,-3.5829,-3.5668,-3.5522,-3.5537,-3.5537,-3.5474,-3.5459,-3.5489,-3.5489,-3.5319,-3.5281,-3.5318,-3.5946,-3.6556,-3.6949,-2.9779,-2.9779,-2.9779,-2.9779,-2.9779,-2.9779,-2.9779,-2.9779,-2.9779,-2.9779,-2.9779,-2.9779,-2.9779,-2.9779,-2.9779,-2.9895,-3.0533,-3.196,-3.2571,-3.3429,-3.4773,-3.5279,-3.5489,-3.5489,-3.5489,-3.5489,-3.5489,-3.5489,-3.5489,-3.5489,-3.5489,-3.5489,-3.5489,-3.5489,-3.5489,-3.5489,-3.5489,-3.5489,-3.5489,-3.5489,-3.5489,-3.5489,-3.5489,-3.5489,-3.5489,-3.5489,-3.5489,-3.5489,-3.5489,-3.5489,-3.5489,-3.5489,-3.5718,-3.6321,-3.7086,-3.7806,-3.8553,-3.9385,-3.9901,-4.0113,-4.0113,-4.0113,-4.0113,-4.0113,-4.0113,-4.0113,-4.0113,-4.0113,-4.0113,-3.9731,-3.9156,-3.8652,-3.8262,-3.7573,-3.6844,-3.6306,-3.5926,-3.5569,-3.5554,-3.5554,-3.5554,-3.5537,-3.5537,-3.5489,-3.5489,-3.5489,-3.5489,-3.5489,-3.5489,-3.5489,-3.5636,-3.5686,-3.5587,-3.5489,-3.5489,-3.5489,-3.5489,-3.5489,-3.5489,-3.5489,-3.5489,-3.5489,-3.5489,-3.5489,-3.5489,-3.5489,-3.5489,-3.5489,-3.5489,-3.5489,-3.5467,-3.5525,-3.6153,-3.6853,-3.7721,-2.9779,-2.9779,-2.9779,-2.9779,-2.9779,-2.9779,-2.9779,-2.9779,-2.9779,-2.9779,-2.9779,-2.9779,-2.9779,-2.9779,-2.9779,-2.9998,-3.0696,-3.1997,-3.3066,-3.3959,-3.4725,-3.5246,-3.5489,-3.5489,-3.5489,-3.5489,-3.5489,-3.5489,-3.5489,-3.5489,-3.5489,-3.5489,-3.5489,-3.5489,-3.5489,-3.5489,-3.5489,-3.5489,-3.5489,-3.5489,-3.5489,-3.5489,-3.5489,-3.5489,-3.5489,-3.5489,-3.5489,-3.5489,-3.5489,-3.5489,-3.5489,-3.5489,-3.5686,-3.6134,-3.6874,-3.769,-3.8442,-3.9209,-3.9731,-4.0045,-4.0113,-4.0113,-4.0113,-4.0113,-4.0113,-4.0113,-4.0113,-4.0113,-3.9901,-3.9295,-3.875,-3.8262,-3.7822,-3.6707,-3.5799,-3.5782,-3.5587,-3.5537,-3.5522,-3.5522,-3.5522,-3.5504,-3.5489,-3.5489,-3.5489,-3.5489,-3.5489,-3.5489,-3.5489,-3.5489,-3.5489,-3.5489,-3.5489,-3.5489,-3.5489,-3.5489,-3.5489,-3.5489,-3.5489,-3.5489,-3.5489,-3.5489,-3.5489,-3.5489,-3.5489,-3.5489,-3.5489,-3.5489,-3.5489,-3.5489,-3.5489,-3.5672,-3.6322,-3.6918,-3.7613]}]]